[[{"header":{"parameterUnit":"m.s-1","parameterCategory":1,"la1":30.6,"la2":29.2853,"lo1":-89.7004,"lo2":-87.6739,"dy":0.0162,"dx":0.0183,"nx":112,"ny":82,"refTime":"2023-11-02T00:00:00:Z","depth":0,"parameterNumber":2,"parameterNumberName":"U-component_of_WINDS"},"data":[0.0,0.0,0.0,0.0,0.0,0.0,0.0,0.0,0.0,0.0,0.0,0.0,0.0,0.0,0.0,0.0,0.0,0.0,0.0,0.0,0.0,0.0,0.0,0.0,0.0,0.0,0.0,0.0,0.0,0.0,0.0,0.0,0.0,0.0,0.0,0.0,0.0,0.0,0.0,0.0,0.0,0.0,0.0,0.0,0.0,0.0,0.0,0.0,0.0,0.0,0.0,0.0,0.0,0.0,0.0,0.0,0.0,0.0,0.0,0.0,0.0,0.0,0.0,0.0,0.0,0.0,0.0,0.0,0.0,0.0,0.0,0.0,0.0,0.0,0.0,0.0,0.0,0.0,0.0,0.0,0.0,0.0,0.0,0.0,0.0,0.0,0.0,0.0,0.0,0.0,1.2905,1.2905,1.2905,1.2905,1.2905,1.2905,1.2905,1.2905,0.0,0.0,0.0,0.0,0.0,0.0,0.0,0.0,0.0,0.0,0.0,0.0,0.0,0.0,0.0,0.0,0.0,0.0,0.0,0.0,0.0,0.0,0.0,0.0,0.0,0.0,0.0,0.0,0.0,0.0,0.0,0.0,0.0,0.0,0.0,0.0,0.0,0.0,0.0,0.0,0.0,0.0,0.0,0.0,0.0,0.0,0.0,0.0,0.0,0.0,0.0,0.0,0.0,0.0,0.0,0.0,0.0,0.0,0.0,0.0,0.0,0.0,0.0,0.0,0.0,0.0,0.0,0.0,0.0,0.0,0.0,0.0,0.0,0.0,0.0,0.0,0.0,0.0,0.0,0.0,0.0,0.0,0.0,0.0,0.0,0.0,0.0,0.0,0.0,0.0,0.0,0.0,0.0,0.0,0.0,0.0,0.0,0.0,0.0,0.0,0.0,0.0,0.0,0.0,1.2905,1.2905,1.2905,1.2905,1.2905,1.2905,1.2905,1.2905,0.0,0.0,0.0,0.0,0.0,0.0,0.0,0.0,0.0,0.0,0.0,0.0,0.0,0.0,0.0,0.0,0.0,0.0,0.0,0.0,0.0,0.0,0.0,0.0,0.0,0.0,0.0,0.0,0.0,0.0,0.0,0.0,0.0,0.0,0.0,0.0,0.0,0.0,0.0,0.0,0.0,0.0,0.0,0.0,0.0,0.0,0.0,0.0,0.0,0.0,0.0,0.0,0.0,0.0,0.0,0.0,0.0,0.0,0.0,0.0,0.0,0.0,0.0,0.0,0.0,0.0,0.0,0.0,0.0,0.0,0.0,0.0,0.0,0.0,0.0,0.0,0.0,0.0,0.0,0.0,0.0,0.0,0.0,0.0,0.0,0.0,0.0,0.0,0.0,0.0,0.0,0.0,0.0,0.0,0.0,0.0,0.0,0.0,0.0,0.0,0.0,0.0,0.0,1.2905,1.2905,1.2905,1.2905,1.2905,1.2905,1.2905,1.2905,1.2905,1.2905,0.0,0.0,0.0,0.0,0.0,0.0,0.0,0.0,0.0,0.0,0.0,0.0,0.0,0.0,0.0,0.0,0.0,0.0,0.0,0.0,0.0,0.0,0.0,0.0,0.0,0.0,0.0,0.0,0.0,0.0,0.0,0.0,0.0,0.0,0.0,0.0,0.0,0.0,0.0,0.0,0.0,0.0,0.0,0.0,0.0,0.0,0.0,0.0,0.0,0.0,0.0,0.0,0.0,0.0,0.0,0.0,0.0,0.0,0.0,0.0,0.0,0.0,0.0,0.0,0.0,0.0,0.0,0.0,0.0,0.0,0.0,0.0,0.0,0.0,0.0,0.0,0.0,0.0,0.0,0.0,0.0,0.0,0.0,0.0,0.0,0.0,0.0,0.0,0.0,0.0,0.0,0.0,0.0,0.0,0.0,0.0,0.0,0.0,0.0,0.0,0.0,0.0,1.2905,1.2905,1.2905,1.2905,1.2905,1.2905,1.2905,1.2905,1.2905,1.2905,0.0,0.0,0.0,0.0,0.0,0.0,0.0,0.0,0.0,0.0,0.0,0.0,0.0,0.0,0.0,0.0,0.0,0.0,0.0,0.0,0.0,0.0,0.0,0.0,0.0,0.0,0.0,0.0,0.0,0.0,0.0,0.0,0.0,0.0,0.0,0.0,0.0,0.0,0.0,0.0,0.0,0.0,0.0,0.0,0.0,0.0,0.0,0.0,0.0,0.0,0.0,0.0,0.0,0.0,0.0,0.0,0.0,0.0,0.0,0.0,0.0,0.0,0.0,0.0,0.0,0.0,0.0,0.0,0.0,0.0,0.0,0.0,0.0,0.0,0.0,0.0,0.0,0.0,0.0,0.0,0.0,0.0,0.0,0.0,0.0,0.0,0.0,0.0,0.0,0.0,0.0,0.0,0.0,0.0,0.0,0.0,0.0,0.0,0.0,0.0,0.0,0.0,1.2905,1.2905,1.2905,1.2905,1.2905,1.2905,1.2905,1.2905,1.2905,1.2905,0.0,0.0,0.0,0.0,0.0,0.0,0.0,0.0,0.0,0.0,0.0,0.0,0.0,0.0,0.0,0.0,0.0,0.0,0.0,0.0,0.0,0.0,0.0,0.0,0.0,0.0,0.0,0.0,0.0,0.0,0.0,0.0,0.0,0.0,0.0,0.0,0.0,0.0,0.0,0.0,0.0,0.0,0.0,0.0,0.0,0.0,0.0,0.0,0.0,0.0,0.0,0.0,0.0,0.0,0.0,0.0,0.0,0.0,0.0,0.0,0.0,0.0,0.0,0.0,0.0,0.0,0.0,0.0,0.0,0.0,0.0,0.0,0.0,0.0,0.0,0.0,0.0,0.0,0.0,0.0,0.0,0.0,0.0,0.0,0.0,0.0,0.0,0.0,0.0,0.0,0.0,0.0,0.0,0.0,0.0,0.0,0.0,0.0,0.0,0.0,0.0,0.0,1.2905,1.2905,0.0,1.2905,1.2905,1.2905,1.2905,1.2905,1.2905,0.0,0.0,0.0,0.0,0.0,0.0,0.0,0.0,0.0,0.0,0.0,0.0,0.0,0.0,0.0,0.0,0.0,0.0,0.0,0.0,0.0,0.0,0.0,0.0,0.0,0.0,0.0,0.0,0.0,0.0,0.0,0.0,0.0,0.0,0.0,0.0,0.0,0.0,0.0,0.0,0.0,0.0,0.0,0.0,0.0,0.0,0.0,0.0,0.0,0.0,0.0,0.0,0.0,0.0,0.0,0.0,0.0,0.0,0.0,0.0,0.0,0.0,0.0,0.0,0.0,0.0,0.0,0.0,0.0,0.0,0.0,0.0,0.0,0.0,0.0,0.0,0.0,0.0,0.0,0.0,0.0,0.0,0.0,0.0,0.0,0.0,0.0,0.0,0.0,0.0,0.0,0.0,0.0,0.0,0.0,0.0,0.0,0.0,0.0,0.0,0.0,0.0,1.2905,1.2905,1.2905,0.0,1.2905,1.2905,1.2905,1.2905,1.2905,1.2905,0.0,0.0,0.0,0.0,0.0,0.0,0.0,0.0,0.0,0.0,0.0,0.0,0.0,0.0,0.0,0.0,0.0,0.0,0.0,0.0,0.0,0.0,0.0,0.0,0.0,0.0,0.0,0.0,0.0,0.0,0.0,0.0,0.0,0.0,0.0,0.0,0.0,0.0,0.0,0.0,0.0,0.0,0.0,0.0,0.0,0.0,0.0,0.0,0.0,0.0,0.0,0.0,0.0,0.0,0.0,0.0,0.0,0.0,0.0,0.0,0.0,0.0,0.0,0.0,0.0,0.0,0.0,0.0,0.0,0.0,0.0,0.0,0.0,0.0,0.0,0.0,0.0,0.0,0.0,0.0,0.0,0.0,0.0,0.0,0.0,0.0,0.0,0.0,0.0,0.0,0.0,0.0,0.0,0.0,0.0,0.0,0.0,0.0,0.0,0.0,0.0,0.0,1.2905,1.2905,1.2905,1.2905,1.2905,1.2905,1.2905,1.2905,1.2905,0.0,0.0,0.0,0.0,0.0,0.0,0.0,0.0,0.0,0.0,0.0,0.0,0.0,0.0,0.0,0.0,0.0,0.0,0.0,0.0,0.0,0.0,0.0,0.0,0.0,0.0,0.0,0.0,0.0,0.0,0.0,0.0,0.0,0.0,0.0,0.0,0.0,0.0,0.0,0.0,0.0,0.0,0.0,0.0,0.0,0.0,0.0,0.0,0.0,0.0,0.0,0.0,0.0,0.0,0.0,0.0,0.0,0.0,0.0,0.0,0.0,0.0,0.0,0.0,0.0,0.0,0.0,0.0,0.0,0.0,0.0,0.0,0.0,0.0,0.0,0.0,0.0,0.0,0.0,0.0,0.0,0.0,0.0,0.0,0.0,0.0,0.0,0.0,0.0,0.0,0.0,0.0,0.0,0.0,0.0,0.0,0.0,0.0,0.0,0.0,0.0,0.0,0.0,1.2905,1.2905,1.2905,1.2905,1.2905,1.2905,1.2905,1.2905,1.2905,1.2905,0.0,0.0,0.0,0.0,0.0,0.0,0.0,0.0,0.0,0.0,0.0,0.0,0.0,0.0,0.0,0.0,0.0,0.0,0.0,0.0,0.0,0.0,0.0,0.0,0.0,0.0,0.0,0.0,0.0,0.0,0.0,0.0,0.0,0.0,0.0,0.0,0.0,0.0,0.0,0.0,0.0,0.0,0.0,0.0,0.0,0.0,0.0,0.0,0.0,0.0,0.0,0.0,0.0,0.0,0.0,0.0,0.0,0.0,0.0,0.0,0.0,0.0,0.0,0.0,0.0,0.0,0.0,0.0,0.0,0.0,0.0,0.0,0.0,0.0,0.0,0.0,0.0,0.0,0.0,0.0,0.0,0.0,0.0,0.0,0.0,0.0,0.0,0.0,0.0,0.0,0.0,0.0,0.0,0.0,0.0,0.0,0.0,0.0,0.0,0.0,0.0,0.0,1.3379,1.3379,1.3379,1.3379,1.3379,1.3311,1.3145,1.3135,1.3057,1.2915,0.0,0.0,0.0,0.0,0.0,0.0,0.0,0.0,0.0,0.0,0.0,0.0,0.0,0.0,0.0,0.0,0.0,0.0,0.0,0.0,0.0,0.0,0.0,0.0,0.0,0.0,0.0,0.0,0.0,0.0,0.0,0.0,0.0,0.0,0.0,0.0,0.0,0.0,0.0,0.0,0.0,0.0,0.0,0.0,0.0,0.0,0.0,0.0,0.0,0.0,0.0,0.0,0.0,0.0,0.0,0.0,0.0,0.0,0.0,0.0,0.0,0.0,0.0,0.0,0.0,0.0,0.0,0.0,0.0,0.0,0.0,0.0,0.0,0.0,0.0,0.0,0.0,0.0,0.0,0.0,0.0,0.0,0.0,0.0,0.0,0.0,0.0,0.0,0.0,0.0,0.0,0.0,0.0,0.0,0.0,0.0,0.0,0.0,0.0,0.0,0.0,0.0,1.4104,1.4104,1.4104,1.4104,1.4104,1.3948,1.3603,1.3564,1.3408,1.3018,0.0,0.0,0.0,0.0,0.0,0.0,0.0,0.0,0.0,0.0,0.0,0.0,0.0,0.0,0.0,0.0,0.0,0.0,0.0,0.0,0.0,0.0,0.0,0.0,0.0,0.0,0.0,0.0,0.0,0.0,0.0,0.0,0.0,0.0,0.0,0.0,0.0,0.0,0.0,0.0,0.0,0.0,0.0,0.0,0.0,0.0,0.0,0.0,0.0,0.0,0.0,0.0,0.0,0.0,0.0,0.0,0.0,0.0,0.0,0.0,1.1832,0.0,0.0,0.0,0.0,0.0,0.0,0.0,0.0,0.0,0.0,0.0,0.0,0.0,0.0,0.0,0.0,0.0,0.0,0.0,0.0,0.0,0.0,0.0,0.0,0.0,0.0,0.0,0.0,0.0,0.0,0.0,0.0,0.0,0.0,0.0,0.0,0.0,0.0,0.0,0.0,0.0,1.4104,1.4104,1.4104,1.4104,1.4104,1.4075,1.3977,1.3977,1.3938,1.3851,1.3555,0.0,0.0,0.0,0.0,0.0,0.0,0.0,0.0,0.0,0.0,0.0,0.0,0.0,0.0,0.0,0.0,0.0,0.0,0.0,0.0,0.0,0.0,0.0,0.0,0.0,0.0,0.0,0.0,0.0,0.0,0.0,0.0,0.0,0.0,0.0,0.0,0.0,0.0,0.0,0.0,0.0,0.0,0.0,0.0,0.0,0.0,0.0,0.0,0.0,0.0,0.0,0.0,0.0,0.0,0.0,0.0,0.0,0.0,0.0,0.0,1.2344,0.0,0.0,0.0,0.0,0.0,0.0,0.0,0.0,0.0,0.0,0.0,0.0,0.0,0.0,0.0,0.0,0.0,0.0,0.0,0.0,0.0,0.0,0.0,0.0,0.0,0.0,0.0,0.0,0.0,0.0,0.0,0.0,0.0,0.0,0.0,0.0,0.0,0.0,0.0,0.0,1.4718,1.4718,1.4718,1.4718,1.4718,1.464,1.4436,1.4453,1.4328,1.4114,1.3899,0.0,0.0,0.0,0.0,0.0,0.0,0.0,0.0,0.0,0.0,0.0,0.0,0.0,0.0,0.0,0.0,0.0,0.0,0.0,0.0,0.0,0.0,0.0,0.0,0.0,0.0,0.0,0.0,0.0,0.0,0.0,0.0,0.0,0.0,0.0,0.0,0.0,0.0,0.0,0.0,0.0,0.0,0.0,0.0,0.0,0.0,0.0,0.0,0.0,0.0,0.0,0.0,0.0,1.187,1.239,1.2799,1.3355,1.3782,1.4065,1.3398,1.2769,1.2257,1.2853,0.0,0.0,0.0,0.0,0.0,0.0,0.0,0.0,0.0,0.0,0.0,0.0,0.0,0.0,0.0,0.0,0.0,0.0,0.0,0.0,0.0,0.0,0.0,0.0,1.4328,1.4328,0.0,0.0,0.0,0.0,0.0,0.0,0.0,0.0,0.0,0.0,0.0,0.0,1.541,1.541,1.541,1.541,1.541,1.5273,1.4922,1.4893,1.4736,1.4348,1.426,1.4221,0.0,0.0,0.0,0.0,0.0,0.0,0.0,0.0,0.0,0.0,0.0,0.0,0.0,0.0,0.0,0.0,0.0,0.0,0.0,0.0,0.0,0.0,0.0,0.0,0.0,0.0,0.0,0.0,0.0,0.0,0.0,0.0,0.7898,0.9235,0.0,0.0,0.0,0.0,0.0,0.0,0.0,0.0,0.0,0.0,0.0,0.0,0.0,1.0919,1.1389,1.1991,1.2457,1.2788,1.3468,1.3826,1.3883,1.3973,1.4055,1.4104,1.3987,0.0,1.3797,1.3912,0.0,0.0,0.0,0.0,0.0,0.0,0.0,0.0,0.0,0.0,0.0,0.0,0.0,0.0,0.0,0.0,0.0,0.0,0.0,0.0,0.0,0.0,1.4795,1.5156,1.5244,1.5244,0.0,1.463,1.4221,1.4629,1.4697,0.0,0.0,0.0,0.0,0.0,0.0,0.0,1.541,1.541,1.541,1.541,1.541,1.5391,1.5332,1.5322,1.5303,1.5215,1.4902,1.4697,1.4697,1.426,0.0,0.0,0.0,0.0,0.0,0.0,0.0,0.0,0.0,0.0,0.0,0.0,0.0,0.0,0.0,0.0,0.0,0.0,0.0,0.0,0.0,0.0,0.0,0.0,0.0,0.0,0.0,0.0,0.0,0.7637,0.8553,0.9159,0.8685,0.8573,0.0,0.0,0.0,0.0,0.0,0.0,0.0,0.0,0.0,1.1739,1.1965,1.2369,1.2948,1.3259,1.3486,1.3665,1.397,1.4241,1.4502,1.4502,1.4629,1.4825,1.4825,1.4825,1.4786,1.4299,1.4104,1.4104,0.0,0.0,0.0,0.0,1.4104,1.4143,1.4414,1.4502,0.0,1.4502,0.0,0.0,0.0,0.0,0.0,0.0,0.0,0.0,0.0,0.0,1.5186,1.5371,1.541,1.541,1.541,1.5089,1.4874,0.0,1.5137,1.5195,1.5381,0.0,0.0,0.0,0.0,1.541,1.541,1.541,1.541,1.541,1.541,1.541,1.541,1.541,1.541,1.541,1.5234,1.5137,1.5137,1.4727,1.4414,0.0,0.0,0.0,0.0,0.0,0.0,0.0,0.0,0.0,0.0,0.0,0.0,0.0,0.0,0.0,0.0,0.0,0.0,0.0,0.0,0.0,0.0,0.0,0.0,0.0,0.0,0.0,0.0,0.8348,0.8857,0.9035,0.9061,0.9309,0.0,0.0,0.0,0.0,0.0,0.0,1.1378,1.1886,1.2396,1.2898,1.321,1.3658,1.427,1.427,1.4328,1.4436,1.4436,1.4629,1.4941,1.4941,1.5117,1.541,1.541,1.541,1.5361,1.4699,1.4436,1.4436,1.4436,1.4436,1.4436,1.4436,1.4436,1.4475,1.4834,1.4941,1.4941,1.4941,0.0,1.4941,1.4941,0.0,0.0,0.0,0.0,1.541,1.541,1.541,1.541,1.541,1.541,1.541,1.541,1.541,1.541,0.0,1.541,1.541,1.541,0.0,0.0,0.0,0.0,1.541,1.541,1.541,1.541,1.541,1.541,1.541,1.541,1.541,1.541,1.541,1.541,1.541,1.541,1.5107,1.4921,1.4813,0.0,0.0,0.0,0.0,0.0,0.0,0.0,0.0,0.0,0.0,0.0,0.0,0.0,0.0,0.0,0.0,0.0,0.0,0.0,0.0,0.0,0.0,0.0,0.0,0.0,0.0,0.0,0.0,0.0,0.9658,0.9744,0.0,0.0,0.0,0.0,1.1465,1.2395,1.2969,1.2969,1.3618,1.3985,1.4022,1.4041,1.4272,1.4746,1.4746,1.4951,1.5313,1.5313,1.5361,1.5381,1.5381,1.5391,1.541,1.541,1.541,1.541,1.5361,1.5313,1.5313,1.5313,1.5313,1.5313,1.5313,1.5313,1.5352,1.5371,1.5381,1.5381,1.5381,1.5381,1.5381,1.5381,1.5391,0.0,0.0,1.541,1.541,1.541,1.541,1.541,1.541,1.541,1.541,1.541,1.541,1.541,0.0,1.541,1.541,1.541,0.0,1.541,1.541,1.541,1.541,1.541,1.541,1.541,1.541,1.541,1.541,1.541,1.541,1.541,1.541,1.541,1.541,1.541,1.5391,1.5195,1.4823,1.4793,0.0,0.0,0.0,0.0,0.0,0.0,0.0,0.0,0.0,0.0,0.0,0.0,0.0,0.0,0.0,0.0,0.0,0.0,0.0,0.0,0.0,0.0,0.0,0.0,0.0,0.0,0.0,0.0,1.0185,1.0624,0.0,1.1463,1.2126,1.2483,1.2402,1.3221,1.3746,1.3746,1.4258,1.4551,1.4551,1.4786,1.5029,1.5186,1.5186,1.5264,1.541,1.541,1.541,1.541,1.541,1.541,1.541,1.541,1.541,1.541,1.541,1.541,1.541,1.541,1.541,1.541,1.541,1.541,1.541,1.541,1.541,1.541,1.541,1.541,1.541,1.541,1.541,1.541,1.541,1.541,1.541,1.541,1.541,1.541,1.541,1.541,1.541,1.541,1.541,1.541,1.541,1.541,1.541,1.541,1.541,1.541,1.541,1.541,1.541,1.541,1.541,1.541,1.541,1.541,1.541,1.541,1.541,1.541,1.541,1.541,1.541,1.541,1.541,1.5342,1.5186,1.5186,1.498,0.0,0.0,0.0,0.0,0.0,0.0,0.0,0.0,0.0,0.0,0.0,0.0,0.0,0.0,0.0,0.0,0.0,0.0,0.0,0.0,0.0,0.0,0.0,0.0,0.0,0.0,1.0079,1.0221,1.1059,1.1712,1.187,1.2716,1.335,1.3516,1.4171,1.4533,1.4533,1.4844,1.5,1.5,1.5264,1.541,1.541,1.541,1.541,1.541,1.541,1.541,1.541,1.541,1.541,1.541,1.541,1.541,1.541,1.541,1.541,1.541,1.541,1.541,1.541,1.541,1.541,1.541,1.541,1.541,1.541,1.541,1.541,1.541,1.541,1.541,1.541,1.541,1.541,1.541,1.541,1.541,1.541,1.541,1.541,1.541,1.541,1.541,1.541,1.541,1.541,1.541,1.541,1.541,1.541,1.541,1.541,1.541,1.541,1.541,1.541,1.541,1.541,1.541,1.541,1.541,1.541,1.541,1.541,1.541,1.541,1.541,1.541,1.541,1.541,1.5205,1.4813,0.0,0.0,0.0,0.0,0.0,0.0,0.0,0.0,0.0,0.0,0.0,0.0,0.0,0.0,0.0,0.0,0.0,0.0,0.0,0.0,0.0,0.0,0.0,0.9264,0.9947,1.0311,0.9804,1.1027,1.1919,1.1927,1.295,1.3939,1.4721,1.5186,1.541,1.541,1.541,1.541,1.541,1.541,1.541,1.541,1.541,1.541,1.541,1.541,1.541,1.541,1.541,1.541,1.541,1.541,1.541,1.541,1.541,1.541,1.541,1.541,1.541,1.541,1.541,1.541,1.541,1.541,1.541,1.541,1.541,1.541,1.541,1.541,1.541,1.541,1.541,1.541,1.5391,1.543,1.543,1.5439,1.5449,1.5449,1.5449,1.5449,1.5449,1.5449,1.5449,1.5449,1.542,1.5391,1.541,1.541,1.541,1.541,0.0,1.541,1.541,1.541,1.541,1.541,1.541,1.541,1.541,1.541,1.541,1.541,1.541,1.541,1.541,1.541,1.541,1.541,1.5215,1.4833,0.0,0.0,0.0,0.0,0.0,0.0,0.0,0.0,0.0,0.0,0.0,0.0,0.0,0.0,0.0,0.0,0.0,0.0,0.0,0.0,0.0,0.0,0.9653,0.9573,1.0194,1.0693,1.0843,1.1699,1.2394,1.2679,1.3508,1.4139,1.4344,1.5012,1.541,1.541,1.541,1.541,1.541,1.541,1.541,1.541,1.541,1.541,1.541,1.541,1.541,1.541,1.541,1.541,1.541,1.541,1.541,1.541,1.541,1.541,1.541,1.541,1.541,1.541,1.541,1.541,1.541,1.541,1.541,1.541,1.541,1.541,1.541,1.541,1.541,1.541,1.541,1.541,1.5488,1.5831,1.5919,1.5997,1.6258,1.6336,1.6336,1.6336,1.6336,1.6336,1.6336,1.6336,1.6132,1.5518,1.541,1.541,1.541,1.541,0.0,1.541,1.541,1.541,1.541,1.541,1.541,1.541,1.541,1.541,1.541,1.541,1.541,1.541,1.541,1.541,1.541,1.541,1.5352,0.0,0.0,0.0,0.0,0.0,0.0,0.0,0.0,0.0,0.0,0.0,0.0,0.0,0.0,0.0,0.0,0.0,0.0,0.0,0.0,0.0,0.0,0.9973,1.0084,1.0084,1.0571,1.0975,1.1004,1.1978,1.2756,1.2992,1.3734,1.4332,1.4688,1.5138,1.541,1.541,1.5586,1.5684,1.5684,1.5869,1.5937,1.5937,1.5937,1.5937,1.5937,1.5937,1.5937,1.5937,1.5937,1.5937,1.5937,1.5937,1.5937,1.5937,1.5937,1.5937,0.0,0.0,0.0,0.0,0.0,1.5937,1.5937,1.5937,1.5937,1.5937,1.5937,1.5937,1.5937,1.5937,1.5937,1.5937,1.5937,1.5937,1.6025,1.6279,1.6338,1.6406,1.6638,1.6697,1.6697,1.6697,1.6697,1.6697,1.6697,1.6697,0.0,1.6024,1.5937,1.5937,1.5937,1.5937,1.5868,1.5703,1.5684,1.5615,1.543,1.541,1.541,1.541,1.541,0.0,0.0,0.0,1.541,1.541,1.541,0.0,0.0,0.0,1.541,1.541,0.0,0.0,0.0,1.4932,1.5049,0.0,0.0,0.0,0.0,0.0,0.0,0.0,0.0,0.0,0.0,0.0,0.0,0.0,0.0,0.0,0.0,1.0419,1.0593,1.0593,1.1045,1.1179,1.0654,1.1934,1.2917,1.2978,1.3734,1.4558,1.542,1.5488,1.5508,1.5527,0.0,0.0,0.0,0.0,1.6697,1.6697,1.6697,1.6697,1.6697,1.6697,1.6697,1.6697,1.6697,1.6697,1.6697,1.6697,1.6697,1.6697,1.6697,1.6697,1.6619,1.5839,1.5801,1.6212,1.656,1.6697,1.6697,1.6697,0.0,0.0,1.6697,1.6697,1.6697,1.6697,1.6697,1.6697,1.6697,1.6697,1.6716,1.6765,1.6775,1.6785,1.6833,1.6843,1.6843,1.6843,1.6843,1.6843,1.6843,1.6843,1.6843,1.6843,1.6765,1.6697,1.6697,1.6697,1.656,1.6222,1.6173,1.5997,1.5527,0.0,0.0,1.5391,1.541,1.541,1.541,1.541,1.541,1.541,1.541,1.541,1.541,1.541,1.541,1.541,1.541,1.541,1.541,1.541,1.541,0.0,0.0,0.0,0.0,0.0,0.0,0.0,0.0,0.0,0.0,0.0,0.0,0.0,0.0,0.0,1.0434,1.0553,1.0593,1.0593,1.1238,1.1427,1.0674,1.1445,1.2297,1.2948,1.3734,1.4678,1.5878,1.5968,1.6094,1.6424,1.6521,1.657,1.657,1.6658,1.6697,1.6697,1.6697,1.6697,1.6697,0.0,0.0,1.6697,1.6697,1.6697,1.6697,1.6697,1.6697,1.6697,1.6697,1.6697,1.6687,1.6512,1.6492,1.658,1.6668,1.6697,1.6697,1.6697,1.6697,1.6697,1.6697,1.6697,1.6697,1.6697,1.6697,0.0,1.6697,1.6697,1.6785,1.7168,1.7256,1.7344,1.7686,1.7764,1.7764,1.7764,1.7764,1.7764,1.7764,1.7764,1.7764,1.7764,1.7155,1.6697,1.6697,1.6697,1.6668,1.658,1.657,1.6426,1.6016,1.5968,1.5791,1.5439,1.541,1.541,1.541,1.541,1.541,1.541,1.541,1.541,1.541,1.541,1.541,1.541,1.541,1.541,1.541,1.541,1.541,0.0,0.0,0.0,0.0,0.0,0.0,0.0,0.0,0.0,0.0,0.0,0.944,0.0,0.0,1.0419,1.0566,1.0593,1.0593,1.0593,1.1288,1.1648,1.1257,1.2266,1.325,1.3873,1.4693,1.5486,1.6336,1.6396,1.6494,1.6687,1.6911,1.7061,1.7061,1.7266,1.734,1.734,1.734,1.734,1.734,1.734,1.734,1.734,1.734,1.734,1.734,1.734,1.734,1.734,1.734,1.734,1.734,1.734,1.7246,1.708,1.7295,1.734,1.734,1.734,1.734,1.734,1.734,1.734,1.734,1.734,1.734,1.734,1.734,1.734,1.7389,1.7637,1.7695,1.7744,1.7959,1.8008,1.8008,1.8008,1.8008,1.8008,1.8008,1.8008,1.8008,1.8008,1.7656,1.734,1.734,1.734,1.7262,1.709,1.7061,1.6894,1.6445,1.6232,1.6007,1.5782,1.5537,1.541,1.541,1.541,1.541,1.541,1.541,1.541,1.541,1.541,1.541,1.541,1.541,1.541,1.5381,1.4991,1.5021,0.0,0.0,0.0,0.0,0.0,0.0,0.0,0.6997,0.7805,0.9058,0.9796,1.0274,1.0546,1.0593,1.0593,1.0593,1.0593,1.0593,1.0593,1.1495,1.208,1.1893,1.3336,1.4417,1.4586,1.5572,1.6305,1.652,1.6728,1.6863,1.6941,1.7314,1.75,1.75,1.7832,1.8008,1.8008,1.8008,1.8008,1.8008,1.8008,1.8008,1.8008,1.8008,1.8008,1.8008,1.8008,1.8008,1.8008,1.8008,1.8008,1.8008,1.8008,1.7803,1.7549,1.7881,1.8008,1.8008,1.8008,1.8008,1.8008,1.8008,1.8008,1.8008,1.8008,1.8008,1.8008,1.8008,1.8008,1.8008,1.8008,1.8008,1.8008,1.8008,1.8008,1.8008,1.8008,1.8008,1.8008,1.8008,1.8008,1.8008,1.8008,1.8008,1.8008,1.8008,1.8008,1.7891,1.7549,1.75,1.7334,1.6872,1.6533,1.6281,1.6105,1.5742,1.5498,1.542,1.541,1.541,1.541,1.541,1.541,1.541,1.541,1.541,1.541,1.5235,1.5177,1.5138,1.451,1.4628,0.4663,0.4775,0.4897,0.5039,0.5076,0.5547,0.0,0.7854,0.8409,1.0078,1.0476,1.0553,1.0586,1.0593,1.0593,1.0593,1.0593,1.0593,1.0593,1.2216,1.3092,1.2262,1.3723,1.4506,1.3663,1.5427,1.6456,1.6015,1.6816,1.7471,1.7852,1.791,1.7939,1.7939,1.7988,1.8008,1.8008,1.8008,1.8008,1.8008,1.8008,1.8008,1.8008,1.8008,1.8008,1.8008,1.8008,1.8008,1.8008,1.8008,1.8008,1.8008,1.8008,1.7978,1.7949,1.7988,1.8008,1.8008,1.8008,1.8008,1.8008,1.8008,1.8008,1.8008,1.8008,1.8008,1.8008,1.8008,1.8008,1.8008,1.8008,1.8008,1.8008,1.8008,1.8008,1.8008,1.8008,1.8008,1.8008,1.8008,1.8008,1.8008,1.8008,1.8008,1.8008,1.8008,1.8008,1.7988,1.7949,1.7939,1.7773,1.7363,1.7266,1.6946,1.6163,1.6046,1.585,1.5439,1.541,1.541,1.541,1.541,1.541,1.541,1.541,1.541,1.541,1.4688,1.4323,1.4323,1.4243,1.4628,0.4901,0.4961,0.5168,0.5857,0.6028,0.6496,0.8334,0.8748,0.9102,1.0364,1.0593,1.0593,1.0593,1.0593,1.0593,0.0,1.0593,1.0593,1.0593,1.1873,1.2636,1.225,1.3672,1.4725,1.4848,1.622,1.7112,1.7139,1.7499,1.7822,1.7998,1.8008,1.8008,1.8008,1.8008,1.8008,1.8008,1.8008,1.8008,1.8008,1.8008,1.8008,1.8008,1.8008,1.8008,1.8008,1.8008,1.8008,1.8008,1.8008,1.8008,1.8008,1.8008,1.8008,1.8008,1.8008,1.8008,1.8008,1.8008,1.8008,1.8008,1.8008,1.8008,1.8008,1.8008,1.8008,1.8008,1.8008,1.8008,1.8008,1.8008,1.8008,1.8008,1.8008,1.8008,1.8008,1.8008,1.8008,1.8008,1.8008,1.8008,1.8008,1.8008,1.8008,1.8008,1.8008,1.8008,1.8008,1.8008,1.8008,1.7852,1.7432,1.7383,1.7129,1.6504,1.6455,1.6269,1.582,1.5821,1.5674,1.542,1.541,1.5167,1.4717,1.4688,1.4481,1.3995,1.3674,1.3726,1.4183,1.3952,1.4547,0.5061,0.5196,0.5442,0.6461,0.6687,0.7144,0.8909,0.9306,0.9466,1.011,1.0428,1.053,1.0301,1.0428,1.0593,1.0593,1.0593,1.062,1.07,1.1689,1.2331,1.213,1.3635,1.4974,1.565,1.66,1.7288,1.7594,1.7862,1.8008,1.8008,1.8008,1.8008,1.8008,1.8008,1.8008,1.8008,1.8008,1.8008,1.8008,1.8008,1.8008,1.8008,1.8008,1.8008,1.8008,1.8008,1.8008,1.8008,1.8008,1.8008,1.8008,1.8008,1.8008,1.8008,1.8008,1.8008,1.8008,1.8008,1.8008,1.8008,1.8008,1.8008,1.8008,1.8008,1.8008,1.8008,1.8008,1.8008,1.8008,1.8008,1.8008,1.8008,1.8008,1.8008,1.8008,1.8008,1.8008,1.8008,1.8008,1.8008,1.8008,1.8008,1.8008,1.8008,1.8008,1.8008,1.8008,1.8008,1.8008,1.79,1.7588,1.7559,1.7383,1.6921,1.6882,1.6719,1.6279,1.6281,1.6002,1.5413,1.5613,1.5243,1.414,1.4376,1.4101,1.3244,1.3025,1.3212,1.3802,1.376,1.4268,0.5111,0.5388,0.5617,0.649,0.6687,0.7144,0.8909,0.9306,0.9306,0.9338,1.0009,1.0333,0.9498,1.0047,1.0593,1.0593,1.0593,1.0687,1.0942,1.2092,1.2648,1.198,1.3833,1.5182,0.0,1.6053,1.6627,1.6636,1.7501,1.8008,1.8008,1.8008,1.8008,1.8008,1.8008,1.8008,1.8008,1.8008,1.8008,1.8008,1.8008,1.8008,1.8008,1.8008,1.8008,1.8008,1.8008,1.8008,1.8008,1.8008,1.8008,1.8008,1.8008,1.8008,1.8008,1.8008,1.8008,1.8008,1.8008,1.8008,1.8008,1.8008,1.8008,1.8008,1.8008,1.8008,1.8008,1.8008,1.8008,1.8008,1.8008,1.8008,1.8008,1.8008,1.8008,1.8008,1.8008,1.8008,1.8008,1.8008,1.8008,1.8008,1.8008,1.8008,1.8008,1.8008,1.8008,1.8008,1.8008,1.8008,1.8008,1.7988,1.7988,1.7822,1.7402,1.7363,1.7178,1.6707,1.6677,1.6268,1.5349,1.6195,1.5794,1.3958,1.48,1.48,1.3859,1.3078,1.2718,1.2785,1.3677,1.3611,0.5312,0.5395,0.5624,0.6494,0.6687,0.7013,0.8156,0.8452,0.8452,0.8452,0.8678,0.8769,0.8484,0.9134,0.9722,0.9722,1.0361,1.0914,1.0982,1.1717,1.2137,1.1928,1.2726,0.0,0.0,0.0,0.0,1.7467,1.7828,1.8135,1.8373,1.8393,1.8555,1.8848,1.8857,1.8526,1.7796,1.8526,1.8526,1.7796,1.8526,1.849,1.7833,1.8526,1.8857,1.8857,1.8857,1.8857,1.8857,1.8857,1.8857,1.8857,1.8857,1.8857,1.8857,1.8857,1.8857,1.8779,1.8203,1.8008,1.8008,1.8008,1.8008,1.8008,1.8008,1.8008,1.8008,1.8008,1.8008,1.8008,1.8008,1.8213,1.8393,1.8393,1.8643,1.8857,1.8857,1.8857,1.8857,1.8857,1.8857,1.8857,1.8857,1.8857,1.8634,1.7905,1.7907,1.8008,1.8008,1.8008,1.8008,1.8008,1.8008,1.7959,1.7812,1.7803,1.7617,1.7197,1.7168,1.6893,1.6243,1.5927,1.5233,1.4057,1.3726,1.3127,1.2226,1.1969,1.2139,1.2721,1.3298,1.3705,0.5296,0.5395,0.5624,0.6494,0.6687,0.6915,0.78,0.7994,0.7929,0.76,0.8027,0.8291,0.7665,0.8742,0.9658,0.9338,1.0276,1.1029,1.1136,1.1563,1.1946,1.2047,1.2191,1.3055,0.0,0.0,0.0,1.8129,1.8198,1.8383,1.8848,1.8867,1.8814,1.8709,1.8728,1.8184,1.7084,1.7757,1.7757,1.7122,1.8184,1.8387,1.7747,1.8792,1.9287,1.9287,1.9287,1.9287,1.9287,1.9287,1.9287,1.9287,1.9287,1.9287,1.9287,1.9287,1.9287,1.9209,1.8652,1.8359,1.8198,1.8198,1.8198,1.8198,1.8198,1.8052,1.7957,1.8362,1.7912,1.7471,1.8247,1.8379,1.8392,1.876,1.9082,1.9287,1.9287,1.8985,1.8839,1.9214,1.8985,1.8829,1.9251,1.8985,1.8341,1.7272,1.7216,1.7293,1.7293,1.72,1.7267,1.7625,1.7571,1.751,1.7501,1.7794,1.761,1.6683,1.6934,1.6678,1.567,1.5377,1.4698,1.3481,1.3186,1.2605,1.1702,1.1702,1.2018,1.2577,1.3166,1.353,0.516,0.5395,0.5591,0.6429,0.6621,0.685,0.767,0.7864,0.7637,0.6817,0.7962,0.8587,0.6948,0.0,1.0206,0.9364,1.0256,1.1109,1.1349,1.1697,1.2027,0.0,0.0,0.0,0.0,0.0,0.0,1.8515,0.0,1.8822,1.9297,1.928,1.8803,1.781,1.7726,1.7145,1.6018,1.6057,1.6057,1.6018,1.7258,1.7801,1.7726,1.8859,1.9355,1.9355,1.9355,1.9355,1.9355,1.9355,1.9355,1.9355,1.9355,1.9355,1.9355,1.9355,1.9355,1.9355,1.9309,1.9017,1.8637,1.8637,1.8637,1.8637,1.8637,1.8179,1.7896,1.8949,1.7674,1.6493,1.859,1.8397,1.7923,1.8941,1.918,1.9199,1.9199,1.8406,1.7988,1.9089,1.8517,1.8146,1.9126,1.8406,1.7296,1.6171,1.5942,1.5926,1.6,1.5781,1.5945,1.6846,1.6706,1.6578,1.6551,1.7367,1.7116,1.533,1.6044,1.5685,1.3854,1.4629,1.4271,1.2409,1.32,1.3208,1.2305,1.2305,1.2305,1.2335,1.32,1.3135,0.5326,0.5395,0.5458,0.5686,0.5719,0.5782,0.6013,0.6079,0.6013,0.5785,0.6079,0.6243,0.5818,0.7344,0.8576,0.835,1.0004,0.0,1.1382,1.187,0.0,1.2291,0.0,1.3937,1.5498,1.6378,0.0,0.0,1.9297,1.9307,1.9727,1.8986,1.8583,1.865,1.7825,1.6894,1.5807,1.6573,1.6573,1.5807,1.8563,1.901,1.746,1.9408,2.0282,2.0282,2.0282,2.0282,2.0282,2.0282,2.0282,2.0282,2.0282,2.0282,2.0282,2.0282,2.0282,2.0158,1.933,1.909,1.9121,1.9121,1.9121,1.9121,1.9121,1.845,1.7747,1.8045,1.7076,1.6114,1.6682,1.6894,1.7029,1.7299,1.7601,1.7816,1.7816,1.7579,1.7737,1.8855,1.9485,1.9687,1.9175,1.814,1.7013,1.5928,1.5097,1.4922,1.5873,1.5956,1.5975,1.6246,1.62,1.6142,1.6133,1.6192,1.5995,1.5523,1.5526,1.534,1.4843,1.435,1.3854,1.3346,1.2879,1.2556,1.2305,1.2305,1.2305,1.2305,1.2556,1.2519,0.5395,0.5395,0.5395,0.5395,0.5395,0.5395,0.5395,0.5395,0.5395,0.5395,0.5719,0.5848,0.5458,0.7153,0.8452,0.0,0.0,0.0,1.1389,1.1931,1.2305,0.0,1.3127,0.0,1.5658,1.6851,1.7962,0.0,1.9427,1.9559,1.9505,1.8935,1.8281,1.7568,1.6927,1.6075,1.5019,1.5587,1.5587,1.5019,1.7811,1.851,1.7374,1.959,2.0605,2.0566,0.0,2.0157,2.0566,2.0079,2.0167,2.0605,2.0605,2.0323,1.9883,1.9883,1.9599,1.9076,1.847,1.8346,1.8454,1.8779,1.918,1.9487,1.8985,1.823,1.7519,1.7519,1.637,1.5389,1.6323,1.6428,1.6373,1.6861,1.7145,1.7302,1.7302,1.6927,1.6805,1.7415,1.8421,1.8829,1.7738,1.7009,1.6239,1.5179,1.4496,1.4372,1.5082,1.5023,1.5122,1.5553,1.5451,1.5396,1.5396,1.5632,1.5407,1.46,1.469,1.4569,1.4167,1.3455,1.3098,1.3098,1.2556,1.2305,1.2305,1.2305,1.2305,1.2305,1.2305,1.2305,0.5395,0.5395,0.5395,0.5395,0.5395,0.5395,0.5395,0.5395,0.5395,0.5395,0.6009,0.6297,0.5524,0.7447,0.8877,0.8124,0.0,1.1389,1.1389,1.1931,1.2305,1.2305,1.3273,1.4473,1.5761,1.7271,1.8245,1.8368,1.9259,1.9496,1.882,1.8638,1.7617,1.5538,1.5504,1.5054,1.413,1.425,1.425,1.413,1.6281,1.7212,1.7172,1.9225,2.0157,2.0118,1.9195,0.0,2.0118,1.9323,1.9441,2.0167,2.0323,1.9717,1.8758,1.8758,1.8149,1.7302,1.7131,1.7172,1.7406,1.7996,1.879,1.9373,1.8434,1.7644,1.709,1.709,1.5636,1.4538,1.6404,1.6191,1.5703,1.665,1.6895,1.6895,1.6895,1.6273,1.5696,1.5696,1.656,1.6968,1.5861,1.5696,1.5338,1.425,1.4088,1.4088,1.4088,1.3861,1.4015,1.4848,1.4721,1.4545,1.4545,1.5227,1.4971,1.3346,1.3779,1.3708,1.2882,1.2556,1.2365,1.2365,1.2318,1.2305,1.2305,1.2305,1.2305,1.2305,1.2305,1.2305,0.5395,0.5395,0.5395,0.5395,0.5395,0.5395,0.5395,0.5395,0.5395,0.5395,0.5524,0.5587,0.5428,0.6957,0.8188,0.8027,0.9925,1.1389,1.1389,1.1931,1.2305,0.0,1.4153,1.5667,1.6246,1.8274,0.0,0.0,1.9055,1.8678,1.7658,1.6764,1.5703,1.4412,1.437,1.4292,1.4088,1.4977,1.4977,1.413,1.6281,1.6846,1.6026,1.7285,1.7859,1.7859,1.7658,0.0,1.7948,1.8669,1.855,1.798,1.8917,1.859,1.7577,1.7577,1.7464,1.718,1.6273,1.656,1.7326,1.7429,1.7605,1.7726,1.7525,1.6757,1.5985,1.5985,1.5054,1.4173,1.458,1.4538,1.4412,1.4615,1.4657,1.4657,1.4657,1.522,1.5696,1.5696,1.656,1.6968,1.5861,1.5696,1.5338,1.425,1.4088,1.4088,1.4088,1.4041,1.4092,1.4253,1.4205,1.4178,1.4178,1.4063,1.3878,1.3567,1.3446,1.3284,1.3133,1.2871,1.2703,1.2703,1.2425,1.2305,1.2305,1.2305,1.2305,1.2305,1.2305,1.2305,0.5395,0.5395,0.5395,0.5395,0.5395,0.5395,0.5395,0.5395,0.5395,0.5395,0.5395,0.5395,0.5395,0.6826,0.7994,0.7994,0.9925,1.1389,1.1389,1.1931,1.2482,1.2989,1.4676,1.6173,1.7078,1.8817,1.9382,1.8204,1.8109,1.7617,1.6519,1.5462,1.4608,1.413,1.4088,1.4088,1.4088,1.4608,1.4615,1.413,1.5711,1.6191,1.5737,1.6805,1.7302,1.7253,1.6723,0.0,1.7302,1.7293,1.7293,1.7334,1.7908,1.7455,1.6478,1.6478,1.6116,1.5553,1.5061,1.5186,1.5636,1.5636,1.6404,1.722,1.6642,1.6108,1.5579,1.5019,1.4489,1.4088,1.4088,1.4088,1.4088,1.4088,1.4088,1.4088,1.4088,1.4489,1.4859,1.4859,1.5262,1.547,1.4977,1.4859,1.4692,1.4166,1.4088,1.4088,1.4088,1.4088,1.4088,1.4088,1.4088,1.4088,1.4088,1.3955,1.3874,1.3874,1.3601,1.3393,1.3393,1.3146,1.3025,1.3025,1.2846,1.2772,1.2772,1.2772,1.2772,1.2772,1.2772,1.2772,0.5395,0.5395,0.5395,0.5395,0.5395,0.5395,0.5395,0.5395,0.5395,0.5395,0.5395,0.5395,0.5395,0.6826,0.7994,0.7994,0.9925,1.1389,1.1389,1.1931,1.2666,1.36,1.5032,0.0,1.7432,1.9052,0.0,1.7106,1.6731,1.6239,1.5421,1.4573,1.4088,1.4088,1.4088,1.4088,1.4088,1.4088,1.4088,1.413,1.4936,1.5379,1.5379,1.6239,1.6609,1.6568,1.5703,0.0,0.0,1.5951,1.6067,1.665,1.6887,1.6322,1.5379,1.5379,1.4817,1.4088,1.4088,1.4088,1.4088,1.4088,1.5228,1.6445,1.5621,1.5379,1.5179,1.4328,1.4088,1.4088,1.4088,1.4088,1.4088,1.4088,1.4088,1.4088,1.4088,1.4088,1.4088,1.4088,1.4088,1.4088,1.4088,1.4088,1.4088,1.4088,1.4088,1.4088,1.4088,1.4088,1.4088,1.4088,1.4088,1.4088,1.4088,1.4088,1.4088,1.4088,1.3868,1.37,1.37,1.346,1.3307,1.3307,1.324,1.3213,1.3213,1.3213,1.3213,1.3213,1.3213,1.3213,0.5395,0.5395,0.5395,0.5395,0.5395,0.5395,0.5395,0.5395,0.5395,0.5395,0.5395,0.5395,0.5395,0.6826,0.7994,0.7994,0.9925,1.1389,1.1389,1.1931,1.2666,1.36,0.0,0.0,1.638,1.8905,1.9219,1.606,1.4936,1.4334,1.425,1.4166,1.4088,1.4088,1.4088,1.4088,1.4088,1.4088,1.4088,1.4088,1.4208,1.425,1.425,1.4334,1.437,1.437,1.4292,0.0,0.0,1.5338,1.5179,1.4496,1.5462,1.5179,1.425,1.425,1.4166,1.4088,1.4088,1.4088,1.4088,1.4088,1.4208,1.4377,1.4292,1.425,1.4208,1.413,1.4088,1.4088,1.4088,1.4088,1.4088,1.4088,1.4088,1.4088,1.4088,1.4088,1.4088,1.4088,1.4088,1.4088,1.4088,1.4088,1.4088,1.4088,1.4088,1.4088,1.4088,1.4088,1.4088,1.4088,1.4088,1.4088,1.4088,1.4088,1.4088,1.4088,1.4062,1.4048,1.4048,1.372,1.356,1.356,1.3307,1.3213,1.3213,1.3213,1.3213,1.3213,1.3213,1.3213,0.5259,0.5395,0.5395,0.5395,0.5395,0.5395,0.5395,0.5395,0.5395,0.5395,0.5395,0.5395,0.5395,0.6404,0.7405,0.7929,0.9484,1.0798,1.132,1.1931,1.2666,1.36,1.4727,1.5626,0.0,0.0,1.7811,1.5861,1.4692,1.4088,1.4088,1.4088,1.4088,1.4088,1.4088,1.4088,1.4088,1.4088,1.4088,1.4088,1.4088,1.4088,1.4088,1.4088,1.4088,1.4088,1.4088,0.0,0.0,1.4573,1.4496,1.413,1.4573,1.4489,1.4088,1.4088,1.4088,1.4088,1.4088,1.4088,1.4088,1.4088,1.4088,1.4088,1.4088,1.4088,1.4088,1.4088,1.4088,1.4088,1.4088,1.4088,1.4088,1.4088,1.4088,1.4088,1.4088,1.4088,1.4088,1.4088,1.4088,1.4088,1.4088,1.4088,1.4088,1.4088,1.4088,1.4088,1.4088,1.4088,1.4088,1.4088,1.4088,1.4088,1.4088,1.4088,1.4088,1.4088,1.4088,1.4088,1.4088,1.3975,1.3908,1.3908,1.3801,1.3734,1.3734,1.3734,1.3734,1.3734,1.3734,1.3734,0.4821,0.5193,0.5395,0.5395,0.5395,0.5395,0.5395,0.5395,0.5395,0.5395,0.5395,0.5395,0.5395,0.6108,0.6981,0.7859,0.9181,1.0418,1.1286,1.1931,1.2666,1.36,0.0,1.5019,0.0,1.611,1.6157,1.5745,1.4692,1.4088,1.4088,1.4088,1.4088,1.4088,1.4088,1.4088,1.4088,1.4088,1.4088,1.4088,1.4088,1.4088,1.4088,1.4088,1.4088,1.4088,1.4088,0.0,0.0,1.4088,1.4088,1.4088,1.4088,1.4088,1.4088,1.4088,1.4088,1.4088,1.4088,1.4088,1.4088,1.4088,1.4088,1.4088,1.4088,1.4088,1.4088,1.4088,1.4088,1.4088,1.4088,1.4088,1.4088,1.4088,1.4088,1.4088,1.4088,1.4088,1.4088,1.4088,1.4088,1.4088,1.4088,1.4088,1.4088,1.4088,1.4088,1.4088,1.4088,1.4088,1.4088,1.4088,1.4088,1.4088,1.4088,1.4088,1.4088,1.4088,1.4088,1.4088,1.4088,1.4088,1.4088,1.4088,1.4088,1.4088,1.4088,1.4088,1.4088,1.4088,1.4088,1.4088,0.4015,0.4686,0.5395,0.5395,0.5395,0.5395,0.5395,0.5395,0.5395,0.5395,0.5395,0.5395,0.5395,0.6108,0.6981,0.7859,0.9181,1.0418,1.1286,1.1931,1.2666,0.0,1.4358,1.4756,1.4647,1.4336,1.4573,1.5621,1.4692,0.0,1.4088,1.4088,1.4088,1.4088,1.4088,1.4088,1.4088,1.4088,1.4088,1.4088,1.4088,1.4088,1.4088,1.4088,1.4088,1.4088,0.0,0.0,0.0,1.4088,1.4088,1.4088,1.4088,1.4088,1.4088,1.4088,1.4088,1.4088,1.4088,1.4088,1.4088,1.4088,1.4088,1.4088,1.4088,1.4088,1.4088,1.4088,1.4088,1.4088,1.4088,1.4088,1.4088,1.4088,1.4088,1.4088,1.4088,1.4088,1.4088,1.4088,1.4088,1.4088,1.4088,1.4088,1.4088,1.4088,1.4088,1.4088,1.4088,1.4088,1.4088,1.4088,1.4088,1.4088,1.4088,1.4088,1.4088,1.4088,1.4088,1.4088,1.4088,1.4088,1.4088,1.4088,1.4088,1.4088,1.4088,1.4088,1.4088,1.4088,1.4088,1.4088,0.2945,0.3747,0.4453,0.4453,0.4921,0.5395,0.5395,0.5395,0.5395,0.5395,0.5395,0.5395,0.5395,0.562,0.6305,0.7767,0.8669,0.9742,1.1183,0.0,0.0,1.3023,1.359,1.4054,0.0,0.0,1.425,1.4573,1.4286,1.4088,1.4088,1.4088,1.4088,1.4088,1.4088,1.4088,1.4088,1.4088,1.4088,1.4088,1.4088,1.4088,1.4088,1.4088,1.4088,0.0,0.0,0.0,0.0,1.4088,1.4088,1.4088,1.4088,1.4088,1.4088,1.4088,1.4088,1.4088,1.4088,1.4088,1.4088,1.4088,1.4088,1.4088,1.4088,1.4088,1.4088,1.4088,1.4088,1.4088,1.4088,1.4088,1.4088,1.4088,1.4088,1.4088,1.4088,1.4088,1.4088,1.4088,1.4088,1.4088,1.4088,1.4088,1.4088,1.4088,1.4088,1.4088,1.4088,1.4088,1.4088,1.4088,1.4088,1.4088,1.4088,1.4088,1.4088,1.4088,1.4088,1.4088,1.4088,1.4088,1.4088,1.4088,1.4088,1.4088,1.4088,1.4088,1.4088,1.4088,1.4088,1.4088,0.1909,0.2811,0.3513,0.3513,0.4184,0.4855,0.4855,0.516,0.5395,0.5395,0.5395,0.5395,0.5395,0.5395,0.5984,0.7702,0.8466,0.9423,1.1142,0.0,0.0,1.2911,0.0,0.0,0.0,1.4088,1.4088,1.4088,1.4088,1.4088,1.4088,1.4088,1.4088,1.4088,1.4088,1.4088,1.4088,1.4088,1.4088,1.4088,1.4088,1.4088,1.4088,1.4088,1.4328,0.0,0.0,0.0,0.0,1.425,1.4088,1.4088,1.4088,1.4088,1.4088,1.4088,1.4088,1.4088,1.4088,1.4088,1.4088,1.4088,1.4088,1.4088,1.4088,1.4088,1.4088,1.4088,1.4088,1.4088,1.4088,1.4088,1.4088,1.4088,1.4088,1.4088,1.4088,1.4088,1.4088,1.4088,1.4175,1.4215,1.4108,1.4175,1.4215,1.4108,1.4088,1.4088,1.4088,1.4088,1.4088,1.4088,1.4088,1.4088,1.4088,1.4088,1.4088,1.4088,1.4088,1.4088,1.4088,1.4088,1.4088,1.4088,1.4088,1.4088,1.4088,1.4088,1.4088,1.4088,1.4088,1.4088,0.0,0.1876,0.2611,0.2611,0.3311,0.4015,0.4015,0.4722,0.0,0.5395,0.5395,0.5395,0.5395,0.5395,0.5987,0.7754,0.8477,0.9429,0.0,1.1977,0.0,0.0,1.3447,0.0,1.4062,1.4088,1.4088,1.4088,1.4088,1.4088,1.4088,1.4088,1.4088,1.4088,1.4088,1.413,1.4208,1.4208,1.4208,1.4208,1.4208,1.4208,1.4208,1.4208,1.4817,0.0,0.0,0.0,0.0,1.4531,1.4088,1.4088,1.4088,1.4088,1.4088,1.4088,1.4088,1.4088,1.4088,1.4088,1.4088,1.4088,1.4088,1.4088,1.4088,1.4088,1.4088,1.4088,1.4088,1.4088,1.4088,1.4088,1.4088,1.4088,1.4088,1.4088,1.4088,1.4088,1.4088,1.4088,1.4302,1.4402,1.4135,1.4309,1.4396,1.4128,1.4088,1.4088,1.4088,1.4088,1.4088,1.4088,1.4088,1.4088,1.4088,1.4088,1.4088,1.4088,1.4088,1.4088,1.4088,1.4088,1.4088,1.4088,1.4088,1.4088,1.4088,1.4088,1.4088,1.4088,1.4088,1.4088,0.0236,0.0,0.1641,0.1641,0.2811,0.4015,0.0,0.4722,0.5395,0.5395,0.5395,0.5395,0.5395,0.5395,0.6021,0.7984,0.8574,0.9484,1.1512,0.0,0.0,1.3193,1.3667,1.4008,1.4082,1.4088,1.4088,1.4088,1.4088,1.4088,1.4088,1.4088,1.4088,1.4088,1.4088,1.4489,1.5338,1.5338,1.5338,1.5338,1.5338,1.5338,1.5338,1.5338,1.591,0.0,0.0,0.0,1.5621,1.4531,1.4088,1.4088,1.4088,1.4088,1.4088,1.4088,1.4088,1.4088,1.4088,1.4088,1.4088,1.4088,1.4088,1.4088,1.4088,1.4088,1.4088,1.4088,1.4088,1.4088,1.4088,1.4088,1.4088,1.4088,1.4088,1.4088,1.4088,1.4088,1.4088,1.4088,1.4142,1.4168,1.4095,1.4142,1.4168,1.4095,1.4088,1.4088,1.4088,1.4088,1.4088,1.4088,1.4088,1.4088,1.4088,1.4088,1.4088,1.4088,1.4088,1.4088,1.4088,1.4088,1.4088,1.4088,1.4088,1.4088,1.4088,1.4088,1.4088,1.4088,1.4088,1.4088,0.0,0.0337,0.0706,0.0706,0.2078,0.3413,0.3413,0.4453,0.5395,0.5395,0.5395,0.5395,0.5395,0.5719,0.6523,0.8154,0.8959,0.0,0.0,0.0,1.326,1.3353,1.3814,1.4088,0.0,1.4088,1.4088,1.4088,1.4088,1.4088,1.4088,1.4088,1.4088,1.4088,1.4573,1.5095,1.5696,1.5696,1.5696,1.5696,1.5696,1.5696,1.5696,1.5696,1.6273,0.0,0.0,0.0,1.5621,1.4531,1.4088,1.4088,1.4088,1.4088,1.4088,1.4088,1.4088,1.4088,1.4088,1.4088,1.4088,1.4088,1.4088,1.4088,1.4088,1.4088,1.4088,1.4088,1.4088,1.4088,1.4088,1.4088,1.4088,1.4088,1.4088,1.4088,1.4088,1.4088,1.4088,1.4088,1.4195,1.4242,1.4108,1.4202,1.4242,1.4108,1.4088,1.4088,1.4088,1.4088,1.4088,1.4088,1.4088,1.4088,1.4088,1.4088,1.4088,1.4088,1.4088,1.4088,1.4088,1.4088,1.4088,1.4088,1.4088,1.4088,1.4088,1.4088,1.4088,1.4088,1.4088,1.4088,0.0,0.0101,0.0202,0.0202,0.1442,0.2744,0.2878,0.4184,0.5395,0.5395,0.5395,0.5428,0.5591,0.6203,0.0,0.0,0.0,0.0,1.2594,1.3013,1.332,1.3567,1.3908,0.0,1.4088,1.4088,1.4088,1.4088,0.0,1.4088,1.4088,1.4088,1.4088,1.4088,1.4977,1.5621,1.5944,1.6108,1.6183,1.6183,1.6183,1.6183,1.6183,1.6183,1.6715,1.7496,0.0,0.0,1.5621,1.4531,1.4088,1.4088,1.4088,1.4088,1.4088,1.4088,1.4088,1.4088,1.4088,1.4088,1.4088,1.4088,1.4088,1.4088,1.4088,1.4088,1.4088,1.4088,1.4088,1.4088,1.4088,1.4088,1.4088,1.4088,1.4088,1.4088,1.4088,1.4088,1.4088,1.4088,1.4282,1.4376,1.4128,1.4295,1.4369,1.4122,1.4088,1.4088,1.4088,1.4088,1.4088,1.4088,1.4088,1.4088,1.4088,1.4088,1.4088,1.4088,1.4088,1.4088,1.4088,1.4088,1.4088,1.4088,1.4088,1.4088,1.4088,1.4088,1.4088,1.4088,1.4088,1.4088,0.0,0.0538,0.1106,0.1106,0.1909,0.2878,0.3647,0.4619,0.5395,0.5395,0.5395,0.562,0.6363,0.6621,0.7395,0.0,0.0,1.2157,0.0,0.0,1.332,1.3567,0.0,1.4088,1.4088,1.4088,1.4088,0.0,0.0,1.4088,1.4088,1.4088,1.4088,1.4088,1.425,1.5228,1.7058,1.802,1.851,1.851,1.851,1.851,1.851,1.851,1.859,1.8678,0.0,1.656,1.5621,1.4531,1.4088,1.4088,1.4088,1.4088,1.4088,1.4088,1.4088,1.4088,1.4088,1.4088,1.4088,1.4088,1.4088,1.4088,1.4088,1.4088,1.4088,1.4088,1.4088,1.4088,1.4088,1.4088,1.4088,1.4088,1.4088,1.4088,1.4088,1.4088,1.4088,1.4088,1.4122,1.4135,1.4095,1.4122,1.4135,1.4095,1.4088,1.4088,1.4088,1.4088,1.4088,1.4088,1.4088,1.4088,1.4088,1.4088,1.4088,1.4088,1.4088,1.4088,1.4088,1.4088,1.4088,1.4088,1.4088,1.4088,1.4088,1.4088,1.4088,1.4088,1.4088,1.4088,0.0,0.0303,0.084,0.1809,0.2744,0.3513,0.3915,0.4722,0.5395,0.5395,0.5395,0.0,0.0,0.0,0.8136,1.043,0.0,1.2465,1.2933,1.312,1.338,0.0,0.0,1.4088,1.4088,1.4088,1.4088,0.0,0.0,0.0,1.4088,1.4657,1.4692,1.413,1.5228,1.6288,1.7293,1.843,1.8997,1.8997,1.839,1.839,1.8997,1.8997,1.8678,1.8069,0.0,1.6363,1.4817,1.4292,1.4088,1.4088,1.4088,1.4088,1.4088,1.4088,1.4088,1.4088,1.4088,1.4088,1.4088,1.4088,1.4088,1.4088,1.4088,1.4088,1.4088,1.4088,1.4088,1.4088,1.4088,1.4088,1.4088,1.4088,1.4088,1.4088,1.4088,1.4088,1.4088,1.4088,1.4088,1.4088,1.4088,1.4088,1.4088,1.4088,1.4088,1.4088,1.4088,1.4088,1.4088,1.4088,1.4088,1.4088,1.4088,1.4088,1.4088,1.4088,1.4088,1.4088,1.4088,1.4088,1.3779,1.316,1.3118,1.3118,1.3118,1.3118,1.347,1.4088,1.4088,1.3822,0.0,0.0135,0.0706,0.231,0.3211,0.3816,0.4217,0.4888,0.5395,0.5395,0.0,0.0,0.0,0.7682,0.0,1.1203,1.1964,1.2518,1.3126,1.3213,1.3427,1.4015,1.4088,1.4088,1.4088,1.4088,0.0,0.0,0.0,0.0,1.4088,1.4894,1.4936,1.413,1.5959,1.705,1.7302,1.8189,1.8877,1.9362,1.851,1.855,1.9362,1.9116,1.839,1.7302,1.7009,1.5835,1.4088,1.4088,1.4088,1.4088,1.4088,1.4088,1.4088,1.4088,1.4088,1.4088,1.4088,1.4088,1.4088,1.4088,1.4088,1.4088,1.4088,1.4088,1.4088,1.4088,1.4088,1.4088,1.4088,1.4088,1.4088,1.4088,1.4088,1.4088,1.4088,1.3864,1.3779,1.4039,1.3864,1.3779,1.4039,1.4088,1.4088,1.4088,1.3864,1.3688,1.3688,1.3688,1.3688,1.3688,1.3913,1.4088,1.4088,1.4088,1.4088,1.4088,1.4088,1.4088,1.4088,1.4088,1.3688,1.2723,1.2456,1.2285,1.2285,1.2285,1.2766,1.3695,1.4021,1.3601,0.0,0.0605,0.1441,0.2444,0.2744,0.3245,0.4924,0.5359,0.5395,0.5395,0.0,0.0,0.0,0.8498,1.038,1.1678,1.2098,1.2518,1.3126,0.0,1.3427,1.4015,1.4088,1.4088,1.4088,0.0,0.0,0.0,0.0,0.0,1.4088,1.4166,1.4166,1.4088,1.522,1.6273,1.7293,1.7374,1.8461,2.0479,2.0401,2.0401,2.044,1.9441,1.839,1.7253,1.6232,1.5179,1.4088,1.4088,1.4088,1.4088,1.4088,1.4088,1.4088,1.4088,1.4088,1.4088,1.4088,1.4088,1.4088,1.4088,1.4088,1.4088,1.4088,1.4088,1.4088,1.4088,1.4088,1.4088,1.4088,1.4088,1.4088,1.4088,1.4088,1.4088,1.4088,1.3209,1.2766,1.3864,1.3203,1.2808,1.3906,1.4088,1.4088,1.4088,1.316,1.2413,1.2413,1.2413,1.2413,1.2413,1.3428,1.4088,1.4088,1.4088,1.4088,1.4088,1.4088,1.4088,1.4088,1.4088,1.4046,1.3955,1.2851,1.2285,1.2285,1.2285,1.2328,1.2462,1.3825,1.3779,0.0,0.0638,0.1541,0.2477,0.3111,0.3846,0.5123,0.5395,0.5395,0.5395,0.5395,0.0,0.0,0.0,1.1136,1.1788,1.2118,1.2518,1.3126,1.3213,1.3427,1.4015,1.4088,1.4088,0.0,0.0,0.0,0.0,0.0,0.0,1.4088,1.5352,1.5794,1.5137,1.6805,1.794,1.835,1.835,1.9116,2.0605,1.9923,1.9962,2.0605,2.0167,1.9402,1.835,1.794,1.6723,1.5095,1.5095,1.4692,1.4088,1.4088,1.4088,1.4088,1.4088,1.4088,1.4088,1.4088,1.4088,1.4088,1.4088,1.4088,1.4088,1.4088,1.4088,1.4088,1.4088,1.4088,1.4088,1.4088,1.4088,1.4088,1.4088,1.4088,1.4088,1.4088,1.316,1.2413,1.2899,1.2035,1.1386,1.1826,1.1912,1.1912,1.1912,1.1563,1.1252,1.1252,1.1852,1.2285,1.2285,1.3379,1.3779,1.3027,1.2984,1.2687,1.1955,1.33,1.3773,1.3027,1.2984,1.2297,1.088,1.0399,1.0183,1.0183,1.0907,1.1716,1.2612,1.308,1.2808,0.0404,0.1074,0.1975,0.2878,0.3547,0.4251,0.5193,0.5395,0.5395,0.5395,0.5696,0.6546,0.856,0.0,0.0,0.0,1.2171,1.2518,1.3126,1.3213,1.3427,1.4015,1.4088,1.4088,0.0,0.0,0.0,0.0,0.0,0.0,0.0,1.5677,1.6239,1.6191,1.7658,1.8638,1.8997,1.9362,1.9883,2.0605,1.9844,1.9883,2.0566,1.9874,1.9353,1.8957,1.79,1.6805,1.5655,1.5338,1.4776,1.4088,1.4088,1.4088,1.4088,1.4088,1.4088,1.4088,1.4088,1.4088,1.4088,1.4088,1.4088,1.4088,1.4088,1.4088,1.4088,1.4088,1.4088,1.4088,1.4088,1.4088,1.4088,1.4088,1.4088,1.3997,1.3603,1.2595,1.1766,1.1766,1.0826,1.0178,1.0524,1.0611,1.0611,1.0611,1.0308,1.0053,1.0053,1.074,1.1338,1.1724,1.251,1.2644,1.1809,1.1766,1.1423,1.0654,1.2126,1.2601,1.1809,1.2114,1.1386,0.9492,0.9065,0.889,0.889,0.9726,1.0875,1.2275,1.2254,1.2002,0.1273,0.1976,0.2911,0.3782,0.4015,0.4251,0.5193,0.5395,0.5395,0.5395,0.6318,0.7722,0.9742,1.039,0.0,1.2104,1.2305,1.2518,1.3126,1.3213,1.3427,1.4015,1.4088,0.0,0.0,0.0,0.0,0.0,0.0,0.0,0.0,1.4692,1.511,1.7212,1.7334,1.7868,1.8997,2.0079,2.0605,2.0605,2.0605,2.0605,2.0527,1.8341,1.7948,1.8838,1.5553,1.4734,1.5621,1.4531,1.4088,1.4088,1.4088,1.4088,1.4088,1.4088,1.4088,1.4088,1.4088,1.4088,1.4088,1.4088,1.4088,1.4088,1.4088,1.4088,1.4088,1.4088,1.4088,1.4088,1.4088,1.4088,1.4088,1.4088,1.4088,1.3779,1.2589,1.1423,1.0611,1.0611,0.9666,0.9235,1.0351,1.0567,1.0567,1.0567,0.9623,0.889,0.889,0.889,0.9323,1.0481,1.0611,1.0611,1.0567,1.0567,1.0567,1.0567,1.0567,1.0567,1.0567,1.1686,1.1724,1.0611,0.9449,0.889,0.889,0.9023,0.9782,1.1093,1.1348,1.1502,0.037,0.1509,0.2778,0.3011,0.0,0.0,0.0,0.5395,0.5591,0.0,0.7207,0.8429,0.984,1.0885,0.0,1.2215,1.2305,1.2518,1.3126,1.3213,1.3427,1.4015,1.4088,0.0,0.0,0.0,0.0,0.0,0.0,0.0,0.0,1.5711,1.665,1.7302,1.8829,1.9795,2.0118,2.044,2.0605,2.0605,2.0605,2.0605,2.0566,1.9913,1.9392,1.8957,1.798,1.6846,1.5621,1.4531,1.4088,1.4088,1.4088,1.4088,1.4088,1.4088,1.4088,1.4088,1.4088,1.4088,1.4088,1.4088,1.4088,1.4088,1.4088,1.4088,1.4088,1.4088,1.4088,1.4088,1.4088,1.4088,1.4088,1.4088,1.4088,1.3997,1.3646,1.1992,1.0611,1.0611,0.9008,0.7753,0.8097,0.8137,0.8137,0.8137,0.7837,0.7929,0.8803,0.889,0.9323,1.0481,1.0611,1.0269,0.9492,0.9405,0.9056,0.8185,0.8925,0.9405,0.9405,0.971,0.9357,0.8141,0.7793,0.7621,0.7621,0.8621,0.9401,0.9989,1.0068,1.0215,0.1075,0.2379,0.3782,0.3782,0.4586,0.5395,0.5395,0.0,0.0,0.0,0.8299,0.9422,1.0592,1.1517,0.0,1.2271,1.2305,1.2472,1.2959,1.3133,1.3387,1.3854,1.4015,0.0,0.0,0.0,0.0,0.0,0.0,0.0,0.0,1.6198,1.7253,1.8581,1.9471,2.0167,2.0605,2.0605,2.0605,2.0605,2.0605,2.0605,2.0605,2.0157,1.9844,1.9599,1.8709,1.709,1.5012,1.437,1.4088,1.4088,1.4088,1.4088,1.4088,1.4088,1.4088,1.4088,1.4088,1.4088,1.4088,1.4088,1.4088,1.4088,1.4088,1.4088,1.4088,1.4088,1.4088,1.4088,1.4088,1.4088,1.4088,1.4088,1.4088,1.3828,1.2912,1.1606,1.0308,0.9396,0.8053,0.7095,0.7095,0.7095,0.7095,0.7095,0.7095,0.736,0.8105,0.8189,0.8448,0.9139,0.9226,0.8921,0.8233,0.8189,0.7885,0.7139,0.7797,0.8189,0.8189,0.8627,0.8321,0.7139,0.7095,0.7125,0.7234,0.8102,0.8906,0.9592,0.912,0.9311,0.2577,0.3882,0.5259,0.5259,0.5326,0.5395,0.5395,0.6152,0.7155,0.8178,0.0,1.0463,1.1669,1.2104,1.2305,1.2305,1.2305,1.2405,1.2744,1.3025,1.3273,1.3527,1.3841,0.0,0.0,0.0,0.0,0.0,0.0,0.0,0.0,1.6298,1.7277,2.0362,1.9599,1.9599,2.0605,2.0605,2.0605,2.0605,2.0605,2.0605,2.0566,1.9599,1.9599,2.0323,1.823,1.6124,1.425,1.425,1.4173,1.4088,1.4088,1.4088,1.4088,1.4088,1.4088,1.4088,1.4088,1.4088,1.4088,1.4088,1.4088,1.4088,1.4088,1.4088,1.4088,1.4088,1.4088,1.4088,1.4088,1.4088,1.4088,1.4088,1.4088,1.3476,1.1257,1.0654,0.9961,0.7705,0.7183,0.7095,0.7095,0.7095,0.7095,0.7095,0.7095,0.7095,0.7095,0.7095,0.7095,0.7095,0.7095,0.7095,0.7095,0.7095,0.7095,0.7095,0.7095,0.7095,0.7095,0.8149,0.8233,0.7139,0.7109,0.7231,0.7415,0.7539,0.8295,0.9575,0.8501,0.8676,0.1608,0.2911,0.4317,0.4317,0.4855,0.5395,0.5395,0.6776,0.8096,0.8342,0.9297,1.0463,1.1669,1.2104,1.2305,1.2305,1.2305,1.2405,1.2744,1.2844,1.2998,1.3267,1.336,0.0,0.0,0.0,0.0,0.0,0.0,0.0,1.5644,1.6491,1.7698,1.9274,1.9923,2.0362,2.0605,2.0605,2.0605,0.0,2.0605,2.0605,2.0605,2.0362,1.9923,1.9274,1.7908,1.656,1.5379,1.5379,1.4852,1.4088,1.4088,1.4088,1.4088,1.4088,1.4088,1.4088,1.4088,1.4088,1.4088,1.4088,1.4088,1.4088,1.4088,1.4088,1.4088,1.4088,1.4088,1.4088,1.4088,1.4088,1.4088,1.4088,1.4088,1.3688,1.2242,1.1209,1.0183,0.8798,0.7753,0.7095,0.7095,0.7095,0.7095,0.7095,0.7095,0.7095,0.7095,0.7095,0.7095,0.7095,0.7095,0.7095,0.7095,0.7095,0.7095,0.7095,0.7095,0.7095,0.7095,0.7356,0.736,0.7095,0.7258,0.7336,0.7415,0.7638,0.7925,0.8245,0.8065,0.8137,0.1842,0.2978,0.4115,0.4553,0.0,0.5524,0.5914,0.727,0.8557,0.9111,1.0141,1.1195,1.1945,1.2204,1.2305,1.2305,1.2305,1.2358,1.2549,1.2697,1.2844,1.3005,1.312,0.0,0.0,0.0,0.0,0.0,0.0,1.4095,1.567,1.6385,1.7519,1.9097,1.9677,2.0049,2.0254,2.0254,2.04,2.0605,2.0605,2.0605,2.0605,2.0605,1.9717,1.8189,1.8149,1.7212,1.5696,1.5696,1.5379,1.4817,1.4292,1.4088,1.4088,1.4088,1.4088,1.4088,1.4088,1.4088,1.4088,1.4088,1.4088,1.4088,1.4088,1.4088,1.4088,1.4088,1.4088,1.4088,1.4088,1.4088,1.4088,1.4088,1.4088,1.3603,1.1858,1.1042,1.0091,0.836,0.7533,0.7095,0.7095,0.7095,0.7095,0.7095,0.7204,0.7251,0.7251,0.7316,0.736,0.736,0.7295,0.7251,0.7251,0.7139,0.7095,0.7095,0.7095,0.7095,0.7095,0.7095,0.7095,0.7095,0.7292,0.7453,0.7482,0.7702,0.7848,0.7874,0.7951,0.7988,0.2242,0.3211,0.4215,0.516,0.5395,0.0,0.6301,0.7526,0.8738,0.9667,1.0949,1.1993,1.2245,1.2305,1.2305,1.2305,1.2305,1.2305,1.2305,1.2549,1.2703,1.2703,1.2899,0.0,0.0,0.0,0.0,0.0,0.0,1.3998,1.6024,1.6187,1.7142,1.9251,1.9287,1.9453,1.9805,1.9805,2.0019,2.0488,2.0566,2.0605,2.0605,2.0605,1.959,1.79,1.8868,1.8141,1.6273,1.6067,1.5861,1.5579,1.4531,1.4088,1.4088,1.4088,1.4088,1.4088,1.4088,1.4088,1.4088,1.4088,1.4088,1.4088,1.4088,1.4088,1.4088,1.4088,1.4088,1.4088,1.4088,1.4088,1.4088,1.4088,1.4088,1.3476,1.1128,1.0611,0.9918,0.7573,0.7095,0.7095,0.7095,0.7119,0.7136,0.7136,0.7312,0.7456,0.7456,0.7519,0.76,0.76,0.7485,0.7446,0.7419,0.7255,0.7125,0.7098,0.7095,0.7095,0.7095,0.7095,0.7109,0.7136,0.7333,0.7485,0.7638,0.778,0.7916,0.7988,0.7988,0.7988,0.1441,0.2711,0.4215,0.516,0.5395,0.5428,0.0,0.0,0.8788,0.0,1.0514,1.1993,1.2245,1.2305,1.2305,1.2305,1.2305,1.2305,1.2305,1.2338,1.2365,1.2365,1.2398,0.0,0.0,0.0,0.0,0.0,1.2703,1.3739,1.5766,1.6055,1.7142,1.9251,1.9287,1.9316,1.9375,1.9375,1.959,2.0,2.0419,2.0605,2.0605,2.0605,2.044,2.0157,2.0323,1.9678,1.847,1.7496,1.656,1.5579,1.4531,1.4088,1.4088,1.4088,1.4088,1.4088,1.4088,1.4088,1.4088,1.4088,1.4088,1.4088,1.4088,1.4088,1.4088,1.4088,1.4088,1.4088,1.4088,1.4088,1.4088,1.4088,1.4088,1.3476,1.1128,1.0611,0.9918,0.7573,0.7095,0.7095,0.7095,0.7251,0.7343,0.7343,0.7472,0.757,0.757,0.7587,0.76,0.76,0.7584,0.7516,0.7429,0.7398,0.7282,0.7105,0.7095,0.7095,0.7095,0.7095,0.7204,0.7336,0.7492,0.7641,0.7784,0.7887,0.7971,0.7988,0.7988,0.7988,0.1809,0.3011,0.4215,0.516,0.5395,0.5524,0.6009,0.7082,0.8263,0.9324,1.045,1.1474,1.2161,1.2305,1.2305,1.2305,1.2305,1.2305,1.2305,1.2305,1.2305,1.2305,1.2305,0.0,0.0,0.0,0.0,0.0,1.2425,1.3364,1.5358,1.5579,1.6551,1.8504,1.8574,1.8691,1.8926,1.8926,1.9141,1.957,2.0,2.0195,2.0215,2.0488,2.0284,1.9717,2.0323,2.0001,1.8917,1.7787,1.7009,1.6437,1.4741,1.4088,1.4088,1.4088,1.4088,1.4088,1.4088,1.4088,1.4088,1.4088,1.4088,1.4088,1.4088,1.4088,1.4088,1.4088,1.4088,1.4088,1.4088,1.4088,1.4088,1.4088,1.3597,1.2638,1.0956,1.0611,0.9918,0.7573,0.7095,0.7095,0.7095,0.7268,0.7415,0.7415,0.757,0.7719,0.7719,0.7794,0.7845,0.7845,0.777,0.7692,0.7624,0.7465,0.7343,0.7275,0.7142,0.7095,0.7095,0.7224,0.7343,0.7495,0.7563,0.7672,0.7811,0.7914,0.7988,0.7988,0.7988,0.7988,0.191,0.2978,0.3882,0.4821,0.5226,0.5557,0.0,0.0,0.7715,0.0,1.027,1.1089,1.21,1.2305,1.2305,1.2305,1.2305,1.2305,1.2305,1.2305,1.2305,1.2305,1.2305,0.0,0.0,0.0,0.0,0.0,1.2305,1.3055,1.4736,1.5057,1.5948,1.7579,1.7862,1.812,1.8442,1.8549,1.8763,1.9131,1.9551,1.9756,1.9775,2.0205,2.0004,1.9293,2.0197,2.0167,1.9323,1.7859,1.7302,1.7098,1.4943,1.4088,1.4088,1.4088,1.4088,1.4088,1.4088,1.4088,1.4088,1.4088,1.4088,1.4088,1.4088,1.4088,1.4088,1.4088,1.4088,1.4088,1.4088,1.4088,1.4088,1.4088,1.316,1.1901,1.0481,0.9918,0.9179,0.7445,0.7095,0.7109,0.7146,0.7326,0.7441,0.7478,0.7702,0.7868,0.7868,0.7921,0.7988,0.7988,0.7887,0.7851,0.7814,0.7607,0.7468,0.7431,0.7322,0.7213,0.7213,0.737,0.7499,0.7651,0.7651,0.7726,0.7868,0.7934,0.7988,0.7988,0.7988,0.7988,0.1106,0.2043,0.2978,0.3849,0.4755,0.5428,0.0,0.0,0.7452,0.8608,0.9811,1.0955,1.2104,1.2305,1.2305,1.2305,1.2305,1.2305,1.2305,1.2305,1.2305,1.2305,1.2305,0.0,0.0,0.0,0.0,0.0,1.2305,1.2732,1.3745,1.4665,1.5658,1.6636,1.7545,1.8018,1.8047,1.8403,1.8617,1.8637,1.9111,1.9316,1.9336,1.9756,1.9913,1.9895,2.0381,2.0566,2.0362,1.8181,1.7302,1.7098,1.4943,1.4088,1.4088,1.4088,1.4088,1.4088,1.4088,1.4088,1.4088,1.4088,1.4088,1.4088,1.4088,1.4088,1.4088,1.4088,1.4088,1.4088,1.4088,1.4088,1.4088,1.4088,1.316,1.1681,0.9449,0.8101,0.7228,0.7139,0.7095,0.7142,0.7333,0.7489,0.7634,0.777,0.7877,0.7978,0.7978,0.7985,0.7988,0.7988,0.7982,0.7921,0.7824,0.7797,0.7729,0.7597,0.758,0.7573,0.7573,0.7584,0.7655,0.7797,0.7801,0.7875,0.7978,0.7985,0.7988,0.7988,0.7988,0.7988,0.1074,0.1541,0.2143,0.3647,0.4251,0.4652,0.5259,0.5782,0.6589,0.822,0.9124,1.0117,1.1745,1.2178,1.2305,1.2305,1.2305,1.2305,1.2305,1.2305,1.2305,1.2305,1.2305,1.2305,0.0,0.0,0.0,0.0,0.0,1.2696,1.3637,1.4027,1.47,1.5685,1.6611,1.7389,1.7974,1.812,1.8198,1.8208,1.8662,1.8867,1.8887,1.9316,1.9512,1.9541,1.9961,2.0303,2.044,1.8221,1.7302,1.7098,1.4943,1.4088,1.4088,1.4088,1.4088,1.4088,1.4088,1.4088,1.4088,1.4088,1.4088,1.4088,1.4088,1.4088,1.4088,1.4088,1.4088,1.4088,1.4088,1.4088,1.3737,1.2217,1.0961,0.9662,0.8101,0.7401,0.7095,0.7095,0.7095,0.7146,0.7346,0.7499,0.7648,0.779,0.7891,0.7988,0.7988,0.7988,0.7988,0.7988,0.7988,0.7968,0.7914,0.7868,0.779,0.774,0.7651,0.76,0.76,0.7689,0.776,0.7811,0.7909,0.7934,0.7988,0.7988,0.7988,0.7988,0.7988,0.7988,0.0706,0.0,0.0,0.2778,0.3547,0.4151,0.4788,0.5235,0.5999,0.7638,0.8458,0.9289,1.0621,1.1291,1.1812,1.2248,1.2305,1.2305,1.2305,1.2305,1.2305,1.2305,1.2305,1.2305,0.0,0.0,0.0,0.0,0.0,0.0,1.3208,1.3528,1.4307,1.5614,1.628,1.7035,1.7974,1.8008,1.8008,1.8018,1.8256,1.8393,1.8403,1.8867,1.9072,1.9092,1.9521,1.9951,2.0198,1.8129,1.7536,1.7626,1.511,1.4328,1.4573,1.425,1.4088,1.4088,1.4088,1.4088,1.4088,1.4088,1.4088,1.4088,1.4088,1.4088,1.4088,1.4088,1.4088,1.4088,1.4088,1.3779,1.2905,1.0572,0.9449,0.8584,0.736,0.7095,0.7095,0.7095,0.7095,0.7162,0.7414,0.7533,0.7665,0.7858,0.7924,0.7988,0.7988,0.7988,0.7988,0.7988,0.7988,0.7988,0.7988,0.7897,0.7889,0.7889,0.7797,0.7746,0.7746,0.7838,0.7889,0.7889,0.7938,0.7988,0.7988,0.7988,0.7988,0.7988,0.7988,0.7988,0.0,0.0,0.0,0.1307,0.2644,0.3982,0.3982,0.4722,0.5733,0.6869,0.7749,0.8458,0.8737,0.9647,1.0767,1.2018,1.2218,1.2268,1.2305,1.2305,1.2305,1.2305,1.2305,1.2305,0.0,0.0,0.0,0.0,1.2305,1.2305,1.2305,1.3164,1.4557,1.6454,1.6532,1.7001,1.794,1.7974,1.8008,1.8008,1.8008,1.8008,1.8018,1.8393,1.8588,1.8607,1.9082,1.9502,1.9676,1.8008,1.7971,1.8661,1.5428,1.4776,1.5579,1.4489,1.4088,1.4088,1.4088,1.4088,1.4088,1.4088,1.4088,1.4088,1.4088,1.4088,1.4088,1.4088,1.4088,1.4088,1.4088,1.316,1.1681,0.9492,0.889,0.854,0.7356,0.7095,0.7095,0.7095,0.7098,0.7196,0.7546,0.7604,0.7706,0.7944,0.7988,0.7988,0.7988,0.7988,0.7988,0.7988,0.7988,0.7988,0.7988,0.7988,0.7988,0.7988,0.7988,0.7988,0.7988,0.7988,0.7988,0.7988,0.7988,0.7988,0.7988,0.7988,0.7988,0.7988,0.7988,0.7988,0.0,0.0,0.0,0.0,0.0,0.0,0.3849,0.4722,0.5667,0.6626,0.7147,0.7671,0.8371,0.8906,0.9422,0.9891,1.0672,1.1465,1.2187,1.2305,1.2305,1.2305,1.2305,1.2305,1.2305,0.0,0.0,0.0,1.2305,1.2305,1.2305,1.2556,1.3237,1.445,1.519,1.6044,1.7001,1.7647,1.8008,1.8008,1.8008,1.8008,1.8018,1.8135,1.8184,1.8178,1.8598,1.8474,1.7935,1.8006,1.8213,1.8278,1.6098,1.5455,1.5579,1.4489,1.4088,1.4088,1.4088,1.4088,1.4088,1.4088,1.4088,1.4088,1.4088,1.4088,1.4088,1.4088,1.4088,1.4088,1.4088,1.2601,1.0913,1.0265,0.8838,0.7489,0.7183,0.7095,0.7095,0.7095,0.7231,0.737,0.7567,0.7685,0.7818,0.7961,0.7988,0.7988,0.7988,0.7988,0.7988,0.7988,0.7988,0.7988,0.7988,0.7988,0.7988,0.7988,0.7988,0.7988,0.7988,0.7988,0.7988,0.7988,0.7988,0.7988,0.7988,0.7988,0.7988,0.7988,0.7988,0.7988,0.0,0.0,0.0,0.0638,0.0,0.0,0.3345,0.4453,0.5557,0.6042,0.6581,0.6991,0.7125,0.7616,0.8071,0.824,0.8861,0.9873,1.1434,1.1657,1.1848,1.2261,1.2305,1.2305,0.0,1.2305,1.2305,1.2305,1.2305,1.2305,1.2305,1.2305,1.2739,1.3673,1.4665,1.5649,1.6593,1.7535,1.8008,1.8008,1.8008,1.8008,1.8008,1.8008,1.8008,1.8018,1.8237,1.8056,1.7567,1.7761,1.7692,1.7325,1.5529,1.51,1.5435,1.4448,1.4088,1.4088,1.4088,1.4088,1.4088,1.4088,1.4088,1.4088,1.4088,1.4088,1.4088,1.4088,1.4088,1.387,1.2912,1.1649,1.0351,0.9353,0.8097,0.7095,0.7095,0.7095,0.7095,0.7095,0.7265,0.7421,0.7573,0.7719,0.7865,0.7968,0.7988,0.7988,0.7988,0.7988,0.7988,0.7988,0.7988,0.7988,0.7988,0.7988,0.7988,0.7988,0.7988,0.7988,0.7988,0.7988,0.7988,0.7988,0.7988,0.7988,0.7988,0.7988,0.7988,0.7988,0.7988,0.7988,0.0,0.0,0.0,0.0,0.1276,0.0,0.2678,0.4015,0.5259,0.5395,0.6009,0.6334,0.5557,0.6135,0.678,0.6911,0.7046,0.791,1.0256,1.0687,1.1119,1.1987,1.2204,1.2305,1.2305,1.2305,1.2305,1.2305,1.2305,1.2305,1.2305,1.2305,1.2666,1.3528,1.4522,1.5473,1.6428,1.7251,1.7725,1.7828,1.7828,1.7794,1.7691,1.7896,1.794,1.7828,1.7828,1.7794,1.7642,1.7044,1.6668,1.6317,1.4485,1.4393,1.5215,1.4386,1.4088,1.4088,1.4088,1.4088,1.4088,1.4088,1.4088,1.4088,1.4088,1.4088,1.4088,1.4088,1.3997,1.3428,1.1348,1.0611,0.9874,0.7793,0.7183,0.7095,0.7095,0.7095,0.7095,0.7095,0.7278,0.7441,0.7577,0.7733,0.7882,0.7968,0.7988,0.7988,0.7988,0.7988,0.7988,0.7988,0.7988,0.7988,0.7988,0.7988,0.7988,0.7988,0.7988,0.7988,0.7988,0.7988,0.7988,0.7988,0.7988,0.7988,0.7988,0.7988,0.7988,0.7988,0.7988,0.7988,0.0,0.0,0.0,0.0,0.0,0.0,0.2544,0.3513,0.4486,0.5259,0.5524,0.5591,0.5428,0.5549,0.5746,0.5875,0.5922,0.6693,0.8887,1.0026,1.0713,1.0894,1.175,1.2305,1.2305,1.2305,1.2305,1.2305,1.2305,1.2305,1.2305,1.2305,1.2372,1.2556,1.3491,1.445,1.5446,1.5658,1.6123,1.6888,1.6888,1.6463,1.5799,1.7295,1.7579,1.6888,1.6888,1.6428,1.5666,1.4745,1.5449,1.6923,1.5529,1.5097,1.5215,1.4386,1.4088,1.4088,1.4088,1.4088,1.4088,1.4088,1.4088,1.4088,1.4088,1.4088,1.4088,1.4088,1.3385,1.2547,1.2072,1.0611,0.9104,0.8671,0.7797,0.7095,0.7095,0.7095,0.7095,0.7095,0.7363,0.7563,0.7594,0.7821,0.7955,0.7985,0.7988,0.7988,0.7988,0.7988,0.7988,0.7988,0.7988,0.7988,0.7988,0.7988,0.7988,0.7988,0.7988,0.7988,0.7988,0.7988,0.7988,0.7988,0.7988,0.7988,0.7988,0.7988,0.7988,0.7988,0.7988,0.7988,0.0,0.0,0.0,0.0,0.0,0.0,0.0,0.3045,0.4148,0.4619,0.509,0.5395,0.5395,0.5395,0.5419,0.5498,0.5511,0.5868,0.6958,0.8159,0.9291,1.0225,1.0842,1.1358,1.1793,1.1864,1.1864,1.1864,1.2004,1.2084,1.2084,1.2225,1.2305,1.2305,1.32,1.3954,1.445,1.495,1.5446,1.5895,1.5895,1.5649,1.5234,1.6158,1.6332,1.5895,1.5895,1.5614,1.5128,1.4099,1.438,1.5348,1.4415,1.4137,1.4203,1.396,1.3961,1.4088,1.4088,1.4088,1.4088,1.4088,1.4088,1.4088,1.4088,1.3688,1.3203,1.3203,1.2382,1.1338,1.074,0.9753,0.8759,0.8149,0.7533,0.7095,0.7095,0.7095,0.7119,0.7241,0.7441,0.76,0.76,0.7845,0.7988,0.7988,0.7988,0.7988,0.7988,0.7988,0.7988,0.7988,0.7988,0.7988,0.7988,0.7988,0.7988,0.7988,0.7988,0.7988,0.7988,0.7988,0.7988,0.7988,0.7988,0.7988,0.7988,0.7988,0.7988,0.7988,0.7988,0.7988,0.0,0.0,0.0,0.0,0.0,0.1106,0.0,0.0,0.0,0.3915,0.4586,0.5193,0.5362,0.0,0.0,0.0,0.0,0.0,0.0,0.6279,0.0,0.953,0.9967,1.0447,1.132,1.1389,1.1389,1.1389,1.165,1.1784,1.1784,1.2058,1.2218,1.2218,1.3026,1.3528,1.3709,1.4343,1.4736,1.4914,1.4914,1.4807,1.4657,1.5021,1.5092,1.4914,1.4914,1.4914,1.4843,1.3846,1.3419,1.3382,1.2965,1.2938,1.3166,1.3473,1.3753,1.4008,1.4068,1.4088,1.4088,1.4088,1.4088,1.4046,1.3822,1.3075,1.2237,1.2023,1.1166,1.0053,0.9148,0.8715,0.8321,0.7316,0.7095,0.7095,0.7095,0.7095,0.7142,0.7343,0.7495,0.7607,0.7634,0.7862,0.7988,0.7988,0.7988,0.7988,0.7988,0.7988,0.7988,0.7988,0.7988,0.7988,0.7988,0.7988,0.7988,0.7988,0.7988,0.7988,0.7988,0.7988,0.7988,0.7988,0.7988,0.7988,0.7988,0.7988,0.7988,0.7988,0.7988,0.7988,0.0,0.0,0.0,0.0,0.0067,0.0,0.0,0.0,0.2075,0.368,0.0,0.4417,0.5259,0.0,0.0,0.0,0.0,0.0,0.5395,0.5522,0.6358,0.8368,0.9473,1.0447,1.132,1.1389,1.1389,1.1389,1.1456,1.1442,1.1442,1.1757,1.1953,1.1953,1.2274,1.2842,1.3709,1.2989,1.3055,1.3882,1.3882,1.3419,1.2696,1.4414,1.47,1.3882,1.3882,1.3882,1.381,1.2842,1.2445,1.2479,1.2708,1.2804,1.2904,1.3393,1.3626,1.3693,1.3995,1.4088,1.4088,1.4088,1.4088,1.3906,1.2808,1.2413,1.2109,1.108,0.9966,0.9061,0.8934,0.8105,0.7272,0.7139,0.7095,0.7095,0.7095,0.7095,0.7142,0.7343,0.7495,0.7641,0.7767,0.7877,0.7988,0.7988,0.7988,0.7988,0.7988,0.7988,0.7988,0.7988,0.7988,0.7988,0.7988,0.7988,0.7988,0.7988,0.7988,0.7988,0.7988,0.7988,0.7988,0.7988,0.7988,0.7988,0.7988,0.7988,0.7988,0.7988,0.7988,0.7988,0.0,0.0,0.0,0.0,0.0,0.0,0.0471,0.0,0.1675,0.0,0.0,0.0,0.0,0.0,0.0,0.0,0.5395,0.0,0.0,0.0,0.5907,0.0,0.0,0.0,1.0784,0.0,0.0,1.0922,1.1082,1.1176,1.1176,1.1456,1.169,1.1899,1.2027,1.2349,1.2879,1.2482,1.2482,1.2879,1.2879,1.2666,1.2342,1.3164,1.331,1.2879,1.2879,1.2879,1.2842,1.2445,1.2305,1.2311,1.2438,1.263,1.2837,1.3233,1.346,1.3646,1.3981,1.4088,1.4088,1.4088,1.3646,1.2942,1.2456,1.1381,1.0226,0.9749,0.8755,0.7841,0.7841,0.7492,0.7095,0.7095,0.7095,0.7095,0.7095,0.7095,0.7169,0.7458,0.7556,0.7675,0.7902,0.7948,0.7988,0.7988,0.7988,0.7988,0.7988,0.7988,0.7988,0.7988,0.7988,0.7988,0.7988,0.7988,0.7988,0.7988,0.7988,0.7988,0.7988,0.7988,0.7988,0.7988,0.7988,0.7988,0.7988,0.7988,0.7988,0.7988,0.7988,0.7988,0.0067,0.0,0.0,0.0,0.0,0.0,0.0,0.0,0.0,0.0,0.0,0.0,0.0,0.0,0.0,0.0,0.0,0.5395,0.0,0.5395,0.0,0.0,0.0,0.0,0.0,0.0,1.0593,1.0593,1.0787,1.0875,1.0875,1.1149,1.1403,1.1658,1.1819,1.2007,1.2184,1.2265,1.2305,1.2305,1.2305,1.2305,1.2305,1.2305,1.2305,1.2305,1.2305,1.2305,1.2305,1.2305,1.2305,1.2305,1.2305,1.2438,1.2697,1.2973,1.3267,1.3527,1.3861,1.4021,1.4039,1.3688,1.3027,1.2194,1.1552,1.0221,0.8846,0.8496,0.7797,0.7095,0.7095,0.7095,0.7095,0.7095,0.7095,0.7095,0.7095,0.7095,0.7186,0.7539,0.76,0.7692,0.7938,0.7988,0.7988,0.7988,0.7988,0.7988,0.7988,0.7988,0.7988,0.7988,0.7988,0.7988,0.7988,0.7988,0.7988,0.7988,0.7988,0.7988,0.7988,0.7988,0.7988,0.7988,0.7988,0.7988,0.7988,0.7988,0.7988,0.7988,0.7988,0.7988,0.0,0.0,0.0,0.0202,0.0,0.0,0.0,0.0,0.0303,0.0,0.0,0.0,0.0,0.0,0.0,0.0,0.0,0.0,0.0,0.0,0.5719,0.0,0.0,0.0,0.0,1.011,1.0593,1.0593,1.06,1.0606,1.0606,1.0881,1.1009,1.1022,1.1611,1.1906,1.1919,1.2164,1.2305,1.2305,1.2305,1.2305,1.2305,1.2305,1.2305,1.2305,1.2305,1.2305,1.2305,1.2305,1.2305,1.2305,1.2305,1.2311,1.2351,1.269,1.2998,1.3267,1.3513,1.3848,1.3906,1.2723,1.2328,1.1895,0.9666,0.8978,0.8671,0.7489,0.7139,0.7095,0.7095,0.7095,0.7095,0.7095,0.7095,0.7095,0.7095,0.7095,0.7186,0.7539,0.76,0.7692,0.7938,0.7988,0.7988,0.7988,0.7988,0.7988,0.7988,0.7988,0.7988,0.7988,0.7988,0.7988,0.7988,0.7988,0.7988,0.7988,0.7988,0.7988,0.7988,0.7988,0.7988,0.7988,0.7988,0.7988,0.7988,0.7988,0.7988,0.7988,0.7988,0.7988,0.0,0.0,0.2009,0.1074,0.0,0.0,0.0,0.0,0.0,0.0,0.0,0.0,0.0,0.0,0.0,0.0,0.0,0.0,0.0,0.0,0.5524,0.5818,0.6854,0.0,0.0,0.0,0.0,1.0523,1.0079,0.9983,1.0561,1.0687,1.0827,1.0982,1.1369,1.167,1.1899,1.2158,1.2305,1.2305,1.2305,1.2305,1.2305,1.2305,1.2305,1.2305,1.2305,1.2305,1.2305,1.2305,1.2305,1.2305,1.2305,1.2305,1.2338,1.2677,1.2985,1.328,1.3768,1.4001,1.3906,1.2674,1.1809,1.0907,0.9362,0.8321,0.7621,0.7228,0.7095,0.7095,0.7095,0.7095,0.7095,0.7095,0.7095,0.7095,0.7095,0.7095,0.7186,0.7539,0.76,0.7692,0.7938,0.7988,0.7988,0.7988,0.7988,0.7988,0.7988,0.7988,0.7988,0.7988,0.7988,0.7988,0.7988,0.7988,0.7988,0.7988,0.7988,0.7988,0.7988,0.7988,0.7988,0.7988,0.7988,0.7988,0.7988,0.7988,0.7988,0.7988,0.7988,0.7988,0.1808,0.2477,0.0,0.2043,0.1808,0.0,0.0672,0.0,0.0,0.0,0.0,0.0,0.0,0.0,0.0,0.0,0.0,0.0,0.0,0.5395,0.5395,0.5395,0.617,0.7144,0.0,0.842,0.8807,0.9614,0.9716,0.9881,0.0,0.0,1.068,1.0835,1.1223,1.1482,1.171,1.2104,1.2305,1.2305,1.2305,1.2305,1.2305,1.2305,1.2305,1.2305,1.2305,1.2305,1.2305,1.2305,1.2305,1.2305,1.2305,1.2305,1.2325,1.2556,1.2852,1.328,1.3761,1.4001,1.3822,1.2206,1.1209,1.0308,0.8755,0.7709,0.7095,0.7095,0.7095,0.7095,0.7095,0.7095,0.7095,0.7095,0.7095,0.7095,0.7095,0.7139,0.7299,0.755,0.7641,0.7753,0.7948,0.7988,0.7988,0.7988,0.7988,0.7988,0.7988,0.7988,0.7988,0.7988,0.7988,0.7988,0.7988,0.7988,0.7988,0.7988,0.7988,0.7988,0.7988,0.7988,0.7965,0.7911,0.7961,0.7965,0.7911,0.7965,0.7988,0.7988,0.7988,0.7988]},{"header":{"parameterUnit":"m.s-1","parameterCategory":1,"la1":30.6,"la2":29.2853,"lo1":-89.7004,"lo2":-87.6739,"dy":0.0162,"dx":0.0183,"nx":112,"ny":82,"refTime":"2023-11-02T00:00:00:Z","depth":0,"parameterNumber":3,"parameterNumberName":"V-component_of_WINDS"},"data":[0.0,0.0,0.0,0.0,0.0,0.0,0.0,0.0,0.0,0.0,0.0,0.0,0.0,0.0,0.0,0.0,0.0,0.0,0.0,0.0,0.0,0.0,0.0,0.0,0.0,0.0,0.0,0.0,0.0,0.0,0.0,0.0,0.0,0.0,0.0,0.0,0.0,0.0,0.0,0.0,0.0,0.0,0.0,0.0,0.0,0.0,0.0,0.0,0.0,0.0,0.0,0.0,0.0,0.0,0.0,0.0,0.0,0.0,0.0,0.0,0.0,0.0,0.0,0.0,0.0,0.0,0.0,0.0,0.0,0.0,0.0,0.0,0.0,0.0,0.0,0.0,0.0,0.0,0.0,0.0,0.0,0.0,0.0,0.0,0.0,0.0,0.0,0.0,0.0,0.0,2.2296,2.2296,2.2296,2.2296,2.2296,2.2296,2.2296,2.2296,0.0,0.0,0.0,0.0,0.0,0.0,0.0,0.0,0.0,0.0,0.0,0.0,0.0,0.0,0.0,0.0,0.0,0.0,0.0,0.0,0.0,0.0,0.0,0.0,0.0,0.0,0.0,0.0,0.0,0.0,0.0,0.0,0.0,0.0,0.0,0.0,0.0,0.0,0.0,0.0,0.0,0.0,0.0,0.0,0.0,0.0,0.0,0.0,0.0,0.0,0.0,0.0,0.0,0.0,0.0,0.0,0.0,0.0,0.0,0.0,0.0,0.0,0.0,0.0,0.0,0.0,0.0,0.0,0.0,0.0,0.0,0.0,0.0,0.0,0.0,0.0,0.0,0.0,0.0,0.0,0.0,0.0,0.0,0.0,0.0,0.0,0.0,0.0,0.0,0.0,0.0,0.0,0.0,0.0,0.0,0.0,0.0,0.0,0.0,0.0,0.0,0.0,0.0,0.0,2.2296,2.2296,2.2296,2.2296,2.2296,2.2296,2.2296,2.2296,0.0,0.0,0.0,0.0,0.0,0.0,0.0,0.0,0.0,0.0,0.0,0.0,0.0,0.0,0.0,0.0,0.0,0.0,0.0,0.0,0.0,0.0,0.0,0.0,0.0,0.0,0.0,0.0,0.0,0.0,0.0,0.0,0.0,0.0,0.0,0.0,0.0,0.0,0.0,0.0,0.0,0.0,0.0,0.0,0.0,0.0,0.0,0.0,0.0,0.0,0.0,0.0,0.0,0.0,0.0,0.0,0.0,0.0,0.0,0.0,0.0,0.0,0.0,0.0,0.0,0.0,0.0,0.0,0.0,0.0,0.0,0.0,0.0,0.0,0.0,0.0,0.0,0.0,0.0,0.0,0.0,0.0,0.0,0.0,0.0,0.0,0.0,0.0,0.0,0.0,0.0,0.0,0.0,0.0,0.0,0.0,0.0,0.0,0.0,0.0,0.0,0.0,0.0,2.2296,2.2296,2.2296,2.2296,2.2296,2.2296,2.2296,2.2296,2.2296,2.2296,0.0,0.0,0.0,0.0,0.0,0.0,0.0,0.0,0.0,0.0,0.0,0.0,0.0,0.0,0.0,0.0,0.0,0.0,0.0,0.0,0.0,0.0,0.0,0.0,0.0,0.0,0.0,0.0,0.0,0.0,0.0,0.0,0.0,0.0,0.0,0.0,0.0,0.0,0.0,0.0,0.0,0.0,0.0,0.0,0.0,0.0,0.0,0.0,0.0,0.0,0.0,0.0,0.0,0.0,0.0,0.0,0.0,0.0,0.0,0.0,0.0,0.0,0.0,0.0,0.0,0.0,0.0,0.0,0.0,0.0,0.0,0.0,0.0,0.0,0.0,0.0,0.0,0.0,0.0,0.0,0.0,0.0,0.0,0.0,0.0,0.0,0.0,0.0,0.0,0.0,0.0,0.0,0.0,0.0,0.0,0.0,0.0,0.0,0.0,0.0,0.0,0.0,2.2296,2.2296,2.2296,2.2296,2.2296,2.2296,2.2296,2.2296,2.2296,2.2296,0.0,0.0,0.0,0.0,0.0,0.0,0.0,0.0,0.0,0.0,0.0,0.0,0.0,0.0,0.0,0.0,0.0,0.0,0.0,0.0,0.0,0.0,0.0,0.0,0.0,0.0,0.0,0.0,0.0,0.0,0.0,0.0,0.0,0.0,0.0,0.0,0.0,0.0,0.0,0.0,0.0,0.0,0.0,0.0,0.0,0.0,0.0,0.0,0.0,0.0,0.0,0.0,0.0,0.0,0.0,0.0,0.0,0.0,0.0,0.0,0.0,0.0,0.0,0.0,0.0,0.0,0.0,0.0,0.0,0.0,0.0,0.0,0.0,0.0,0.0,0.0,0.0,0.0,0.0,0.0,0.0,0.0,0.0,0.0,0.0,0.0,0.0,0.0,0.0,0.0,0.0,0.0,0.0,0.0,0.0,0.0,0.0,0.0,0.0,0.0,0.0,0.0,2.2296,2.2296,2.2296,2.2296,2.2296,2.2296,2.2296,2.2296,2.2296,2.2296,0.0,0.0,0.0,0.0,0.0,0.0,0.0,0.0,0.0,0.0,0.0,0.0,0.0,0.0,0.0,0.0,0.0,0.0,0.0,0.0,0.0,0.0,0.0,0.0,0.0,0.0,0.0,0.0,0.0,0.0,0.0,0.0,0.0,0.0,0.0,0.0,0.0,0.0,0.0,0.0,0.0,0.0,0.0,0.0,0.0,0.0,0.0,0.0,0.0,0.0,0.0,0.0,0.0,0.0,0.0,0.0,0.0,0.0,0.0,0.0,0.0,0.0,0.0,0.0,0.0,0.0,0.0,0.0,0.0,0.0,0.0,0.0,0.0,0.0,0.0,0.0,0.0,0.0,0.0,0.0,0.0,0.0,0.0,0.0,0.0,0.0,0.0,0.0,0.0,0.0,0.0,0.0,0.0,0.0,0.0,0.0,0.0,0.0,0.0,0.0,0.0,0.0,2.2296,2.2296,0.0,2.2296,2.2296,2.2296,2.2296,2.2296,2.2296,0.0,0.0,0.0,0.0,0.0,0.0,0.0,0.0,0.0,0.0,0.0,0.0,0.0,0.0,0.0,0.0,0.0,0.0,0.0,0.0,0.0,0.0,0.0,0.0,0.0,0.0,0.0,0.0,0.0,0.0,0.0,0.0,0.0,0.0,0.0,0.0,0.0,0.0,0.0,0.0,0.0,0.0,0.0,0.0,0.0,0.0,0.0,0.0,0.0,0.0,0.0,0.0,0.0,0.0,0.0,0.0,0.0,0.0,0.0,0.0,0.0,0.0,0.0,0.0,0.0,0.0,0.0,0.0,0.0,0.0,0.0,0.0,0.0,0.0,0.0,0.0,0.0,0.0,0.0,0.0,0.0,0.0,0.0,0.0,0.0,0.0,0.0,0.0,0.0,0.0,0.0,0.0,0.0,0.0,0.0,0.0,0.0,0.0,0.0,0.0,0.0,0.0,2.2296,2.2296,2.2296,0.0,2.2296,2.2296,2.2296,2.2296,2.2296,2.2296,0.0,0.0,0.0,0.0,0.0,0.0,0.0,0.0,0.0,0.0,0.0,0.0,0.0,0.0,0.0,0.0,0.0,0.0,0.0,0.0,0.0,0.0,0.0,0.0,0.0,0.0,0.0,0.0,0.0,0.0,0.0,0.0,0.0,0.0,0.0,0.0,0.0,0.0,0.0,0.0,0.0,0.0,0.0,0.0,0.0,0.0,0.0,0.0,0.0,0.0,0.0,0.0,0.0,0.0,0.0,0.0,0.0,0.0,0.0,0.0,0.0,0.0,0.0,0.0,0.0,0.0,0.0,0.0,0.0,0.0,0.0,0.0,0.0,0.0,0.0,0.0,0.0,0.0,0.0,0.0,0.0,0.0,0.0,0.0,0.0,0.0,0.0,0.0,0.0,0.0,0.0,0.0,0.0,0.0,0.0,0.0,0.0,0.0,0.0,0.0,0.0,0.0,2.2296,2.2296,2.2296,2.2296,2.2296,2.2296,2.2296,2.2296,2.2296,0.0,0.0,0.0,0.0,0.0,0.0,0.0,0.0,0.0,0.0,0.0,0.0,0.0,0.0,0.0,0.0,0.0,0.0,0.0,0.0,0.0,0.0,0.0,0.0,0.0,0.0,0.0,0.0,0.0,0.0,0.0,0.0,0.0,0.0,0.0,0.0,0.0,0.0,0.0,0.0,0.0,0.0,0.0,0.0,0.0,0.0,0.0,0.0,0.0,0.0,0.0,0.0,0.0,0.0,0.0,0.0,0.0,0.0,0.0,0.0,0.0,0.0,0.0,0.0,0.0,0.0,0.0,0.0,0.0,0.0,0.0,0.0,0.0,0.0,0.0,0.0,0.0,0.0,0.0,0.0,0.0,0.0,0.0,0.0,0.0,0.0,0.0,0.0,0.0,0.0,0.0,0.0,0.0,0.0,0.0,0.0,0.0,0.0,0.0,0.0,0.0,0.0,0.0,2.2296,2.2296,2.2296,2.2296,2.2296,2.2296,2.2296,2.2296,2.2296,2.2296,0.0,0.0,0.0,0.0,0.0,0.0,0.0,0.0,0.0,0.0,0.0,0.0,0.0,0.0,0.0,0.0,0.0,0.0,0.0,0.0,0.0,0.0,0.0,0.0,0.0,0.0,0.0,0.0,0.0,0.0,0.0,0.0,0.0,0.0,0.0,0.0,0.0,0.0,0.0,0.0,0.0,0.0,0.0,0.0,0.0,0.0,0.0,0.0,0.0,0.0,0.0,0.0,0.0,0.0,0.0,0.0,0.0,0.0,0.0,0.0,0.0,0.0,0.0,0.0,0.0,0.0,0.0,0.0,0.0,0.0,0.0,0.0,0.0,0.0,0.0,0.0,0.0,0.0,0.0,0.0,0.0,0.0,0.0,0.0,0.0,0.0,0.0,0.0,0.0,0.0,0.0,0.0,0.0,0.0,0.0,0.0,0.0,0.0,0.0,0.0,0.0,0.0,2.3173,2.3173,2.3173,2.3173,2.3173,2.3054,2.2767,2.275,2.2615,2.2313,0.0,0.0,0.0,0.0,0.0,0.0,0.0,0.0,0.0,0.0,0.0,0.0,0.0,0.0,0.0,0.0,0.0,0.0,0.0,0.0,0.0,0.0,0.0,0.0,0.0,0.0,0.0,0.0,0.0,0.0,0.0,0.0,0.0,0.0,0.0,0.0,0.0,0.0,0.0,0.0,0.0,0.0,0.0,0.0,0.0,0.0,0.0,0.0,0.0,0.0,0.0,0.0,0.0,0.0,0.0,0.0,0.0,0.0,0.0,0.0,0.0,0.0,0.0,0.0,0.0,0.0,0.0,0.0,0.0,0.0,0.0,0.0,0.0,0.0,0.0,0.0,0.0,0.0,0.0,0.0,0.0,0.0,0.0,0.0,0.0,0.0,0.0,0.0,0.0,0.0,0.0,0.0,0.0,0.0,0.0,0.0,0.0,0.0,0.0,0.0,0.0,0.0,2.4491,2.4491,2.4491,2.4491,2.4491,2.422,2.3562,2.3494,2.3224,2.2547,0.0,0.0,0.0,0.0,0.0,0.0,0.0,0.0,0.0,0.0,0.0,0.0,0.0,0.0,0.0,0.0,0.0,0.0,0.0,0.0,0.0,0.0,0.0,0.0,0.0,0.0,0.0,0.0,0.0,0.0,0.0,0.0,0.0,0.0,0.0,0.0,0.0,0.0,0.0,0.0,0.0,0.0,0.0,0.0,0.0,0.0,0.0,0.0,0.0,0.0,0.0,0.0,0.0,0.0,0.0,0.0,0.0,0.0,0.0,0.0,2.273,0.0,0.0,0.0,0.0,0.0,0.0,0.0,0.0,0.0,0.0,0.0,0.0,0.0,0.0,0.0,0.0,0.0,0.0,0.0,0.0,0.0,0.0,0.0,0.0,0.0,0.0,0.0,0.0,0.0,0.0,0.0,0.0,0.0,0.0,0.0,0.0,0.0,0.0,0.0,0.0,0.0,2.4491,2.4491,2.4491,2.4491,2.4491,2.444,2.4271,2.4271,2.4203,2.4051,2.3477,0.0,0.0,0.0,0.0,0.0,0.0,0.0,0.0,0.0,0.0,0.0,0.0,0.0,0.0,0.0,0.0,0.0,0.0,0.0,0.0,0.0,0.0,0.0,0.0,0.0,0.0,0.0,0.0,0.0,0.0,0.0,0.0,0.0,0.0,0.0,0.0,0.0,0.0,0.0,0.0,0.0,0.0,0.0,0.0,0.0,0.0,0.0,0.0,0.0,0.0,0.0,0.0,0.0,0.0,0.0,0.0,0.0,0.0,0.0,0.0,2.25,0.0,0.0,0.0,0.0,0.0,0.0,0.0,0.0,0.0,0.0,0.0,0.0,0.0,0.0,0.0,0.0,0.0,0.0,0.0,0.0,0.0,0.0,0.0,0.0,0.0,0.0,0.0,0.0,0.0,0.0,0.0,0.0,0.0,0.0,0.0,0.0,0.0,0.0,0.0,0.0,2.5557,2.5557,2.5557,2.5557,2.5557,2.5422,2.5066,2.5033,2.488,2.4508,2.4135,0.0,0.0,0.0,0.0,0.0,0.0,0.0,0.0,0.0,0.0,0.0,0.0,0.0,0.0,0.0,0.0,0.0,0.0,0.0,0.0,0.0,0.0,0.0,0.0,0.0,0.0,0.0,0.0,0.0,0.0,0.0,0.0,0.0,0.0,0.0,0.0,0.0,0.0,0.0,0.0,0.0,0.0,0.0,0.0,0.0,0.0,0.0,0.0,0.0,0.0,0.0,0.0,0.0,2.3172,2.3363,2.4008,2.3726,2.3932,2.4423,2.3207,2.2801,2.2992,2.2776,0.0,0.0,0.0,0.0,0.0,0.0,0.0,0.0,0.0,0.0,0.0,0.0,0.0,0.0,0.0,0.0,0.0,0.0,0.0,0.0,0.0,0.0,0.0,0.0,2.488,2.488,0.0,0.0,0.0,0.0,0.0,0.0,0.0,0.0,0.0,0.0,0.0,0.0,2.6691,2.6691,2.6691,2.6691,2.6691,2.6454,2.5845,2.5795,2.5524,2.4914,2.4762,2.4694,0.0,0.0,0.0,0.0,0.0,0.0,0.0,0.0,0.0,0.0,0.0,0.0,0.0,0.0,0.0,0.0,0.0,0.0,0.0,0.0,0.0,0.0,0.0,0.0,0.0,0.0,0.0,0.0,0.0,0.0,0.0,0.0,2.4398,2.3903,0.0,0.0,0.0,0.0,0.0,0.0,0.0,0.0,0.0,0.0,0.0,0.0,0.0,2.3549,2.4148,2.392,2.4122,2.4764,2.4423,2.4313,2.4414,2.4386,2.4406,2.4491,2.4288,0.0,2.4262,2.4218,0.0,0.0,0.0,0.0,0.0,0.0,0.0,0.0,0.0,0.0,0.0,0.0,0.0,0.0,0.0,0.0,0.0,0.0,0.0,0.0,0.0,0.0,2.5625,2.6251,2.6404,2.6404,0.0,2.5405,2.4694,2.5338,2.5456,0.0,0.0,0.0,0.0,0.0,0.0,0.0,2.6691,2.6691,2.6691,2.6691,2.6691,2.6657,2.6556,2.6539,2.6505,2.642,2.5812,2.5456,2.5456,2.4762,0.0,0.0,0.0,0.0,0.0,0.0,0.0,0.0,0.0,0.0,0.0,0.0,0.0,0.0,0.0,0.0,0.0,0.0,0.0,0.0,0.0,0.0,0.0,0.0,0.0,0.0,0.0,0.0,0.0,2.4501,2.4238,2.4016,2.4191,2.421,0.0,0.0,0.0,0.0,0.0,0.0,0.0,0.0,0.0,2.361,2.3999,2.4276,2.4416,2.4293,2.4391,2.4716,2.4567,2.4728,2.5118,2.5118,2.5338,2.5743,2.5743,2.5743,2.5675,2.4829,2.4491,2.4491,0.0,0.0,0.0,0.0,2.4491,2.4558,2.4966,2.5118,0.0,2.5118,0.0,0.0,0.0,0.0,0.0,0.0,0.0,0.0,0.0,0.0,2.6302,2.6623,2.6691,2.6691,2.6691,2.62,2.5828,0.0,2.6218,2.6319,2.664,0.0,0.0,0.0,0.0,2.6691,2.6691,2.6691,2.6691,2.6691,2.6691,2.6691,2.6691,2.6691,2.6691,2.6691,2.6387,2.6218,2.6218,2.5507,2.4966,0.0,0.0,0.0,0.0,0.0,0.0,0.0,0.0,0.0,0.0,0.0,0.0,0.0,0.0,0.0,0.0,0.0,0.0,0.0,0.0,0.0,0.0,0.0,0.0,0.0,0.0,0.0,0.0,2.433,2.417,2.4084,2.4074,2.3937,0.0,0.0,0.0,0.0,0.0,0.0,2.3656,2.4103,2.4263,2.4066,2.4586,2.4831,2.4778,2.4778,2.488,2.5066,2.5066,2.5338,2.5879,2.5879,2.6184,2.6691,2.6691,2.6691,2.6607,2.5523,2.5066,2.5066,2.5066,2.5066,2.5066,2.5066,2.5066,2.5134,2.5693,2.5879,2.5879,2.5879,0.0,2.5879,2.5879,0.0,0.0,0.0,0.0,2.6691,2.6691,2.6691,2.6691,2.6691,2.6691,2.6691,2.6691,2.6691,2.6691,0.0,2.6691,2.6691,2.6691,0.0,0.0,0.0,0.0,2.6691,2.6691,2.6691,2.6691,2.6691,2.6691,2.6691,2.6691,2.6691,2.6691,2.6691,2.6691,2.6691,2.6691,2.6167,2.5778,2.5592,0.0,0.0,0.0,0.0,0.0,0.0,0.0,0.0,0.0,0.0,0.0,0.0,0.0,0.0,0.0,0.0,0.0,0.0,0.0,0.0,0.0,0.0,0.0,0.0,0.0,0.0,0.0,0.0,0.0,2.3756,2.3742,0.0,0.0,0.0,0.0,2.4242,2.4658,2.4912,2.4912,2.4631,2.4469,2.4471,2.4504,2.4845,2.5541,2.5541,2.5896,2.6589,2.6589,2.6607,2.664,2.664,2.6657,2.6691,2.6691,2.6691,2.6691,2.6607,2.6589,2.6589,2.6589,2.6589,2.6589,2.6589,2.6589,2.659,2.6623,2.664,2.664,2.664,2.664,2.664,2.664,2.6657,0.0,0.0,2.6691,2.6691,2.6691,2.6691,2.6691,2.6691,2.6691,2.6691,2.6691,2.6691,2.6691,0.0,2.6691,2.6691,2.6691,0.0,2.6691,2.6691,2.6691,2.6691,2.6691,2.6691,2.6691,2.6691,2.6691,2.6691,2.6691,2.6691,2.6691,2.6691,2.6691,2.6691,2.6691,2.6657,2.6319,2.5609,2.5559,0.0,0.0,0.0,0.0,0.0,0.0,0.0,0.0,0.0,0.0,0.0,0.0,0.0,0.0,0.0,0.0,0.0,0.0,0.0,0.0,0.0,0.0,0.0,0.0,0.0,0.0,0.0,0.0,2.4363,2.4217,0.0,2.4653,2.4725,2.4766,2.4807,2.4735,2.4671,2.4671,2.501,2.5203,2.5203,2.5675,2.6031,2.6302,2.6302,2.6437,2.6691,2.6691,2.6691,2.6691,2.6691,2.6691,2.6691,2.6691,2.6691,2.6691,2.6691,2.6691,2.6691,2.6691,2.6691,2.6691,2.6691,2.6691,2.6691,2.6691,2.6691,2.6691,2.6691,2.6691,2.6691,2.6691,2.6691,2.6691,2.6691,2.6691,2.6691,2.6691,2.6691,2.6691,2.6691,2.6691,2.6691,2.6691,2.6691,2.6691,2.6691,2.6691,2.6691,2.6691,2.6691,2.6691,2.6691,2.6691,2.6691,2.6691,2.6691,2.6691,2.6691,2.6691,2.6691,2.6691,2.6691,2.6691,2.6691,2.6691,2.6691,2.6691,2.6691,2.6573,2.6302,2.6302,2.5947,0.0,0.0,0.0,0.0,0.0,0.0,0.0,0.0,0.0,0.0,0.0,0.0,0.0,0.0,0.0,0.0,0.0,0.0,0.0,0.0,0.0,0.0,0.0,0.0,0.0,0.0,2.4407,2.5298,2.4986,2.4903,2.5454,2.5436,2.5374,2.5286,2.5239,2.5235,2.5235,2.571,2.5981,2.5981,2.6437,2.6691,2.6691,2.6691,2.6691,2.6691,2.6691,2.6691,2.6691,2.6691,2.6691,2.6691,2.6691,2.6691,2.6691,2.6691,2.6691,2.6691,2.6691,2.6691,2.6691,2.6691,2.6691,2.6691,2.6691,2.6691,2.6691,2.6691,2.6691,2.6691,2.6691,2.6691,2.6691,2.6691,2.6691,2.6691,2.6691,2.6691,2.6691,2.6691,2.6691,2.6691,2.6691,2.6691,2.6691,2.6691,2.6691,2.6691,2.6691,2.6691,2.6691,2.6691,2.6691,2.6691,2.6691,2.6691,2.6691,2.6691,2.6691,2.6691,2.6691,2.6691,2.6691,2.6691,2.6691,2.6691,2.6691,2.6691,2.6691,2.6691,2.6691,2.6336,2.5592,0.0,0.0,0.0,0.0,0.0,0.0,0.0,0.0,0.0,0.0,0.0,0.0,0.0,0.0,0.0,0.0,0.0,0.0,0.0,0.0,0.0,0.0,0.0,2.554,2.5092,2.5283,2.6486,2.5979,2.5561,2.5578,2.5974,2.6079,2.5691,2.6302,2.6691,2.6691,2.6691,2.6691,2.6691,2.6691,2.6691,2.6691,2.6691,2.6691,2.6691,2.6691,2.6691,2.6691,2.6691,2.6691,2.6691,2.6691,2.6691,2.6691,2.6691,2.6691,2.6691,2.6691,2.6691,2.6691,2.6691,2.6691,2.6691,2.6691,2.6691,2.6691,2.6691,2.6691,2.6691,2.6691,2.6691,2.6691,2.6691,2.6691,2.6725,2.6725,2.6725,2.6742,2.6759,2.6759,2.6759,2.6759,2.6759,2.6759,2.6759,2.6759,2.6776,2.6725,2.6691,2.6691,2.6691,2.6691,0.0,2.6691,2.6691,2.6691,2.6691,2.6691,2.6691,2.6691,2.6691,2.6691,2.6691,2.6691,2.6691,2.6691,2.6691,2.6691,2.6691,2.6691,2.6353,2.5626,0.0,0.0,0.0,0.0,0.0,0.0,0.0,0.0,0.0,0.0,0.0,0.0,0.0,0.0,0.0,0.0,0.0,0.0,0.0,0.0,0.0,0.0,2.6521,2.63,2.5961,2.6055,2.6922,2.6668,2.6654,2.7189,2.7093,2.6945,2.6837,2.6738,2.6691,2.6691,2.6691,2.6691,2.6691,2.6691,2.6691,2.6691,2.6691,2.6691,2.6691,2.6691,2.6691,2.6691,2.6691,2.6691,2.6691,2.6691,2.6691,2.6691,2.6691,2.6691,2.6691,2.6691,2.6691,2.6691,2.6691,2.6691,2.6691,2.6691,2.6691,2.6691,2.6691,2.6691,2.6691,2.6691,2.6691,2.6691,2.6691,2.6691,2.6826,2.735,2.7503,2.7638,2.8231,2.8367,2.8367,2.8367,2.8367,2.8367,2.8367,2.8367,2.8011,2.6877,2.6691,2.6691,2.6691,2.6691,0.0,2.6691,2.6691,2.6691,2.6691,2.6691,2.6691,2.6691,2.6691,2.6691,2.6691,2.6691,2.6691,2.6691,2.6691,2.6691,2.6691,2.6691,2.659,0.0,0.0,0.0,0.0,0.0,0.0,0.0,0.0,0.0,0.0,0.0,0.0,0.0,0.0,0.0,0.0,0.0,0.0,0.0,0.0,0.0,0.0,2.7402,2.7611,2.7611,2.7009,2.691,2.7846,2.7548,2.7433,2.7862,2.7547,2.7241,2.7051,2.6824,2.6691,2.6691,2.6996,2.7165,2.7165,2.7486,2.7673,2.7673,2.7673,2.7673,2.7673,2.7673,2.7673,2.7673,2.7673,2.7673,2.7673,2.7673,2.7673,2.7673,2.7673,2.7673,0.0,0.0,0.0,0.0,0.0,2.7673,2.7673,2.7673,2.7673,2.7673,2.7673,2.7673,2.7673,2.7673,2.7673,2.7673,2.7673,2.7673,2.7757,2.8197,2.8298,2.8416,2.8891,2.8993,2.8993,2.8993,2.8993,2.8993,2.8993,2.8993,0.0,2.7825,2.7673,2.7673,2.7673,2.7673,2.7554,2.7199,2.7165,2.7046,2.6725,2.6691,2.6691,2.6691,2.6691,0.0,0.0,0.0,2.6691,2.6691,2.6691,0.0,0.0,0.0,2.6691,2.6691,0.0,0.0,0.0,2.5862,2.6065,0.0,0.0,0.0,0.0,0.0,0.0,0.0,0.0,0.0,0.0,0.0,0.0,0.0,0.0,0.0,0.0,2.8528,2.9005,2.9005,2.804,2.7755,2.8879,2.8373,2.794,2.7911,2.7547,2.7165,2.6843,2.6826,2.686,2.6962,0.0,0.0,0.0,0.0,2.8993,2.8993,2.8993,2.8993,2.8993,2.8993,2.8993,2.8993,2.8993,2.8993,2.8993,2.8993,2.8993,2.8993,2.8993,2.8993,2.8857,2.7503,2.7368,2.801,2.8756,2.8993,2.8993,2.8993,0.0,0.0,2.8993,2.8993,2.8993,2.8993,2.8993,2.8993,2.8993,2.8993,2.9027,2.9111,2.9128,2.9145,2.923,2.9247,2.9247,2.9247,2.9247,2.9247,2.9247,2.9247,2.9247,2.9247,2.9111,2.8993,2.8993,2.8993,2.8756,2.8027,2.7942,2.7638,2.6894,0.0,0.0,2.6725,2.6691,2.6691,2.6691,2.6691,2.6691,2.6691,2.6691,2.6691,2.6691,2.6691,2.6691,2.6691,2.6691,2.6691,2.6691,2.6691,2.6691,0.0,0.0,0.0,0.0,0.0,0.0,0.0,0.0,0.0,0.0,0.0,0.0,0.0,0.0,0.0,2.8668,2.8895,2.9005,2.9005,2.853,2.8371,2.8934,2.8596,2.8197,2.7926,2.7547,2.7389,2.7571,2.7587,2.7875,2.8519,2.8688,2.8773,2.8773,2.8925,2.8993,2.8993,2.8993,2.8993,2.8993,0.0,0.0,2.8993,2.8993,2.8993,2.8993,2.8993,2.8993,2.8993,2.8993,2.8993,2.8976,2.8671,2.8637,2.879,2.8942,2.8993,2.8993,2.8993,2.8993,2.8993,2.8993,2.8993,2.8993,2.8993,2.8993,0.0,2.8993,2.8993,2.9145,2.9736,2.9888,3.004,3.0632,3.0768,3.0768,3.0768,3.0768,3.0768,3.0768,3.0768,3.0768,3.0768,2.9788,2.8993,2.8993,2.8993,2.8942,2.879,2.8773,2.845,2.7672,2.7587,2.7351,2.6742,2.6691,2.6691,2.6691,2.6691,2.6691,2.6691,2.6691,2.6691,2.6691,2.6691,2.6691,2.6691,2.6691,2.6691,2.6691,2.6691,2.6691,0.0,0.0,0.0,0.0,0.0,0.0,0.0,0.0,0.0,0.0,0.0,2.7611,0.0,0.0,2.8528,2.8932,2.9005,2.9005,2.9005,2.8658,2.8471,2.867,2.821,2.7935,2.8132,2.7779,2.7793,2.8367,2.8399,2.8569,2.8976,2.9365,2.955,2.955,2.9905,3.011,3.011,3.011,3.011,3.011,3.011,3.011,3.011,3.011,3.011,3.011,3.011,3.011,3.011,3.011,3.011,3.011,3.011,2.9871,2.9583,2.9956,3.011,3.011,3.011,3.011,3.011,3.011,3.011,3.011,3.011,3.011,3.011,3.011,3.011,3.0194,3.0548,3.0649,3.0734,3.1106,3.119,3.119,3.119,3.119,3.119,3.119,3.119,3.119,3.119,3.0581,3.011,3.011,3.011,2.9974,2.96,2.955,2.9262,2.8484,2.8043,2.7655,2.7266,2.6911,2.6691,2.6691,2.6691,2.6691,2.6691,2.6691,2.6691,2.6691,2.6691,2.6691,2.6691,2.6691,2.6691,2.6708,2.6906,2.689,0.0,0.0,0.0,0.0,0.0,0.0,0.0,2.7805,2.7792,2.819,2.8149,2.8227,2.8877,2.9005,2.9005,2.9005,2.9005,2.9005,2.9005,2.8722,2.8545,2.8624,2.7959,2.7769,2.8473,2.8237,2.8384,2.9273,2.9268,2.9281,2.9416,2.9989,3.0311,3.0311,3.0886,3.119,3.119,3.119,3.119,3.119,3.119,3.119,3.119,3.119,3.119,3.119,3.119,3.119,3.119,3.119,3.119,3.119,3.119,3.0835,3.0395,3.097,3.119,3.119,3.119,3.119,3.119,3.119,3.119,3.119,3.119,3.119,3.119,3.119,3.119,3.119,3.119,3.119,3.119,3.119,3.119,3.119,3.119,3.119,3.119,3.119,3.119,3.119,3.119,3.119,3.119,3.119,3.119,3.0987,3.0395,3.0311,3.0023,2.9297,2.8636,2.8128,2.7824,2.7266,2.6843,2.6708,2.6691,2.6691,2.6691,2.6691,2.6691,2.6691,2.6691,2.6691,2.6691,2.6791,2.6825,2.6824,2.7147,2.7083,2.6447,2.7082,2.7953,2.8761,2.8973,2.9045,0.0,2.9439,2.9326,2.8961,2.8881,2.8895,2.8987,2.9005,2.9005,2.9005,2.9005,2.9005,2.9005,2.8954,2.9062,2.9422,2.877,2.847,2.8971,2.8938,2.9309,3.0439,3.0182,3.026,3.092,3.1021,3.1072,3.1072,3.1157,3.119,3.119,3.119,3.119,3.119,3.119,3.119,3.119,3.119,3.119,3.119,3.119,3.119,3.119,3.119,3.119,3.119,3.119,3.114,3.1089,3.1157,3.119,3.119,3.119,3.119,3.119,3.119,3.119,3.119,3.119,3.119,3.119,3.119,3.119,3.119,3.119,3.119,3.119,3.119,3.119,3.119,3.119,3.119,3.119,3.119,3.119,3.119,3.119,3.119,3.119,3.119,3.119,3.1157,3.1089,3.1072,3.0784,3.0074,2.9905,2.9277,2.7925,2.7722,2.7384,2.6742,2.6691,2.6691,2.6691,2.6691,2.6691,2.6691,2.6691,2.6691,2.6691,2.7051,2.7224,2.7224,2.7288,2.7083,2.7794,2.8319,2.8758,2.9443,2.9627,2.9608,2.955,2.9532,2.9425,2.9067,2.9005,2.9005,2.9005,2.9005,2.9005,0.0,2.9005,2.9005,2.9005,2.9202,2.9412,2.9575,2.9914,3.0108,3.0025,2.9797,3.0016,3.0919,3.0851,3.0869,3.1173,3.119,3.119,3.119,3.119,3.119,3.119,3.119,3.119,3.119,3.119,3.119,3.119,3.119,3.119,3.119,3.119,3.119,3.119,3.119,3.119,3.119,3.119,3.119,3.119,3.119,3.119,3.119,3.119,3.119,3.119,3.119,3.119,3.119,3.119,3.119,3.119,3.119,3.119,3.119,3.119,3.119,3.119,3.119,3.119,3.119,3.119,3.119,3.119,3.119,3.119,3.119,3.119,3.119,3.119,3.119,3.119,3.119,3.119,3.119,3.092,3.0192,3.0108,2.9668,2.8586,2.8501,2.818,2.7402,2.7334,2.7148,2.6708,2.6691,2.6808,2.7035,2.7051,2.7162,2.7394,2.7577,2.753,2.7319,2.7984,2.7944,2.9074,2.9467,2.9542,2.9916,3.0006,2.9901,2.9484,2.9402,2.9351,2.9156,2.9044,2.9028,2.9089,2.9044,2.9005,2.9005,2.9005,2.9078,2.9299,2.9675,3.0048,3.0404,3.1172,3.157,3.1219,3.0813,3.0791,3.1336,3.1252,3.119,3.119,3.119,3.119,3.119,3.119,3.119,3.119,3.119,3.119,3.119,3.119,3.119,3.119,3.119,3.119,3.119,3.119,3.119,3.119,3.119,3.119,3.119,3.119,3.119,3.119,3.119,3.119,3.119,3.119,3.119,3.119,3.119,3.119,3.119,3.119,3.119,3.119,3.119,3.119,3.119,3.119,3.119,3.119,3.119,3.119,3.119,3.119,3.119,3.119,3.119,3.119,3.119,3.119,3.119,3.119,3.119,3.119,3.119,3.119,3.119,3.1004,3.0463,3.0412,3.0108,2.9382,2.9314,2.8958,2.8197,2.8128,2.7928,2.7521,2.7386,2.7571,2.813,2.7988,2.8128,2.8563,2.8664,2.8578,2.8298,2.9011,2.9092,3.0136,3.0365,3.0304,3.0049,3.0006,2.9901,2.9484,2.9402,2.9402,2.9392,2.9171,2.9078,2.9341,2.9178,2.9005,2.9005,2.9005,2.9262,3.0063,3.0503,3.1206,3.2365,3.249,3.2465,0.0,3.2022,3.1771,3.1789,3.1411,3.119,3.119,3.119,3.119,3.119,3.119,3.119,3.119,3.119,3.119,3.119,3.119,3.119,3.119,3.119,3.119,3.119,3.119,3.119,3.119,3.119,3.119,3.119,3.119,3.119,3.119,3.119,3.119,3.119,3.119,3.119,3.119,3.119,3.119,3.119,3.119,3.119,3.119,3.119,3.119,3.119,3.119,3.119,3.119,3.119,3.119,3.119,3.119,3.119,3.119,3.119,3.119,3.119,3.119,3.119,3.119,3.119,3.119,3.119,3.119,3.119,3.119,3.1157,3.1157,3.0869,3.0142,3.0074,2.9753,2.901,2.8959,2.9124,2.9486,2.9142,2.9317,3.0191,2.9766,2.9766,3.0237,3.0625,3.0798,3.077,3.0362,3.0392,3.0319,3.0404,3.0343,3.0068,3.0006,2.9931,2.9661,2.9598,2.9598,2.9598,2.9533,2.9485,2.9589,2.9415,2.9267,2.9267,2.9565,2.9886,3.0173,3.1234,3.214,3.2551,3.3044,0.0,0.0,0.0,0.0,3.143,3.1271,3.141,3.1904,3.1938,3.2138,3.2645,3.2662,3.2828,3.3208,3.2828,3.2828,3.3208,3.2828,3.2849,3.3188,3.2828,3.2662,3.2662,3.2662,3.2662,3.2662,3.2662,3.2662,3.2662,3.2662,3.2662,3.2662,3.2662,3.2662,3.2527,3.1529,3.119,3.119,3.119,3.119,3.119,3.119,3.119,3.119,3.119,3.119,3.119,3.119,3.1546,3.1938,3.1938,3.229,3.2662,3.2662,3.2662,3.2662,3.2662,3.2662,3.2662,3.2662,3.2662,3.2768,3.3149,3.2056,3.119,3.119,3.119,3.119,3.119,3.119,3.1106,3.0852,3.0835,3.0514,2.9786,2.9736,2.9556,2.9227,2.9334,2.9656,3.0231,3.0383,3.0647,3.1038,3.118,3.1114,3.0902,3.1232,3.1333,3.0421,3.0404,3.0343,3.0068,3.0006,2.9954,2.9756,2.9705,2.9722,2.9788,2.9696,2.9644,2.9771,2.9514,2.9289,2.9392,2.9843,3.0301,3.0595,3.177,3.2711,3.2986,3.3495,3.3462,0.0,0.0,0.0,3.1639,3.1599,3.1921,3.2645,3.2679,3.3002,3.3666,3.37,3.3931,3.4454,3.4112,3.4112,3.4435,3.3931,3.3865,3.4183,3.3642,3.3406,3.3406,3.3406,3.3406,3.3406,3.3406,3.3406,3.3406,3.3406,3.3406,3.3406,3.3406,3.3406,3.3271,3.2307,3.1799,3.1599,3.1599,3.1599,3.1599,3.1599,3.1907,3.223,3.2046,3.2232,3.2429,3.2089,3.2485,3.2926,3.274,3.3051,3.3406,3.3406,3.3556,3.3639,3.3448,3.3556,3.3622,3.3427,3.3556,3.3868,3.436,3.3337,3.2524,3.2524,3.2264,3.2051,3.1878,3.1617,3.1428,3.1411,3.1291,3.1125,3.0968,3.0787,3.0637,3.0508,3.0591,3.0901,3.1472,3.1639,3.1897,3.226,3.226,3.2143,3.1929,3.2282,3.2364,3.0425,3.0404,3.0349,3.0082,3.0021,2.9969,2.979,2.9739,2.9799,2.9977,2.9713,2.958,2.9947,0.0,2.9123,2.9363,2.9891,3.0522,3.1286,3.2137,3.2931,0.0,0.0,0.0,0.0,0.0,0.0,3.2476,0.0,3.2682,3.3423,3.3478,3.3748,3.4304,3.4326,3.4576,3.5048,3.503,3.503,3.5048,3.452,3.4287,3.4326,3.3762,3.3525,3.3525,3.3525,3.3525,3.3525,3.3525,3.3525,3.3525,3.3525,3.3525,3.3525,3.3525,3.3525,3.3525,3.3529,3.3021,3.2361,3.2361,3.2361,3.2361,3.2361,3.3222,3.4105,3.3577,3.4133,3.4676,3.371,3.3882,3.4157,3.3649,3.3558,3.3592,3.3592,3.3988,3.4189,3.3654,3.3928,3.4128,3.3634,3.3988,3.4501,3.4978,3.5083,3.5047,3.4906,3.4233,3.3617,3.3241,3.2523,3.2017,3.1965,3.1574,3.1688,3.2504,3.2092,3.2247,3.3139,3.2761,3.2919,3.3748,3.3404,3.3422,3.3807,3.3807,3.3807,3.3775,3.3404,3.3451,3.0396,3.0404,3.0373,3.0311,3.0305,3.0273,3.0228,3.0215,3.0228,3.0292,3.0215,3.0181,3.0286,2.9872,2.9542,2.9607,3.0449,0.0,3.1378,3.2614,0.0,3.377,0.0,3.3337,3.3331,3.3212,0.0,0.0,3.3423,3.344,3.4167,3.4607,3.5134,3.5827,3.6245,3.6645,3.7127,3.6791,3.6791,3.7127,3.585,3.5659,3.64,3.5467,3.5042,3.5042,3.5042,3.5042,3.5042,3.5042,3.5042,3.5042,3.5042,3.5042,3.5042,3.5042,3.5042,3.5091,3.5509,3.4527,3.3119,3.3119,3.3119,3.3119,3.3119,3.3631,3.4183,3.4027,3.4436,3.4854,3.4585,3.5025,3.5502,3.5371,3.5789,3.6227,3.6227,3.6343,3.6266,3.5742,3.5424,3.5335,3.5593,3.6088,3.6589,3.7075,3.7484,3.7049,3.5135,3.4711,3.4552,3.4447,3.4253,3.4129,3.4111,3.3477,3.316,3.3384,3.2735,3.2434,3.2665,3.2905,3.3139,3.3346,3.355,3.3694,3.3807,3.3807,3.3807,3.3807,3.3694,3.3707,3.0404,3.0404,3.0404,3.0404,3.0404,3.0404,3.0404,3.0404,3.0404,3.0404,3.0305,3.026,3.0373,2.9939,2.9598,0.0,0.0,0.0,3.1397,3.2779,3.3807,0.0,3.3433,0.0,3.3579,3.3522,3.3872,0.0,3.4249,3.4308,3.5279,3.5611,3.617,3.7041,3.736,3.7755,3.8251,3.7981,3.7981,3.8251,3.6925,3.6623,3.7154,3.6079,3.56,3.5622,0.0,3.581,3.5622,3.5854,3.5827,3.56,3.56,3.5739,3.5963,3.5963,3.6097,3.6354,3.6643,3.6006,3.4982,3.4408,3.4074,3.3922,3.4161,3.4834,3.5524,3.5524,3.6025,3.6476,3.6025,3.6363,3.6774,3.6574,3.6873,3.7209,3.7209,3.736,3.7415,3.7135,3.6646,3.646,3.6981,3.7323,3.7685,3.8167,3.8515,3.8186,3.6752,3.6269,3.5953,3.5769,3.543,3.5198,3.5198,3.4601,3.4403,3.4817,3.3886,3.3407,3.3579,3.3513,3.3465,3.3465,3.3694,3.3807,3.3807,3.3807,3.3807,3.3807,3.3807,3.3807,3.0404,3.0404,3.0404,3.0404,3.0404,3.0404,3.0404,3.0404,3.0404,3.0404,3.0209,3.011,3.0361,2.9867,2.9494,2.967,0.0,3.1397,3.1397,3.2779,3.3807,3.3807,3.3481,3.3385,3.3704,3.3988,3.4495,3.5379,3.5014,3.5262,3.6443,3.658,3.7039,3.798,3.8015,3.8216,3.8692,3.8627,3.8627,3.8692,3.7667,3.7229,3.7248,3.6253,3.581,3.5832,3.6291,0.0,3.5832,3.6245,3.6182,3.5827,3.5739,3.6032,3.6519,3.6519,3.6803,3.7209,3.7267,3.7248,3.701,3.5898,3.5246,3.4951,3.5411,3.6376,3.7285,3.7285,3.7982,3.8499,3.7614,3.7685,3.7911,3.7506,3.7396,3.7396,3.7396,3.7649,3.7893,3.7893,3.7524,3.7341,3.7825,3.7893,3.8082,3.8627,3.8707,3.8707,3.8707,3.8083,3.7485,3.71,3.6435,3.6001,3.6001,3.5548,3.5593,3.6421,3.5317,3.48,3.5155,3.438,3.3972,3.3972,3.3844,3.3807,3.3807,3.3807,3.3807,3.3807,3.3807,3.3807,3.0404,3.0404,3.0404,3.0404,3.0404,3.0404,3.0404,3.0404,3.0404,3.0404,3.0361,3.0329,3.0398,2.9985,2.9652,2.9696,3.066,3.1397,3.1397,3.2779,3.3807,0.0,3.3648,3.3791,3.4447,3.4458,0.0,0.0,3.6122,3.6362,3.702,3.7433,3.7911,3.8546,3.8562,3.8611,3.8707,3.8267,3.8267,3.8692,3.7667,3.7396,3.7755,3.7174,3.6923,3.6923,3.702,0.0,3.6902,3.6542,3.6603,3.6865,3.6437,3.6583,3.7058,3.7058,3.7133,3.7266,3.7649,3.7524,3.7155,3.6955,3.6807,3.6749,3.6845,3.7308,3.7772,3.7772,3.8216,3.8676,3.8483,3.8499,3.8546,3.8449,3.8433,3.8433,3.8433,3.815,3.7893,3.7893,3.7524,3.7341,3.7825,3.7893,3.8082,3.8627,3.8707,3.8707,3.8707,3.8579,3.8456,3.8376,3.8248,3.8175,3.8175,3.7488,3.7119,3.7276,3.6446,3.6007,3.6083,3.5243,3.4784,3.4784,3.4137,3.3807,3.3807,3.3807,3.3807,3.3807,3.3807,3.3807,3.0404,3.0404,3.0404,3.0404,3.0404,3.0404,3.0404,3.0404,3.0404,3.0404,3.0404,3.0404,3.0404,3.0015,2.9705,2.9705,3.066,3.1397,3.1397,3.2779,3.3721,3.3508,3.3552,3.3812,3.4348,3.4477,3.5147,3.6711,3.6823,3.7039,3.7542,3.8032,3.843,3.8692,3.8707,3.8707,3.8707,3.843,3.8449,3.8692,3.7929,3.7685,3.7876,3.7415,3.7209,3.721,3.7451,0.0,3.7209,3.7192,3.7192,3.7173,3.6921,3.7116,3.756,3.756,3.7738,3.8016,3.8234,3.8185,3.7982,3.7982,3.7614,3.7247,3.7488,3.772,3.7963,3.8251,3.8496,3.8707,3.8707,3.8707,3.8707,3.8707,3.8707,3.8707,3.8707,3.8496,3.8334,3.8334,3.8133,3.805,3.8267,3.8334,3.8399,3.8658,3.8707,3.8707,3.8707,3.8707,3.8707,3.8707,3.8707,3.8707,3.8707,3.834,3.812,3.812,3.7367,3.6923,3.6923,3.6119,3.5665,3.5665,3.5293,3.5092,3.5092,3.5092,3.5092,3.5092,3.5092,3.5092,3.0404,3.0404,3.0404,3.0404,3.0404,3.0404,3.0404,3.0404,3.0404,3.0404,3.0404,3.0404,3.0404,3.0015,2.9705,2.9705,3.066,3.1397,3.1397,3.2779,3.3652,3.3243,3.3565,0.0,3.4213,3.4548,0.0,3.7213,3.7469,3.7685,3.8048,3.8465,3.8707,3.8707,3.8707,3.8707,3.8707,3.8707,3.8707,3.8692,3.8283,3.8065,3.8065,3.7685,3.7524,3.7542,3.7911,0.0,0.0,3.7808,3.7737,3.7506,3.7378,3.7649,3.8065,3.8065,3.835,3.8707,3.8707,3.8707,3.8707,3.8707,3.8168,3.7596,3.7946,3.8065,3.8167,3.8578,3.8707,3.8707,3.8707,3.8707,3.8707,3.8707,3.8707,3.8707,3.8707,3.8707,3.8707,3.8707,3.8707,3.8707,3.8707,3.8707,3.8707,3.8707,3.8707,3.8707,3.8707,3.8707,3.8707,3.8707,3.8707,3.8707,3.8707,3.8707,3.8707,3.8707,3.8102,3.7768,3.7768,3.6982,3.656,3.656,3.6376,3.6303,3.6303,3.6303,3.6303,3.6303,3.6303,3.6303,3.0404,3.0404,3.0404,3.0404,3.0404,3.0404,3.0404,3.0404,3.0404,3.0404,3.0404,3.0404,3.0404,3.0015,2.9705,2.9705,3.066,3.1397,3.1397,3.2779,3.3652,3.3243,0.0,0.0,3.473,3.5184,3.6146,3.772,3.8283,3.8596,3.8627,3.8658,3.8707,3.8707,3.8707,3.8707,3.8707,3.8707,3.8707,3.8707,3.8643,3.8627,3.8627,3.8596,3.8562,3.8562,3.8611,0.0,0.0,3.8082,3.8167,3.8515,3.8032,3.8167,3.8627,3.8627,3.8658,3.8707,3.8707,3.8707,3.8707,3.8707,3.8643,3.858,3.8611,3.8627,3.8643,3.8692,3.8707,3.8707,3.8707,3.8707,3.8707,3.8707,3.8707,3.8707,3.8707,3.8707,3.8707,3.8707,3.8707,3.8707,3.8707,3.8707,3.8707,3.8707,3.8707,3.8707,3.8707,3.8707,3.8707,3.8707,3.8707,3.8707,3.8707,3.8707,3.8707,3.8707,3.8634,3.8597,3.8597,3.7823,3.7382,3.7382,3.6684,3.6303,3.6303,3.6303,3.6303,3.6303,3.6303,3.6303,3.0408,3.0404,3.0404,3.0404,3.0404,3.0404,3.0404,3.0404,3.0404,3.0404,3.0404,3.0404,3.0404,3.0128,2.9837,2.9722,3.0779,3.1584,3.1421,3.2779,3.3652,3.3243,3.4381,3.5096,0.0,0.0,3.6925,3.7825,3.8399,3.8707,3.8707,3.8707,3.8707,3.8707,3.8707,3.8707,3.8707,3.8707,3.8707,3.8707,3.8707,3.8707,3.8707,3.8707,3.8707,3.8707,3.8707,0.0,0.0,3.8465,3.8515,3.8692,3.8465,3.8496,3.8707,3.8707,3.8707,3.8707,3.8707,3.8707,3.8707,3.8707,3.8707,3.8707,3.8707,3.8707,3.8707,3.8707,3.8707,3.8707,3.8707,3.8707,3.8707,3.8707,3.8707,3.8707,3.8707,3.8707,3.8707,3.8707,3.8707,3.8707,3.8707,3.8707,3.8707,3.8707,3.8707,3.8707,3.8707,3.8707,3.8707,3.8707,3.8707,3.8707,3.8707,3.8707,3.8707,3.8707,3.8707,3.8707,3.8707,3.8395,3.8212,3.8212,3.7918,3.7734,3.7734,3.7734,3.7734,3.7734,3.7734,3.7734,3.0441,3.0419,3.0404,3.0404,3.0404,3.0404,3.0404,3.0404,3.0404,3.0404,3.0404,3.0404,3.0404,3.0189,2.9939,2.972,3.0871,3.1711,3.1434,3.2779,3.3652,3.3243,0.0,3.5382,0.0,3.6612,3.772,3.7894,3.8399,3.8707,3.8707,3.8707,3.8707,3.8707,3.8707,3.8707,3.8707,3.8707,3.8707,3.8707,3.8707,3.8707,3.8707,3.8707,3.8707,3.8707,3.8707,0.0,0.0,3.8707,3.8707,3.8707,3.8707,3.8707,3.8707,3.8707,3.8707,3.8707,3.8707,3.8707,3.8707,3.8707,3.8707,3.8707,3.8707,3.8707,3.8707,3.8707,3.8707,3.8707,3.8707,3.8707,3.8707,3.8707,3.8707,3.8707,3.8707,3.8707,3.8707,3.8707,3.8707,3.8707,3.8707,3.8707,3.8707,3.8707,3.8707,3.8707,3.8707,3.8707,3.8707,3.8707,3.8707,3.8707,3.8707,3.8707,3.8707,3.8707,3.8707,3.8707,3.8707,3.8707,3.8707,3.8707,3.8707,3.8707,3.8707,3.8707,3.8707,3.8707,3.8707,3.8707,3.0498,3.0442,3.0404,3.0404,3.0404,3.0404,3.0404,3.0404,3.0404,3.0404,3.0404,3.0404,3.0404,3.0189,2.9939,2.972,3.0871,3.1711,3.1434,3.2779,3.3652,0.0,3.4558,3.5514,3.558,3.7468,3.8465,3.7946,3.8399,0.0,3.8707,3.8707,3.8707,3.8707,3.8707,3.8707,3.8707,3.8707,3.8707,3.8707,3.8707,3.8707,3.8707,3.8707,3.8707,3.8707,0.0,0.0,0.0,3.8707,3.8707,3.8707,3.8707,3.8707,3.8707,3.8707,3.8707,3.8707,3.8707,3.8707,3.8707,3.8707,3.8707,3.8707,3.8707,3.8707,3.8707,3.8707,3.8707,3.8707,3.8707,3.8707,3.8707,3.8707,3.8707,3.8707,3.8707,3.8707,3.8707,3.8707,3.8707,3.8707,3.8707,3.8707,3.8707,3.8707,3.8707,3.8707,3.8707,3.8707,3.8707,3.8707,3.8707,3.8707,3.8707,3.8707,3.8707,3.8707,3.8707,3.8707,3.8707,3.8707,3.8707,3.8707,3.8707,3.8707,3.8707,3.8707,3.8707,3.8707,3.8707,3.8707,3.0581,3.0513,3.0477,3.0477,3.0425,3.0404,3.0404,3.0404,3.0404,3.0404,3.0404,3.0404,3.0404,3.0323,3.0148,2.9765,3.0998,3.1864,3.147,0.0,0.0,3.4373,3.5871,3.7095,0.0,0.0,3.8627,3.8465,3.8593,3.8707,3.8707,3.8707,3.8707,3.8707,3.8707,3.8707,3.8707,3.8707,3.8707,3.8707,3.8707,3.8707,3.8707,3.8707,3.8707,0.0,0.0,0.0,0.0,3.8707,3.8707,3.8707,3.8707,3.8707,3.8707,3.8707,3.8707,3.8707,3.8707,3.8707,3.8707,3.8707,3.8707,3.8707,3.8707,3.8707,3.8707,3.8707,3.8707,3.8707,3.8707,3.8707,3.8707,3.8707,3.8707,3.8707,3.8707,3.8707,3.8707,3.8707,3.8707,3.8707,3.8707,3.8707,3.8707,3.8707,3.8707,3.8707,3.8707,3.8707,3.8707,3.8707,3.8707,3.8707,3.8707,3.8707,3.8707,3.8707,3.8707,3.8707,3.8707,3.8707,3.8707,3.8707,3.8707,3.8707,3.8707,3.8707,3.8707,3.8707,3.8707,3.8707,3.0663,3.0594,3.0541,3.0541,3.0495,3.0436,3.0436,3.0425,3.0404,3.0404,3.0404,3.0404,3.0404,3.0404,3.0254,2.9782,3.1054,3.194,3.1464,0.0,0.0,3.5353,0.0,0.0,0.0,3.8707,3.8707,3.8707,3.8707,3.8707,3.8707,3.8707,3.8707,3.8707,3.8707,3.8707,3.8707,3.8707,3.8707,3.8707,3.8707,3.8707,3.8707,3.8707,3.8578,0.0,0.0,0.0,0.0,3.8627,3.8707,3.8707,3.8707,3.8707,3.8707,3.8707,3.8707,3.8707,3.8707,3.8707,3.8707,3.8707,3.8707,3.8707,3.8707,3.8707,3.8707,3.8707,3.8707,3.8707,3.8707,3.8707,3.8707,3.8707,3.8707,3.8707,3.8707,3.8707,3.8707,3.8707,3.8946,3.9056,3.8762,3.8946,3.9056,3.8762,3.8707,3.8707,3.8707,3.8707,3.8707,3.8707,3.8707,3.8707,3.8707,3.8707,3.8707,3.8707,3.8707,3.8707,3.8707,3.8707,3.8707,3.8707,3.8707,3.8707,3.8707,3.8707,3.8707,3.8707,3.8707,3.8707,0.0,3.0665,3.0611,3.0611,3.0544,3.0498,3.0498,3.0456,0.0,3.0404,3.0404,3.0404,3.0404,3.0404,3.0273,2.9849,3.1092,3.1958,0.0,3.2908,0.0,0.0,3.707,0.0,3.8634,3.8707,3.8707,3.8707,3.8707,3.8707,3.8707,3.8707,3.8707,3.8707,3.8707,3.8692,3.8643,3.8643,3.8643,3.8643,3.8643,3.8643,3.8643,3.8643,3.835,0.0,0.0,0.0,0.0,3.8481,3.8707,3.8707,3.8707,3.8707,3.8707,3.8707,3.8707,3.8707,3.8707,3.8707,3.8707,3.8707,3.8707,3.8707,3.8707,3.8707,3.8707,3.8707,3.8707,3.8707,3.8707,3.8707,3.8707,3.8707,3.8707,3.8707,3.8707,3.8707,3.8707,3.8707,3.9294,3.957,3.8836,3.9313,3.9551,3.8817,3.8707,3.8707,3.8707,3.8707,3.8707,3.8707,3.8707,3.8707,3.8707,3.8707,3.8707,3.8707,3.8707,3.8707,3.8707,3.8707,3.8707,3.8707,3.8707,3.8707,3.8707,3.8707,3.8707,3.8707,3.8707,3.8707,3.0858,0.0,3.0679,3.0679,3.0594,3.0498,0.0,3.0456,3.0404,3.0404,3.0404,3.0404,3.0404,3.0404,3.0445,3.0596,3.145,3.2146,3.2286,0.0,0.0,3.6248,3.7551,3.8487,3.8689,3.8707,3.8707,3.8707,3.8707,3.8707,3.8707,3.8707,3.8707,3.8707,3.8707,3.8496,3.8082,3.8082,3.8082,3.8082,3.8082,3.8082,3.8082,3.8082,3.7825,0.0,0.0,0.0,3.7946,3.8481,3.8707,3.8707,3.8707,3.8707,3.8707,3.8707,3.8707,3.8707,3.8707,3.8707,3.8707,3.8707,3.8707,3.8707,3.8707,3.8707,3.8707,3.8707,3.8707,3.8707,3.8707,3.8707,3.8707,3.8707,3.8707,3.8707,3.8707,3.8707,3.8707,3.8707,3.8854,3.8927,3.8726,3.8854,3.8927,3.8726,3.8707,3.8707,3.8707,3.8707,3.8707,3.8707,3.8707,3.8707,3.8707,3.8707,3.8707,3.8707,3.8707,3.8707,3.8707,3.8707,3.8707,3.8707,3.8707,3.8707,3.8707,3.8707,3.8707,3.8707,3.8707,3.8707,3.0898,3.0857,3.0793,3.0793,3.0672,3.0552,3.0552,3.0477,3.0404,3.0404,3.0404,3.0404,3.0404,3.0305,3.0362,3.0835,3.1505,0.0,0.0,0.0,3.6431,3.6813,3.7955,3.8707,0.0,3.8707,3.8707,3.8707,3.8707,3.8707,3.8707,3.8707,3.8707,3.8707,3.8465,3.82,3.7893,3.7893,3.7893,3.7893,3.7893,3.7893,3.7893,3.7893,3.7649,0.0,0.0,0.0,3.7946,3.8481,3.8707,3.8707,3.8707,3.8707,3.8707,3.8707,3.8707,3.8707,3.8707,3.8707,3.8707,3.8707,3.8707,3.8707,3.8707,3.8707,3.8707,3.8707,3.8707,3.8707,3.8707,3.8707,3.8707,3.8707,3.8707,3.8707,3.8707,3.8707,3.8707,3.8707,3.9001,3.9129,3.8762,3.9019,3.9129,3.8762,3.8707,3.8707,3.8707,3.8707,3.8707,3.8707,3.8707,3.8707,3.8707,3.8707,3.8707,3.8707,3.8707,3.8707,3.8707,3.8707,3.8707,3.8707,3.8707,3.8707,3.8707,3.8707,3.8707,3.8707,3.8707,3.8707,3.0898,3.0898,3.0878,3.0878,3.0728,3.06,3.0587,3.0495,3.0404,3.0404,3.0404,3.0398,3.0349,3.015,0.0,0.0,0.0,0.0,3.472,3.5752,3.6597,3.7401,3.8212,0.0,3.8707,3.8707,3.8707,3.8707,0.0,3.8707,3.8707,3.8707,3.8707,3.8707,3.8267,3.7946,3.779,3.772,3.7667,3.7667,3.7667,3.7667,3.7667,3.7667,3.7433,3.7097,0.0,0.0,3.7946,3.8481,3.8707,3.8707,3.8707,3.8707,3.8707,3.8707,3.8707,3.8707,3.8707,3.8707,3.8707,3.8707,3.8707,3.8707,3.8707,3.8707,3.8707,3.8707,3.8707,3.8707,3.8707,3.8707,3.8707,3.8707,3.8707,3.8707,3.8707,3.8707,3.8707,3.8707,3.9239,3.9496,3.8817,3.9276,3.9478,3.8799,3.8707,3.8707,3.8707,3.8707,3.8707,3.8707,3.8707,3.8707,3.8707,3.8707,3.8707,3.8707,3.8707,3.8707,3.8707,3.8707,3.8707,3.8707,3.8707,3.8707,3.8707,3.8707,3.8707,3.8707,3.8707,3.8707,3.0898,3.0816,3.0722,3.0722,3.0663,3.0587,3.0525,3.0452,3.0404,3.0404,3.0404,3.0323,3.0096,3.0021,3.0362,0.0,0.0,3.386,0.0,0.0,3.6597,3.7401,0.0,3.8707,3.8707,3.8707,3.8707,0.0,0.0,3.8707,3.8707,3.8707,3.8707,3.8707,3.8627,3.8168,3.7322,3.6845,3.6623,3.6623,3.6623,3.6623,3.6623,3.6623,3.6583,3.656,0.0,3.7524,3.7946,3.8481,3.8707,3.8707,3.8707,3.8707,3.8707,3.8707,3.8707,3.8707,3.8707,3.8707,3.8707,3.8707,3.8707,3.8707,3.8707,3.8707,3.8707,3.8707,3.8707,3.8707,3.8707,3.8707,3.8707,3.8707,3.8707,3.8707,3.8707,3.8707,3.8707,3.8707,3.8799,3.8836,3.8726,3.8799,3.8836,3.8726,3.8707,3.8707,3.8707,3.8707,3.8707,3.8707,3.8707,3.8707,3.8707,3.8707,3.8707,3.8707,3.8707,3.8707,3.8707,3.8707,3.8707,3.8707,3.8707,3.8707,3.8707,3.8707,3.8707,3.8707,3.8707,3.8707,3.0898,3.0858,3.0789,3.0669,3.06,3.0541,3.0511,3.0456,3.0404,3.0404,3.0404,0.0,0.0,0.0,3.0233,3.1399,0.0,3.4247,3.5532,3.6046,3.6762,0.0,0.0,3.8707,3.8707,3.8707,3.8707,0.0,0.0,0.0,3.8707,3.8433,3.8399,3.8692,3.8168,3.7685,3.7192,3.6664,3.6395,3.6395,3.6684,3.6684,3.6395,3.6395,3.656,3.6843,0.0,3.7632,3.835,3.8611,3.8707,3.8707,3.8707,3.8707,3.8707,3.8707,3.8707,3.8707,3.8707,3.8707,3.8707,3.8707,3.8707,3.8707,3.8707,3.8707,3.8707,3.8707,3.8707,3.8707,3.8707,3.8707,3.8707,3.8707,3.8707,3.8707,3.8707,3.8707,3.8707,3.8707,3.8707,3.8707,3.8707,3.8707,3.8707,3.8707,3.8707,3.8707,3.8707,3.8707,3.8707,3.8707,3.8707,3.8707,3.8707,3.8707,3.8707,3.8707,3.8707,3.8707,3.8707,3.8707,3.8777,3.8909,3.8923,3.8923,3.8923,3.8923,3.8844,3.8707,3.8707,3.9031,3.0898,3.0879,3.0812,3.0636,3.0554,3.0524,3.0491,3.043,3.0404,3.0404,0.0,0.0,0.0,3.011,0.0,3.1526,3.2871,3.4394,3.6064,3.6303,3.689,3.8505,3.8707,3.8707,3.8707,3.8707,0.0,0.0,0.0,0.0,3.8707,3.83,3.8283,3.8692,3.7826,3.7304,3.7209,3.6783,3.6457,3.6224,3.6623,3.6603,3.6224,3.6333,3.6684,3.7209,3.7323,3.7878,3.8707,3.8707,3.8707,3.8707,3.8707,3.8707,3.8707,3.8707,3.8707,3.8707,3.8707,3.8707,3.8707,3.8707,3.8707,3.8707,3.8707,3.8707,3.8707,3.8707,3.8707,3.8707,3.8707,3.8707,3.8707,3.8707,3.8707,3.8707,3.8707,3.8747,3.8777,3.8704,3.8747,3.8777,3.8704,3.8707,3.8707,3.8707,3.8747,3.8788,3.8788,3.8788,3.8788,3.8788,3.875,3.8707,3.8707,3.8707,3.8707,3.8707,3.8707,3.8707,3.8707,3.8707,3.8788,3.9013,3.9058,3.9112,3.9112,3.9112,3.8999,3.8807,3.8918,3.9501,3.0898,3.0814,3.0708,3.0625,3.06,3.0551,3.0444,3.039,3.0404,3.0404,0.0,0.0,0.0,3.0904,3.1827,3.2414,3.3238,3.4394,3.6064,0.0,3.689,3.8505,3.8707,3.8707,3.8707,0.0,0.0,0.0,0.0,0.0,3.8707,3.8658,3.8658,3.8707,3.815,3.7649,3.7192,3.7154,3.6626,3.565,3.5694,3.5694,3.5672,3.6182,3.6684,3.721,3.7667,3.8167,3.8707,3.8707,3.8707,3.8707,3.8707,3.8707,3.8707,3.8707,3.8707,3.8707,3.8707,3.8707,3.8707,3.8707,3.8707,3.8707,3.8707,3.8707,3.8707,3.8707,3.8707,3.8707,3.8707,3.8707,3.8707,3.8707,3.8707,3.8707,3.8707,3.8913,3.8999,3.8747,3.8894,3.8985,3.8732,3.8707,3.8707,3.8707,3.8909,3.9072,3.9072,3.9072,3.9072,3.9072,3.8859,3.8707,3.8707,3.8707,3.8707,3.8707,3.8707,3.8707,3.8707,3.8707,3.8723,3.8735,3.8971,3.9112,3.9112,3.9112,3.9099,3.9077,3.9589,4.0018,3.0898,3.0794,3.0684,3.0623,3.0565,3.0501,3.0411,3.0404,3.0404,3.0404,3.0404,0.0,0.0,0.0,3.1777,3.2498,3.3293,3.4394,3.6064,3.6303,3.689,3.8505,3.8707,3.8707,0.0,0.0,0.0,0.0,0.0,0.0,3.8707,3.8118,3.7895,3.8183,3.7415,3.6884,3.6704,3.6704,3.6333,3.56,3.5941,3.592,3.56,3.5827,3.6203,3.6704,3.6884,3.7451,3.82,3.82,3.8399,3.8707,3.8707,3.8707,3.8707,3.8707,3.8707,3.8707,3.8707,3.8707,3.8707,3.8707,3.8707,3.8707,3.8707,3.8707,3.8707,3.8707,3.8707,3.8707,3.8707,3.8707,3.8707,3.8707,3.8707,3.8707,3.8707,3.8909,3.9072,3.8975,3.921,3.9383,3.9294,3.9268,3.9268,3.9268,3.9352,3.9401,3.9401,3.9225,3.9112,3.9112,3.8855,3.8777,3.8933,3.8947,3.9045,3.9255,3.8902,3.8758,3.8933,3.8947,3.9149,3.9566,3.9675,3.9731,3.9731,3.9498,3.9551,3.9849,4.0108,4.0933,3.0837,3.0743,3.0639,3.0587,3.0537,3.0486,3.0419,3.0404,3.0404,3.0404,3.0548,3.0796,3.113,0.0,0.0,0.0,3.344,3.4394,3.6064,3.6303,3.689,3.8505,3.8707,3.8707,0.0,0.0,0.0,0.0,0.0,0.0,0.0,3.7965,3.7685,3.7685,3.702,3.658,3.6395,3.6224,3.5963,3.56,3.5985,3.5963,3.5622,3.5946,3.6207,3.6416,3.6904,3.7415,3.7911,3.8082,3.8366,3.8707,3.8707,3.8707,3.8707,3.8707,3.8707,3.8707,3.8707,3.8707,3.8707,3.8707,3.8707,3.8707,3.8707,3.8707,3.8707,3.8707,3.8707,3.8707,3.8707,3.8707,3.8707,3.8707,3.8707,3.8719,3.8818,3.9054,3.9251,3.9251,3.9541,3.9712,3.9622,3.9599,3.9599,3.9599,3.9679,3.9765,3.9765,3.9564,3.9377,3.9264,3.9082,3.9059,3.9238,3.9251,3.9352,3.9587,3.9203,3.9073,3.9238,3.9165,3.9383,3.9922,4.0061,4.0101,4.0101,4.0127,4.0236,4.0464,4.1041,4.2031,3.0696,3.0659,3.0584,3.0528,3.0498,3.0486,3.0419,3.0404,3.0404,3.0404,3.0884,3.1408,3.1742,3.246,0.0,3.3713,3.3807,3.4394,3.6064,3.6303,3.689,3.8505,3.8707,0.0,0.0,0.0,0.0,0.0,0.0,0.0,0.0,3.8399,3.8236,3.7229,3.7173,3.6941,3.6395,3.5854,3.56,3.56,3.56,3.56,3.5644,3.6686,3.6902,3.6478,3.8016,3.8382,3.7946,3.8481,3.8707,3.8707,3.8707,3.8707,3.8707,3.8707,3.8707,3.8707,3.8707,3.8707,3.8707,3.8707,3.8707,3.8707,3.8707,3.8707,3.8707,3.8707,3.8707,3.8707,3.8707,3.8707,3.8707,3.8707,3.8707,3.8777,3.9036,3.9352,3.9599,3.9599,3.988,4.0002,3.9668,3.9611,3.9611,3.9611,3.9891,4.0101,4.0101,4.0101,3.9982,3.9634,3.9599,3.9599,3.9611,3.9611,3.9611,3.9611,3.9611,3.9611,3.9611,3.9295,3.9264,3.9599,3.9932,4.0101,4.0101,4.0911,4.1138,4.0865,4.2536,4.3303,3.0838,3.0725,3.0597,3.0575,0.0,0.0,0.0,3.0404,3.0349,0.0,3.0608,3.1186,3.1691,3.2297,0.0,3.3673,3.3807,3.4394,3.6064,3.6303,3.689,3.8505,3.8707,0.0,0.0,0.0,0.0,0.0,0.0,0.0,0.0,3.7929,3.7506,3.7209,3.646,3.5989,3.5832,3.5672,3.56,3.56,3.56,3.56,3.5622,3.5924,3.6186,3.6416,3.6865,3.7396,3.7946,3.8481,3.8707,3.8707,3.8707,3.8707,3.8707,3.8707,3.8707,3.8707,3.8707,3.8707,3.8707,3.8707,3.8707,3.8707,3.8707,3.8707,3.8707,3.8707,3.8707,3.8707,3.8707,3.8707,3.8707,3.8707,3.8707,3.8719,3.8803,3.9223,3.9599,3.9599,4.0014,4.0356,4.0248,4.022,4.022,4.022,4.0319,4.0321,4.012,4.0101,3.9982,3.9634,3.9599,3.9709,3.9922,3.9943,4.0023,4.023,4.0053,3.9943,3.9943,3.987,3.9934,4.0239,4.0328,4.0381,4.0381,4.0998,4.1547,4.2012,4.3178,4.4026,3.0782,3.065,3.0528,3.0528,3.0457,3.0404,3.0404,0.0,0.0,0.0,3.0836,3.1431,3.2004,3.2637,0.0,3.3715,3.3807,3.4266,3.5605,3.6083,3.678,3.8065,3.8505,0.0,0.0,0.0,0.0,0.0,0.0,0.0,0.0,3.7703,3.721,3.6565,3.6143,3.5827,3.56,3.56,3.56,3.56,3.56,3.56,3.56,3.581,3.5985,3.6097,3.6522,3.7285,3.8232,3.8562,3.8707,3.8707,3.8707,3.8707,3.8707,3.8707,3.8707,3.8707,3.8707,3.8707,3.8707,3.8707,3.8707,3.8707,3.8707,3.8707,3.8707,3.8707,3.8707,3.8707,3.8707,3.8707,3.8707,3.8707,3.8707,3.878,3.9013,3.9339,3.9679,3.9905,4.0257,4.0496,4.0496,4.0496,4.0496,4.0496,4.0496,4.0449,4.0286,4.025,4.0176,3.9984,3.9964,4.0034,4.0241,4.025,4.033,4.0489,4.0347,4.025,4.025,4.0158,4.0223,4.0489,4.0496,4.0669,4.1027,4.1681,4.2355,4.3046,4.4086,4.4764,3.0614,3.0516,3.0408,3.0408,3.0396,3.0404,3.0404,3.024,3.0239,3.0788,0.0,3.1964,3.25,3.3256,3.3807,3.3807,3.3807,3.4082,3.4894,3.5665,3.6468,3.729,3.8028,0.0,0.0,0.0,0.0,0.0,0.0,0.0,0.0,3.7596,3.7156,3.5717,3.6097,3.6097,3.56,3.56,3.56,3.56,3.56,3.56,3.5622,3.6097,3.6097,3.5739,3.6764,3.7756,3.8627,3.8627,3.8676,3.8707,3.8707,3.8707,3.8707,3.8707,3.8707,3.8707,3.8707,3.8707,3.8707,3.8707,3.8707,3.8707,3.8707,3.8707,3.8707,3.8707,3.8707,3.8707,3.8707,3.8707,3.8707,3.8707,3.8707,3.8862,3.942,3.9587,3.9767,4.0345,4.0481,4.0496,4.0496,4.0496,4.0496,4.0496,4.0496,4.0496,4.0496,4.0496,4.0496,4.0496,4.0496,4.0496,4.0496,4.0496,4.0496,4.0496,4.0496,4.0496,4.0496,4.0278,4.0241,4.0489,4.0573,4.1008,4.1788,4.2758,4.3434,4.3869,4.5045,4.5429,3.068,3.0584,3.0477,3.0477,3.0436,3.0404,3.0404,3.0566,3.0749,3.0865,3.1386,3.1964,3.25,3.3256,3.3807,3.3807,3.3807,3.4082,3.4894,3.5169,3.5591,3.645,3.6707,0.0,0.0,0.0,0.0,0.0,0.0,0.0,3.6856,3.7149,3.7001,3.6249,3.5941,3.5717,3.56,3.56,3.56,0.0,3.56,3.56,3.56,3.5717,3.5941,3.6249,3.6921,3.7524,3.8065,3.8065,3.8316,3.8707,3.8707,3.8707,3.8707,3.8707,3.8707,3.8707,3.8707,3.8707,3.8707,3.8707,3.8707,3.8707,3.8707,3.8707,3.8707,3.8707,3.8707,3.8707,3.8707,3.8707,3.8707,3.8707,3.8707,3.8788,3.9125,3.9414,3.9731,4.0101,4.0356,4.0496,4.0496,4.0496,4.0496,4.0496,4.0496,4.0496,4.0496,4.0496,4.0496,4.0496,4.0496,4.0496,4.0496,4.0496,4.0496,4.0496,4.0496,4.0496,4.0496,4.043,4.0449,4.0496,4.1162,4.1604,4.1788,4.3316,4.4098,4.4218,4.5164,4.5568,3.0667,3.0578,3.0485,3.0462,0.0,3.0361,3.0248,3.0573,3.0988,3.1258,3.1801,3.2398,3.3044,3.3532,3.3807,3.3807,3.3807,3.3954,3.4362,3.4766,3.5169,3.561,3.6046,0.0,0.0,0.0,0.0,0.0,0.0,3.6598,3.5824,3.5954,3.572,3.4991,3.4691,3.4726,3.5081,3.5081,3.5245,3.56,3.56,3.56,3.56,3.56,3.6032,3.6783,3.6803,3.7229,3.7893,3.7893,3.8065,3.835,3.8611,3.8707,3.8707,3.8707,3.8707,3.8707,3.8707,3.8707,3.8707,3.8707,3.8707,3.8707,3.8707,3.8707,3.8707,3.8707,3.8707,3.8707,3.8707,3.8707,3.8707,3.8707,3.8707,3.8818,3.9244,3.9481,3.9735,4.0194,4.0397,4.0496,4.0496,4.0496,4.0496,4.0496,4.0854,4.1123,4.1123,4.1489,4.1739,4.1739,4.1373,4.1123,4.1123,4.0746,4.0496,4.0496,4.0496,4.0496,4.0496,4.0496,4.0496,4.0496,4.1354,4.2,4.2431,4.3682,4.4509,4.494,4.5383,4.5594,3.0621,3.0554,3.0472,3.0425,3.0404,0.0,3.0129,3.0612,3.1242,3.1744,3.2255,3.2839,3.3642,3.3807,3.3807,3.3807,3.3807,3.3807,3.3807,3.4362,3.4784,3.4784,3.544,0.0,0.0,0.0,0.0,0.0,0.0,3.5651,3.4659,3.4712,3.4381,3.3427,3.3406,3.3694,3.4303,3.4303,3.4675,3.5397,3.5532,3.56,3.56,3.56,3.6079,3.6904,3.644,3.6786,3.7649,3.7737,3.7825,3.7963,3.8481,3.8707,3.8707,3.8707,3.8707,3.8707,3.8707,3.8707,3.8707,3.8707,3.8707,3.8707,3.8707,3.8707,3.8707,3.8707,3.8707,3.8707,3.8707,3.8707,3.8707,3.8707,3.8707,3.8862,3.9457,3.9599,3.9778,4.037,4.0496,4.0496,4.0496,4.0631,4.0727,4.0727,4.147,4.2019,4.2019,4.2643,4.3104,4.3104,4.245,4.1962,4.1808,4.1143,4.0669,4.0516,4.0496,4.0496,4.0496,4.0496,4.0573,4.0727,4.1585,4.245,4.3316,4.4124,4.4893,4.5594,4.5594,4.5594,3.0689,3.0603,3.0472,3.0425,3.0404,3.0398,0.0,0.0,3.1958,0.0,3.2358,3.2839,3.3642,3.3807,3.3807,3.3807,3.3807,3.3807,3.3807,3.3899,3.3972,3.3972,3.4064,0.0,0.0,0.0,0.0,0.0,3.4784,3.4767,3.3809,3.4429,3.4381,3.3427,3.3406,3.3457,3.3558,3.3558,3.3931,3.4641,3.5278,3.56,3.56,3.56,3.5672,3.581,3.5739,3.6054,3.6643,3.7097,3.7524,3.7963,3.8481,3.8707,3.8707,3.8707,3.8707,3.8707,3.8707,3.8707,3.8707,3.8707,3.8707,3.8707,3.8707,3.8707,3.8707,3.8707,3.8707,3.8707,3.8707,3.8707,3.8707,3.8707,3.8707,3.8862,3.9457,3.9599,3.9778,4.037,4.0496,4.0496,4.0496,4.1123,4.1643,4.1643,4.2374,4.2931,4.2931,4.3028,4.3104,4.3104,4.3008,4.2624,4.1865,4.1692,4.1296,4.0554,4.0496,4.0496,4.0496,4.0496,4.0854,4.1604,4.2489,4.3335,4.4143,4.5017,4.5498,4.5594,4.5594,4.5594,3.0669,3.0575,3.0472,3.0425,3.0404,3.0361,3.0209,3.1299,3.2239,3.1989,3.2769,3.3561,3.3755,3.3807,3.3807,3.3807,3.3807,3.3807,3.3807,3.3807,3.3807,3.3807,3.3807,0.0,0.0,0.0,0.0,0.0,3.4137,3.3927,3.303,3.3315,3.3105,3.2212,3.2171,3.2374,3.278,3.278,3.3152,3.3897,3.4641,3.4979,3.5013,3.5397,3.5761,3.6032,3.5739,3.5898,3.6437,3.698,3.7323,3.7578,3.8401,3.8707,3.8707,3.8707,3.8707,3.8707,3.8707,3.8707,3.8707,3.8707,3.8707,3.8707,3.8707,3.8707,3.8707,3.8707,3.8707,3.8707,3.8707,3.8707,3.8707,3.8707,3.88,3.904,3.9505,3.9599,3.9778,4.037,4.0496,4.0496,4.0496,4.1219,4.1788,4.1788,4.2931,4.3778,4.3778,4.4201,4.4489,4.4489,4.4066,4.3624,4.3239,4.2335,4.1643,4.1258,4.0766,4.0496,4.0496,4.0969,4.1643,4.2508,4.2893,4.3508,4.4297,4.5171,4.5594,4.5594,4.5594,4.5594,3.0683,3.0578,3.0516,3.0441,3.0414,3.0355,0.0,0.0,3.2134,0.0,3.2948,3.3876,3.3818,3.3807,3.3807,3.3807,3.3807,3.3807,3.3807,3.3807,3.3807,3.3807,3.3807,0.0,0.0,0.0,0.0,0.0,3.3807,3.3462,3.2713,3.2567,3.2162,3.1389,3.1252,3.1464,3.2022,3.2209,3.2581,3.3136,3.3863,3.4218,3.4252,3.4996,3.5538,3.5907,3.5698,3.5827,3.6245,3.6923,3.7209,3.7303,3.8302,3.8707,3.8707,3.8707,3.8707,3.8707,3.8707,3.8707,3.8707,3.8707,3.8707,3.8707,3.8707,3.8707,3.8707,3.8707,3.8707,3.8707,3.8707,3.8707,3.8707,3.8707,3.8909,3.9231,3.9634,3.9778,3.9955,4.0414,4.0496,4.0573,4.0785,4.1546,4.22,4.2412,4.3682,4.4624,4.4624,4.521,4.5594,4.5594,4.5017,4.4528,4.4316,4.3143,4.2354,4.2143,4.1527,4.117,4.117,4.1797,4.2527,4.3393,4.3393,4.3816,4.4624,4.5287,4.5594,4.5594,4.5594,4.5594,3.0722,3.0655,3.0578,3.052,3.0451,3.0398,0.0,0.0,3.1494,3.1987,3.2598,3.3221,3.3713,3.3807,3.3807,3.3807,3.3807,3.3807,3.3807,3.3807,3.3807,3.3807,3.3807,0.0,0.0,0.0,0.0,0.0,3.3807,3.3606,3.3184,3.2745,3.2282,3.1789,3.1408,3.1207,3.1258,3.1955,3.2327,3.2361,3.3102,3.3457,3.3491,3.4218,3.4578,3.4634,3.5301,3.5622,3.5717,3.6766,3.7209,3.7303,3.8302,3.8707,3.8707,3.8707,3.8707,3.8707,3.8707,3.8707,3.8707,3.8707,3.8707,3.8707,3.8707,3.8707,3.8707,3.8707,3.8707,3.8707,3.8707,3.8707,3.8707,3.8707,3.8909,3.9276,3.9932,4.0267,4.0473,4.0489,4.0496,4.0766,4.1585,4.247,4.3297,4.4066,4.496,4.5537,4.5537,4.5575,4.5594,4.5594,4.5556,4.521,4.4374,4.422,4.3835,4.3085,4.2989,4.2951,4.2951,4.3008,4.3412,4.422,4.4239,4.4662,4.5537,4.5575,4.5594,4.5594,4.5594,4.5594,3.0743,3.0684,3.0648,3.0525,3.0486,3.0447,3.0408,3.1008,3.1506,3.1362,3.2351,3.322,3.3053,3.3458,3.3807,3.3807,3.3807,3.3807,3.3807,3.3807,3.3807,3.3807,3.3807,3.3807,0.0,0.0,0.0,0.0,0.0,3.362,3.3229,3.3045,3.2729,3.2247,3.1824,3.1451,3.121,3.1464,3.1599,3.1616,3.2324,3.2679,3.2713,3.3457,3.3795,3.3846,3.4573,3.5165,3.5672,3.6746,3.7209,3.7303,3.8302,3.8707,3.8707,3.8707,3.8707,3.8707,3.8707,3.8707,3.8707,3.8707,3.8707,3.8707,3.8707,3.8707,3.8707,3.8707,3.8707,3.8707,3.8707,3.8707,3.8792,3.9195,3.9524,3.9861,4.0267,4.0422,4.0496,4.0496,4.0496,4.0785,4.1662,4.2527,4.3374,4.4182,4.5037,4.5594,4.5594,4.5594,4.5594,4.5594,4.5594,4.5479,4.5171,4.4624,4.4182,4.3893,4.3393,4.3104,4.3104,4.3605,4.4008,4.4297,4.4855,4.5287,4.5594,4.5594,4.5594,4.5594,4.5594,4.5594,3.0793,0.0,0.0,3.0597,3.0537,3.05,3.0446,3.0868,3.1226,3.1067,3.1845,3.2528,3.2446,3.3025,3.3589,3.3765,3.3807,3.3807,3.3807,3.3807,3.3807,3.3807,3.3807,3.3807,0.0,0.0,0.0,0.0,0.0,0.0,3.3422,3.3273,3.2903,3.2281,3.1951,3.1621,3.121,3.119,3.119,3.1207,3.1701,3.1938,3.1955,3.2679,3.3034,3.3068,3.3812,3.4556,3.5338,3.6661,3.7078,3.7057,3.8236,3.8578,3.8465,3.8627,3.8707,3.8707,3.8707,3.8707,3.8707,3.8707,3.8707,3.8707,3.8707,3.8707,3.8707,3.8707,3.8707,3.8707,3.8707,3.8777,3.8994,3.963,3.9932,4.0167,4.0449,4.0496,4.0496,4.0496,4.0496,4.0881,4.2047,4.272,4.347,4.4566,4.5229,4.5594,4.5594,4.5594,4.5594,4.5594,4.5594,4.5594,4.5594,4.5075,4.4739,4.4739,4.422,4.3932,4.3932,4.4451,4.4739,4.4739,4.5306,4.5594,4.5594,4.5594,4.5594,4.5594,4.5594,4.5594,0.0,0.0,0.0,3.0695,3.0609,3.0503,3.0503,3.0456,3.0561,3.1146,3.108,3.1157,3.1911,3.2566,3.3138,3.3703,3.3797,3.382,3.3807,3.3807,3.3807,3.3807,3.3807,3.3807,0.0,0.0,0.0,0.0,3.3807,3.3807,3.3807,3.3419,3.2793,3.1862,3.1843,3.164,3.123,3.121,3.119,3.119,3.119,3.119,3.1207,3.1938,3.2276,3.231,3.3051,3.3778,3.4601,3.6416,3.6847,3.6525,3.8066,3.8366,3.7963,3.8496,3.8707,3.8707,3.8707,3.8707,3.8707,3.8707,3.8707,3.8707,3.8707,3.8707,3.8707,3.8707,3.8707,3.8707,3.8707,3.8909,3.9276,3.9922,4.0101,4.0177,4.043,4.0496,4.0496,4.0496,4.0516,4.1073,4.2797,4.3124,4.3701,4.5344,4.5594,4.5594,4.5594,4.5594,4.5594,4.5594,4.5594,4.5594,4.5594,4.5594,4.5594,4.5594,4.5594,4.5594,4.5594,4.5594,4.5594,4.5594,4.5594,4.5594,4.5594,4.5594,4.5594,4.5594,4.5594,4.5594,3.0898,0.0,0.0,0.0,0.0,0.0,3.052,3.0456,3.0394,3.0359,3.0803,3.12,3.1242,3.1844,3.2591,3.339,3.3846,3.4018,3.3829,3.3807,3.3807,3.3807,3.3807,3.3807,3.3807,0.0,0.0,0.0,3.3807,3.3807,3.3807,3.3694,3.339,3.284,3.2483,3.2092,3.164,3.1351,3.119,3.119,3.119,3.119,3.1207,3.141,3.1495,3.1565,3.2293,3.2903,3.3554,3.5149,3.5745,3.5777,3.7469,3.8013,3.7963,3.8496,3.8707,3.8707,3.8707,3.8707,3.8707,3.8707,3.8707,3.8707,3.8707,3.8707,3.8707,3.8707,3.8707,3.8707,3.8707,3.9073,3.9517,3.969,4.0072,4.0406,4.0481,4.0496,4.0496,4.0496,4.1008,4.1797,4.2912,4.3585,4.4335,4.5441,4.5594,4.5594,4.5594,4.5594,4.5594,4.5594,4.5594,4.5594,4.5594,4.5594,4.5594,4.5594,4.5594,4.5594,4.5594,4.5594,4.5594,4.5594,4.5594,4.5594,4.5594,4.5594,4.5594,4.5594,4.5594,4.5594,0.0,0.0,0.0,3.0794,0.0,0.0,3.054,3.0477,3.0355,3.0202,3.0469,3.0738,3.0708,3.1273,3.1925,3.2446,3.3072,3.3599,3.3926,3.3974,3.3928,3.3802,3.3807,3.3807,0.0,3.3807,3.3807,3.3807,3.3807,3.3807,3.3807,3.3807,3.3625,3.3214,3.2745,3.2264,3.1789,3.1391,3.119,3.119,3.119,3.119,3.119,3.119,3.119,3.1207,3.1667,3.1995,3.2355,3.3757,3.4629,3.5228,3.7032,3.7609,3.7494,3.8387,3.8707,3.8707,3.8707,3.8707,3.8707,3.8707,3.8707,3.8707,3.8707,3.8707,3.8707,3.8707,3.8707,3.8765,3.9013,3.9327,3.9668,3.9915,4.0248,4.0496,4.0496,4.0496,4.0496,4.0496,4.12,4.2085,4.2951,4.3778,4.4605,4.5479,4.5594,4.5594,4.5594,4.5594,4.5594,4.5594,4.5594,4.5594,4.5594,4.5594,4.5594,4.5594,4.5594,4.5594,4.5594,4.5594,4.5594,4.5594,4.5594,4.5594,4.5594,4.5594,4.5594,4.5594,4.5594,4.5594,0.0,0.0,0.0,0.0,3.0755,0.0,3.0606,3.0498,3.0408,3.0404,3.0209,3.0122,3.0355,3.0841,3.1226,3.1337,3.1947,3.279,3.3811,3.4025,3.3969,3.3734,3.376,3.3807,3.3807,3.3807,3.3807,3.3807,3.3807,3.3807,3.3807,3.3807,3.3652,3.3273,3.2809,3.2349,3.1897,3.1526,3.1329,3.1271,3.1271,3.1291,3.1349,3.1232,3.123,3.1271,3.1271,3.1291,3.1421,3.2567,3.3614,3.4694,3.6656,3.7132,3.6845,3.8222,3.8707,3.8707,3.8707,3.8707,3.8707,3.8707,3.8707,3.8707,3.8707,3.8707,3.8707,3.8707,3.8719,3.8859,3.9414,3.9599,3.9789,4.0328,4.0481,4.0496,4.0496,4.0496,4.0496,4.0496,4.1277,4.22,4.297,4.3855,4.4701,4.5479,4.5594,4.5594,4.5594,4.5594,4.5594,4.5594,4.5594,4.5594,4.5594,4.5594,4.5594,4.5594,4.5594,4.5594,4.5594,4.5594,4.5594,4.5594,4.5594,4.5594,4.5594,4.5594,4.5594,4.5594,4.5594,4.5594,0.0,0.0,0.0,0.0,0.0,0.0,3.0617,3.0541,3.0472,3.0408,3.0361,3.0349,3.0398,3.0495,3.0816,3.1508,3.1757,3.2003,3.2458,3.2921,3.3217,3.3159,3.3528,3.3807,3.3807,3.3807,3.3807,3.3807,3.3807,3.3807,3.3807,3.3807,3.3762,3.3694,3.3288,3.284,3.2384,3.2282,3.2074,3.1678,3.1678,3.1879,3.2213,3.1524,3.1389,3.1678,3.1678,3.1897,3.2299,3.2923,3.3224,3.3574,3.5928,3.6788,3.6845,3.8222,3.8707,3.8707,3.8707,3.8707,3.8707,3.8707,3.8707,3.8707,3.8707,3.8707,3.8707,3.8707,3.8873,3.9049,3.9178,3.9599,4.0032,4.0148,4.0347,4.0496,4.0496,4.0496,4.0496,4.0496,4.1758,4.2893,4.3066,4.4355,4.5402,4.5575,4.5594,4.5594,4.5594,4.5594,4.5594,4.5594,4.5594,4.5594,4.5594,4.5594,4.5594,4.5594,4.5594,4.5594,4.5594,4.5594,4.5594,4.5594,4.5594,4.5594,4.5594,4.5594,4.5594,4.5594,4.5594,4.5594,0.0,0.0,0.0,3.0898,0.0,0.0,0.0,3.0571,3.0481,3.0452,3.0417,3.0404,3.0404,3.0404,3.0538,3.0981,3.1058,3.1092,3.1226,3.2125,3.2669,3.243,3.2641,3.2754,3.2621,3.2596,3.2596,3.2596,3.2981,3.3201,3.3201,3.3587,3.3807,3.3807,3.3404,3.3075,3.284,3.2616,3.2384,3.2144,3.2144,3.2264,3.2484,3.2056,3.1968,3.2144,3.2144,3.2281,3.2534,3.3014,3.3169,3.3293,3.5126,3.6121,3.664,3.7714,3.8358,3.8707,3.8707,3.8707,3.8707,3.8707,3.8707,3.8707,3.8707,3.8788,3.8894,3.8894,3.9122,3.9377,3.9564,3.9859,4.0129,4.0278,4.0397,4.0496,4.0496,4.0496,4.0631,4.1066,4.22,4.3104,4.3104,4.4489,4.5594,4.5594,4.5594,4.5594,4.5594,4.5594,4.5594,4.5594,4.5594,4.5594,4.5594,4.5594,4.5594,4.5594,4.5594,4.5594,4.5594,4.5594,4.5594,4.5594,4.5594,4.5594,4.5594,4.5594,4.5594,4.5594,4.5594,4.5594,0.0,0.0,0.0,0.0,0.0,3.0722,0.0,0.0,0.0,3.0511,3.0457,3.0419,3.041,0.0,0.0,0.0,0.0,0.0,0.0,3.139,0.0,3.1663,3.1733,3.1681,3.1421,3.1397,3.1397,3.1397,3.2008,3.2375,3.2375,3.3128,3.3568,3.3568,3.3389,3.3273,3.3199,3.2887,3.2713,3.2632,3.2632,3.2681,3.2727,3.2583,3.255,3.2632,3.2632,3.2632,3.2665,3.3121,3.3317,3.3437,3.4562,3.5426,3.6174,3.7144,3.7915,3.8487,3.8652,3.8707,3.8707,3.8707,3.8707,3.8723,3.8762,3.8937,3.9107,3.9173,3.9426,3.9765,4.0022,4.0139,4.0223,4.0457,4.0496,4.0496,4.0496,4.0496,4.0766,4.1643,4.2508,4.3143,4.3297,4.4586,4.5594,4.5594,4.5594,4.5594,4.5594,4.5594,4.5594,4.5594,4.5594,4.5594,4.5594,4.5594,4.5594,4.5594,4.5594,4.5594,4.5594,4.5594,4.5594,4.5594,4.5594,4.5594,4.5594,4.5594,4.5594,4.5594,4.5594,4.5594,0.0,0.0,0.0,0.0,3.0898,0.0,0.0,0.0,3.0633,3.0521,0.0,3.0463,3.0408,0.0,0.0,0.0,0.0,0.0,3.0404,3.054,3.0736,3.0959,3.1476,3.1681,3.1421,3.1397,3.1397,3.1397,3.1476,3.1544,3.1544,3.2302,3.2729,3.2729,3.3381,3.3564,3.3199,3.3508,3.3462,3.3105,3.3105,3.3317,3.362,3.2856,3.2729,3.3105,3.3105,3.3105,3.3136,3.3564,3.3734,3.3826,3.4679,3.5059,3.5334,3.6923,3.7566,3.7749,3.845,3.8707,3.8707,3.8707,3.8707,3.8732,3.8985,3.9072,3.9147,3.945,3.9786,4.0042,4.0091,4.0286,4.0465,4.0489,4.0496,4.0496,4.0496,4.0496,4.0766,4.1643,4.2508,4.3335,4.4047,4.496,4.5594,4.5594,4.5594,4.5594,4.5594,4.5594,4.5594,4.5594,4.5594,4.5594,4.5594,4.5594,4.5594,4.5594,4.5594,4.5594,4.5594,4.5594,4.5594,4.5594,4.5594,4.5594,4.5594,4.5594,4.5594,4.5594,4.5594,4.5594,0.0,0.0,0.0,0.0,0.0,0.0,3.0836,0.0,3.0677,0.0,0.0,0.0,0.0,0.0,0.0,0.0,3.0404,0.0,0.0,0.0,3.0388,0.0,0.0,0.0,3.0037,0.0,0.0,3.0008,3.0448,3.0705,3.0705,3.1476,3.2118,3.2583,3.2931,3.325,3.355,3.3721,3.3721,3.355,3.355,3.3652,3.3793,3.3419,3.3361,3.355,3.355,3.355,3.3564,3.3734,3.3807,3.3825,3.4174,3.4582,3.5151,3.6358,3.7107,3.7621,3.8414,3.8707,3.8707,3.8707,3.8803,3.8961,3.9058,3.9364,3.972,3.984,4.011,4.0339,4.0339,4.0425,4.0496,4.0496,4.0496,4.0496,4.0496,4.0496,4.092,4.2297,4.2854,4.3528,4.4816,4.5364,4.5594,4.5594,4.5594,4.5594,4.5594,4.5594,4.5594,4.5594,4.5594,4.5594,4.5594,4.5594,4.5594,4.5594,4.5594,4.5594,4.5594,4.5594,4.5594,4.5594,4.5594,4.5594,4.5594,4.5594,4.5594,4.5594,4.5594,4.5594,3.0898,0.0,0.0,0.0,0.0,0.0,0.0,0.0,0.0,0.0,0.0,0.0,0.0,0.0,0.0,0.0,0.0,3.0404,0.0,3.0404,0.0,0.0,0.0,0.0,0.0,0.0,2.9005,2.9005,2.9537,2.9879,2.9879,3.0632,3.1329,3.1922,3.2362,3.2876,3.3476,3.3697,3.3807,3.3807,3.3807,3.3807,3.3807,3.3807,3.3807,3.3807,3.3807,3.3807,3.3807,3.3807,3.3807,3.3807,3.3807,3.4174,3.4766,3.5642,3.645,3.729,3.8083,3.8524,3.8704,3.8788,3.8933,3.912,3.9314,3.9701,4.011,4.0186,4.0347,4.0496,4.0496,4.0496,4.0496,4.0496,4.0496,4.0496,4.0496,4.0496,4.1016,4.2758,4.3104,4.3624,4.5306,4.5594,4.5594,4.5594,4.5594,4.5594,4.5594,4.5594,4.5594,4.5594,4.5594,4.5594,4.5594,4.5594,4.5594,4.5594,4.5594,4.5594,4.5594,4.5594,4.5594,4.5594,4.5594,4.5594,4.5594,4.5594,4.5594,4.5594,4.5594,4.5594,0.0,0.0,0.0,3.0878,0.0,0.0,0.0,0.0,3.0858,0.0,0.0,0.0,0.0,0.0,0.0,0.0,0.0,0.0,0.0,0.0,3.0305,0.0,0.0,0.0,0.0,2.9156,2.9005,2.9005,2.9023,2.9042,2.9042,2.9794,3.0246,3.0283,3.1794,3.2601,3.2638,3.3421,3.3807,3.3807,3.3807,3.3807,3.3807,3.3807,3.3807,3.3807,3.3807,3.3807,3.3807,3.3807,3.3807,3.3807,3.3807,3.3825,3.3935,3.4747,3.5591,3.645,3.7254,3.8046,3.8732,3.9013,3.9099,3.9212,3.988,4.0081,4.0148,4.0406,4.0489,4.0496,4.0496,4.0496,4.0496,4.0496,4.0496,4.0496,4.0496,4.0496,4.1016,4.2758,4.3104,4.3624,4.5306,4.5594,4.5594,4.5594,4.5594,4.5594,4.5594,4.5594,4.5594,4.5594,4.5594,4.5594,4.5594,4.5594,4.5594,4.5594,4.5594,4.5594,4.5594,4.5594,4.5594,4.5594,4.5594,4.5594,4.5594,4.5594,4.5594,4.5594,4.5594,4.5594,0.0,0.0,3.0657,3.0743,0.0,0.0,0.0,0.0,0.0,0.0,0.0,0.0,0.0,0.0,0.0,0.0,0.0,0.0,0.0,0.0,3.0361,3.0286,2.9988,0.0,0.0,0.0,0.0,2.901,2.9167,2.92,2.9017,2.9262,2.9647,3.0173,3.1237,3.2063,3.2583,3.3403,3.3807,3.3807,3.3807,3.3807,3.3807,3.3807,3.3807,3.3807,3.3807,3.3807,3.3807,3.3807,3.3807,3.3807,3.3807,3.3807,3.3899,3.4711,3.5555,3.6486,3.7826,3.8469,3.8732,3.9008,3.9238,3.9498,3.9953,4.0223,4.0381,4.0473,4.0496,4.0496,4.0496,4.0496,4.0496,4.0496,4.0496,4.0496,4.0496,4.0496,4.1016,4.2758,4.3104,4.3624,4.5306,4.5594,4.5594,4.5594,4.5594,4.5594,4.5594,4.5594,4.5594,4.5594,4.5594,4.5594,4.5594,4.5594,4.5594,4.5594,4.5594,4.5594,4.5594,4.5594,4.5594,4.5594,4.5594,4.5594,4.5594,4.5594,4.5594,4.5594,4.5594,4.5594,3.065,3.0623,0.0,3.0655,3.065,0.0,3.0793,0.0,0.0,0.0,0.0,0.0,0.0,0.0,0.0,0.0,0.0,0.0,0.0,3.0404,3.0404,3.0404,3.0157,2.9901,0.0,2.9607,2.9494,2.9262,2.9249,2.9214,0.0,0.0,2.9244,2.9769,3.0834,3.1654,3.2173,3.3256,3.3807,3.3807,3.3807,3.3807,3.3807,3.3807,3.3807,3.3807,3.3807,3.3807,3.3807,3.3807,3.3807,3.3807,3.3807,3.3807,3.3862,3.438,3.5312,3.6486,3.7808,3.8469,3.8762,3.9157,3.9414,3.9679,4.011,4.0364,4.0496,4.0496,4.0496,4.0496,4.0496,4.0496,4.0496,4.0496,4.0496,4.0496,4.0496,4.0746,4.1393,4.2816,4.3335,4.397,4.5364,4.5594,4.5594,4.5594,4.5594,4.5594,4.5594,4.5594,4.5594,4.5594,4.5594,4.5594,4.5594,4.5594,4.5594,4.5594,4.5594,4.5594,4.5594,4.5594,4.546,4.5152,4.5441,4.546,4.5152,4.546,4.5594,4.5594,4.5594,4.5594]}]]